[[{"header":{"parameterUnit":"m.s-1","parameterCategory":1,"la1":30.6,"la2":29.2853,"lo1":-89.7004,"lo2":-87.6739,"dy":0.0162,"dx":0.0183,"nx":112,"ny":82,"refTime":"2024-05-07T00:00:00:Z","depth":0,"parameterNumber":2,"parameterNumberName":"U-component_of_WINDS"},"data":[0.0,0.0,0.0,0.0,0.0,0.0,0.0,0.0,0.0,0.0,0.0,0.0,0.0,0.0,0.0,0.0,0.0,0.0,0.0,0.0,0.0,0.0,0.0,0.0,0.0,0.0,0.0,0.0,0.0,0.0,0.0,0.0,0.0,0.0,0.0,0.0,0.0,0.0,0.0,0.0,0.0,0.0,0.0,0.0,0.0,0.0,0.0,0.0,0.0,0.0,0.0,0.0,0.0,0.0,0.0,0.0,0.0,0.0,0.0,0.0,0.0,0.0,0.0,0.0,0.0,0.0,0.0,0.0,0.0,0.0,0.0,0.0,0.0,0.0,0.0,0.0,0.0,0.0,0.0,0.0,0.0,0.0,0.0,0.0,0.0,0.0,0.0,0.0,0.0,0.0,-6.5448,-6.8972,-7.8295,-8.4646,-8.571,-8.5233,-8.0351,-6.9743,0.0,0.0,0.0,0.0,0.0,0.0,0.0,0.0,0.0,0.0,0.0,0.0,0.0,0.0,0.0,0.0,0.0,0.0,0.0,0.0,0.0,0.0,0.0,0.0,0.0,0.0,0.0,0.0,0.0,0.0,0.0,0.0,0.0,0.0,0.0,0.0,0.0,0.0,0.0,0.0,0.0,0.0,0.0,0.0,0.0,0.0,0.0,0.0,0.0,0.0,0.0,0.0,0.0,0.0,0.0,0.0,0.0,0.0,0.0,0.0,0.0,0.0,0.0,0.0,0.0,0.0,0.0,0.0,0.0,0.0,0.0,0.0,0.0,0.0,0.0,0.0,0.0,0.0,0.0,0.0,0.0,0.0,0.0,0.0,0.0,0.0,0.0,0.0,0.0,0.0,0.0,0.0,0.0,0.0,0.0,0.0,0.0,0.0,0.0,0.0,0.0,0.0,0.0,0.0,-6.7393,-7.6019,-8.0314,-8.3434,-8.56,-8.2663,-7.7598,-7.0367,0.0,0.0,0.0,0.0,0.0,0.0,0.0,0.0,0.0,0.0,0.0,0.0,0.0,0.0,0.0,0.0,0.0,0.0,0.0,0.0,0.0,0.0,0.0,0.0,0.0,0.0,0.0,0.0,0.0,0.0,0.0,0.0,0.0,0.0,0.0,0.0,0.0,0.0,0.0,0.0,0.0,0.0,0.0,0.0,0.0,0.0,0.0,0.0,0.0,0.0,0.0,0.0,0.0,0.0,0.0,0.0,0.0,0.0,0.0,0.0,0.0,0.0,0.0,0.0,0.0,0.0,0.0,0.0,0.0,0.0,0.0,0.0,0.0,0.0,0.0,0.0,0.0,0.0,0.0,0.0,0.0,0.0,0.0,0.0,0.0,0.0,0.0,0.0,0.0,0.0,0.0,0.0,0.0,0.0,0.0,0.0,0.0,0.0,0.0,0.0,0.0,0.0,0.0,-6.5264,-6.9743,-7.7745,-8.0351,-8.215,-8.3728,-8.0534,-7.6026,-7.0356,-6.7049,0.0,0.0,0.0,0.0,0.0,0.0,0.0,0.0,0.0,0.0,0.0,0.0,0.0,0.0,0.0,0.0,0.0,0.0,0.0,0.0,0.0,0.0,0.0,0.0,0.0,0.0,0.0,0.0,0.0,0.0,0.0,0.0,0.0,0.0,0.0,0.0,0.0,0.0,0.0,0.0,0.0,0.0,0.0,0.0,0.0,0.0,0.0,0.0,0.0,0.0,0.0,0.0,0.0,0.0,0.0,0.0,0.0,0.0,0.0,0.0,0.0,0.0,0.0,0.0,0.0,0.0,0.0,0.0,0.0,0.0,0.0,0.0,0.0,0.0,0.0,0.0,0.0,0.0,0.0,0.0,0.0,0.0,0.0,0.0,0.0,0.0,0.0,0.0,0.0,0.0,0.0,0.0,0.0,0.0,0.0,0.0,0.0,0.0,0.0,0.0,0.0,0.0,-6.8238,-7.1174,-7.7892,-7.9874,-8.0975,-8.1562,-7.8626,-7.4712,-6.9941,-6.5377,0.0,0.0,0.0,0.0,0.0,0.0,0.0,0.0,0.0,0.0,0.0,0.0,0.0,0.0,0.0,0.0,0.0,0.0,0.0,0.0,0.0,0.0,0.0,0.0,0.0,0.0,0.0,0.0,0.0,0.0,0.0,0.0,0.0,0.0,0.0,0.0,0.0,0.0,0.0,0.0,0.0,0.0,0.0,0.0,0.0,0.0,0.0,0.0,0.0,0.0,0.0,0.0,0.0,0.0,0.0,0.0,0.0,0.0,0.0,0.0,0.0,0.0,0.0,0.0,0.0,0.0,0.0,0.0,0.0,0.0,0.0,0.0,0.0,0.0,0.0,0.0,0.0,0.0,0.0,0.0,0.0,0.0,0.0,0.0,0.0,0.0,0.0,0.0,0.0,0.0,0.0,0.0,0.0,0.0,0.0,0.0,0.0,0.0,0.0,0.0,0.0,0.0,-6.7724,-7.055,-7.7818,-7.936,-7.991,-7.9947,-7.6974,-7.3281,-6.9034,-6.3476,0.0,0.0,0.0,0.0,0.0,0.0,0.0,0.0,0.0,0.0,0.0,0.0,0.0,0.0,0.0,0.0,0.0,0.0,0.0,0.0,0.0,0.0,0.0,0.0,0.0,0.0,0.0,0.0,0.0,0.0,0.0,0.0,0.0,0.0,0.0,0.0,0.0,0.0,0.0,0.0,0.0,0.0,0.0,0.0,0.0,0.0,0.0,0.0,0.0,0.0,0.0,0.0,0.0,0.0,0.0,0.0,0.0,0.0,0.0,0.0,0.0,0.0,0.0,0.0,0.0,0.0,0.0,0.0,0.0,0.0,0.0,0.0,0.0,0.0,0.0,0.0,0.0,0.0,0.0,0.0,0.0,0.0,0.0,0.0,0.0,0.0,0.0,0.0,0.0,0.0,0.0,0.0,0.0,0.0,0.0,0.0,0.0,0.0,0.0,0.0,0.0,0.0,-6.8128,-7.0844,-7.7121,-7.8075,-7.8038,-7.7524,-7.4992,-7.1411,-6.6765,0.0,0.0,0.0,0.0,0.0,0.0,0.0,0.0,0.0,0.0,0.0,0.0,0.0,0.0,0.0,0.0,0.0,0.0,0.0,0.0,0.0,0.0,0.0,0.0,0.0,0.0,0.0,0.0,0.0,0.0,0.0,0.0,0.0,0.0,0.0,0.0,0.0,0.0,0.0,0.0,0.0,0.0,0.0,0.0,0.0,0.0,0.0,0.0,0.0,0.0,0.0,0.0,0.0,0.0,0.0,0.0,0.0,0.0,0.0,0.0,0.0,0.0,0.0,0.0,0.0,0.0,0.0,0.0,0.0,0.0,0.0,0.0,0.0,0.0,0.0,0.0,0.0,0.0,0.0,0.0,0.0,0.0,0.0,0.0,0.0,0.0,0.0,0.0,0.0,0.0,0.0,0.0,0.0,0.0,0.0,0.0,0.0,0.0,0.0,0.0,0.0,0.0,-6.6219,-6.7871,-7.0587,-7.5953,-7.676,-7.6717,-7.6166,-7.2716,-6.9027,-6.5337,0.0,0.0,0.0,0.0,0.0,0.0,0.0,0.0,0.0,0.0,0.0,0.0,0.0,0.0,0.0,0.0,0.0,0.0,0.0,0.0,0.0,0.0,0.0,0.0,0.0,0.0,0.0,0.0,0.0,0.0,0.0,0.0,0.0,0.0,0.0,0.0,0.0,0.0,0.0,0.0,0.0,0.0,0.0,0.0,0.0,0.0,0.0,0.0,0.0,0.0,0.0,0.0,0.0,0.0,0.0,0.0,0.0,0.0,0.0,0.0,0.0,0.0,0.0,0.0,0.0,0.0,0.0,0.0,0.0,0.0,0.0,0.0,0.0,0.0,0.0,0.0,0.0,0.0,0.0,0.0,0.0,0.0,0.0,0.0,0.0,0.0,0.0,0.0,0.0,0.0,0.0,0.0,0.0,0.0,0.0,0.0,0.0,0.0,0.0,0.0,0.0,0.0,-6.4677,-6.6696,-6.9559,-7.4404,-7.5616,-7.6093,-7.6056,-7.0183,-6.6093,0.0,0.0,0.0,0.0,0.0,0.0,0.0,0.0,0.0,0.0,0.0,0.0,0.0,0.0,0.0,0.0,0.0,0.0,0.0,0.0,0.0,0.0,0.0,0.0,0.0,0.0,0.0,0.0,0.0,0.0,0.0,0.0,0.0,0.0,0.0,0.0,0.0,0.0,0.0,0.0,0.0,0.0,0.0,0.0,0.0,0.0,0.0,0.0,0.0,0.0,0.0,0.0,0.0,0.0,0.0,0.0,0.0,0.0,0.0,0.0,0.0,0.0,0.0,0.0,0.0,0.0,0.0,0.0,0.0,0.0,0.0,0.0,0.0,0.0,0.0,0.0,0.0,0.0,0.0,0.0,0.0,0.0,0.0,0.0,0.0,0.0,0.0,0.0,0.0,0.0,0.0,0.0,0.0,0.0,0.0,0.0,0.0,0.0,0.0,0.0,0.0,0.0,0.0,-6.5448,-6.7063,-6.9779,-7.5175,-7.5469,-7.5028,-7.4441,-7.0073,-6.5999,-6.2828,0.0,0.0,0.0,0.0,0.0,0.0,0.0,0.0,0.0,0.0,0.0,0.0,0.0,0.0,0.0,0.0,0.0,0.0,0.0,0.0,0.0,0.0,0.0,0.0,0.0,0.0,0.0,0.0,0.0,0.0,0.0,0.0,0.0,0.0,0.0,0.0,0.0,0.0,0.0,0.0,0.0,0.0,0.0,0.0,0.0,0.0,0.0,0.0,0.0,0.0,0.0,0.0,0.0,0.0,0.0,0.0,0.0,0.0,0.0,0.0,0.0,0.0,0.0,0.0,0.0,0.0,0.0,0.0,0.0,0.0,0.0,0.0,0.0,0.0,0.0,0.0,0.0,0.0,0.0,0.0,0.0,0.0,0.0,0.0,0.0,0.0,0.0,0.0,0.0,0.0,0.0,0.0,0.0,0.0,0.0,0.0,0.0,0.0,0.0,0.0,0.0,0.0,-6.4383,-6.6292,-6.9009,-7.3707,-7.4331,-7.4111,-7.3303,-6.9229,-6.5264,-6.1814,0.0,0.0,0.0,0.0,0.0,0.0,0.0,0.0,0.0,0.0,0.0,0.0,0.0,0.0,0.0,0.0,0.0,0.0,0.0,0.0,0.0,0.0,0.0,0.0,0.0,0.0,0.0,0.0,0.0,0.0,0.0,0.0,0.0,0.0,0.0,0.0,0.0,0.0,0.0,0.0,0.0,0.0,0.0,0.0,0.0,0.0,0.0,0.0,0.0,0.0,0.0,0.0,0.0,0.0,0.0,0.0,0.0,0.0,0.0,0.0,0.0,0.0,0.0,0.0,0.0,0.0,0.0,0.0,0.0,0.0,0.0,0.0,0.0,0.0,0.0,0.0,0.0,0.0,0.0,0.0,0.0,0.0,0.0,0.0,0.0,0.0,0.0,0.0,0.0,0.0,0.0,0.0,0.0,0.0,0.0,0.0,0.0,0.0,0.0,0.0,0.0,0.0,-6.2401,-6.4971,-6.765,-7.0926,-7.2606,-7.3156,-7.2349,-6.7981,-6.42,-6.163,0.0,0.0,0.0,0.0,0.0,0.0,0.0,0.0,0.0,0.0,0.0,0.0,0.0,0.0,0.0,0.0,0.0,0.0,0.0,0.0,0.0,0.0,0.0,0.0,0.0,0.0,0.0,0.0,0.0,0.0,0.0,0.0,0.0,0.0,0.0,0.0,0.0,0.0,0.0,0.0,0.0,0.0,0.0,0.0,0.0,0.0,0.0,0.0,0.0,0.0,0.0,0.0,0.0,0.0,0.0,0.0,0.0,0.0,0.0,0.0,-6.5243,0.0,0.0,0.0,0.0,0.0,0.0,0.0,0.0,0.0,0.0,0.0,0.0,0.0,0.0,0.0,0.0,0.0,0.0,0.0,0.0,0.0,0.0,0.0,0.0,0.0,0.0,0.0,0.0,0.0,0.0,0.0,0.0,0.0,0.0,0.0,0.0,0.0,0.0,0.0,0.0,0.0,-6.3209,-6.4861,-6.7026,-7.0889,-7.1615,-7.1505,-7.066,-6.7357,-6.398,-6.086,-5.7894,0.0,0.0,0.0,0.0,0.0,0.0,0.0,0.0,0.0,0.0,0.0,0.0,0.0,0.0,0.0,0.0,0.0,0.0,0.0,0.0,0.0,0.0,0.0,0.0,0.0,0.0,0.0,0.0,0.0,0.0,0.0,0.0,0.0,0.0,0.0,0.0,0.0,0.0,0.0,0.0,0.0,0.0,0.0,0.0,0.0,0.0,0.0,0.0,0.0,0.0,0.0,0.0,0.0,0.0,0.0,0.0,0.0,0.0,0.0,0.0,-6.6821,0.0,0.0,0.0,0.0,0.0,0.0,0.0,0.0,0.0,0.0,0.0,0.0,0.0,0.0,0.0,0.0,0.0,0.0,0.0,0.0,0.0,0.0,0.0,0.0,0.0,0.0,0.0,0.0,0.0,0.0,0.0,0.0,0.0,0.0,0.0,0.0,0.0,0.0,0.0,0.0,-6.2842,-6.42,-6.6109,-6.9779,-7.0513,-7.0403,-6.9596,-6.6953,-6.4053,-6.1153,-5.8234,0.0,0.0,0.0,0.0,0.0,0.0,0.0,0.0,0.0,0.0,0.0,0.0,0.0,0.0,0.0,0.0,0.0,0.0,0.0,0.0,0.0,0.0,0.0,0.0,0.0,0.0,0.0,0.0,0.0,0.0,0.0,0.0,0.0,0.0,0.0,0.0,0.0,0.0,0.0,0.0,0.0,0.0,0.0,0.0,0.0,0.0,0.0,0.0,0.0,0.0,0.0,0.0,0.0,-7.74,-7.8246,-7.9169,-7.9323,-7.94,-7.9131,-7.4245,-7.1206,-6.9667,-6.909,0.0,0.0,0.0,0.0,0.0,0.0,0.0,0.0,0.0,0.0,0.0,0.0,0.0,0.0,0.0,0.0,0.0,0.0,0.0,0.0,0.0,0.0,0.0,0.0,-6.322,-6.2658,0.0,0.0,0.0,0.0,0.0,0.0,0.0,0.0,0.0,0.0,0.0,0.0,-6.2034,-6.3466,-6.5228,-6.8164,-6.9339,-6.9522,-6.8568,-6.6549,-6.42,-6.1557,-5.8637,-5.6141,0.0,0.0,0.0,0.0,0.0,0.0,0.0,0.0,0.0,0.0,0.0,0.0,0.0,0.0,0.0,0.0,0.0,0.0,0.0,0.0,0.0,0.0,0.0,0.0,0.0,0.0,0.0,0.0,0.0,0.0,0.0,0.0,-6.1972,-6.1389,0.0,0.0,0.0,0.0,0.0,0.0,0.0,0.0,0.0,0.0,0.0,0.0,0.0,-7.4585,-7.6284,-7.94,-8.04,-7.9361,-8.3016,-8.3747,-8.1823,-8.2593,-8.2939,-8.2862,-8.2093,0.0,-7.4784,-7.1783,0.0,0.0,0.0,0.0,0.0,0.0,0.0,0.0,0.0,0.0,0.0,0.0,0.0,0.0,0.0,0.0,0.0,0.0,0.0,0.0,0.0,0.0,-6.3833,-6.4751,-6.4971,-6.4714,0.0,-6.1667,-5.9685,-5.8253,-5.7997,0.0,0.0,0.0,0.0,0.0,0.0,0.0,-6.13,-6.3135,-6.4787,-6.6623,-6.8164,-6.8458,-6.6953,-6.5888,-6.3943,-6.075,-5.9478,-5.7404,-5.4141,-5.39,0.0,0.0,0.0,0.0,0.0,0.0,0.0,0.0,0.0,0.0,0.0,0.0,0.0,0.0,0.0,0.0,0.0,0.0,0.0,0.0,0.0,0.0,0.0,0.0,0.0,0.0,0.0,0.0,0.0,-6.2206,-6.3798,-6.1444,-6.3219,-6.3687,0.0,0.0,0.0,0.0,0.0,0.0,0.0,0.0,0.0,-7.5272,-7.7761,-7.9398,-8.0092,-8.2978,-8.4555,-8.4824,-8.6671,-8.7478,-8.7325,-8.7709,-8.7863,-8.7825,-8.7363,-8.5476,-8.2312,-7.7232,-7.3183,-6.9827,0.0,0.0,0.0,0.0,-6.3072,-6.3726,-6.4376,-6.4864,0.0,-6.4861,0.0,0.0,0.0,0.0,0.0,0.0,0.0,0.0,0.0,0.0,0.0,-6.6439,-6.7357,-6.7283,-6.464,-6.3613,-6.2401,0.0,-5.8621,-5.7997,-5.7997,0.0,0.0,0.0,0.0,-5.796,-6.119,-6.2218,-6.3503,-6.5595,-6.6476,-6.6586,-6.5888,-6.5081,-6.3613,-6.1227,-5.9905,-5.7867,-5.4889,-5.4355,-5.3689,0.0,0.0,0.0,0.0,0.0,0.0,0.0,0.0,0.0,0.0,0.0,0.0,0.0,0.0,0.0,0.0,0.0,0.0,0.0,0.0,0.0,0.0,0.0,0.0,0.0,0.0,0.0,0.0,-6.3833,-6.5721,-6.1892,-6.5605,-6.6959,0.0,0.0,0.0,0.0,0.0,0.0,-7.5314,-7.7009,-7.8631,-8.0288,-8.2732,-8.418,-8.4555,-8.6478,-8.8171,-8.9671,-8.944,-8.9979,-9.121,-9.121,-9.121,-9.1171,-9.0517,-8.9532,-8.7925,-8.1803,-7.6897,-7.2904,-6.9664,-6.7555,-6.6298,-6.5803,-6.6309,-6.7269,-6.7731,-6.8482,-6.8935,-6.7357,0.0,-6.387,-6.1263,0.0,0.0,0.0,0.0,-6.1924,-6.4383,-6.6072,-6.7283,-6.7871,-6.9082,-6.9119,-6.5485,-6.4861,-6.409,0.0,-5.9428,-5.8547,-5.8327,0.0,0.0,0.0,0.0,-5.7813,-6.0639,-6.1153,-6.2071,-6.4127,-6.4567,-6.4604,-6.4383,-6.3796,-6.2732,-6.108,-5.9869,-5.8037,-5.5505,-5.4846,-5.3997,-5.2886,0.0,0.0,0.0,0.0,0.0,0.0,0.0,0.0,0.0,0.0,0.0,0.0,0.0,0.0,0.0,0.0,0.0,0.0,0.0,0.0,0.0,0.0,0.0,0.0,0.0,0.0,0.0,0.0,0.0,-6.2936,-6.9628,0.0,0.0,0.0,0.0,-7.4413,-7.4734,-7.6281,-7.9685,-8.1374,-8.2989,-8.4725,-8.7115,-8.9133,-9.0748,-9.0864,-9.1402,-9.2287,-9.1479,-9.1133,-9.121,-9.121,-9.121,-9.121,-9.1171,-9.0615,-8.9388,-8.3771,-8.0083,-7.7517,-7.304,-7.0323,-6.8869,-6.8331,-6.8086,-6.8044,-6.7915,-6.885,-7.0146,-7.0807,-6.9926,-6.8017,-6.4824,-6.3246,0.0,0.0,-6.3246,-6.4457,-6.688,-6.8128,-6.8788,-6.8825,-6.9486,-6.9412,-6.6916,-6.5191,-6.3392,0.0,-6.0346,-6.0052,-5.9258,0.0,-5.796,-5.7997,-5.7336,-5.7409,-5.9074,-6.0015,-6.0786,-6.1704,-6.2475,-6.2622,-6.1851,-6.1741,-6.1043,-5.9404,-5.9221,-5.8037,-5.5505,-5.5359,-5.459,-5.3017,-5.285,0.0,0.0,0.0,0.0,0.0,0.0,0.0,0.0,0.0,0.0,0.0,0.0,0.0,0.0,0.0,0.0,0.0,0.0,0.0,0.0,0.0,0.0,0.0,0.0,0.0,0.0,0.0,0.0,-7.075,-7.6165,0.0,-7.4463,-7.5392,-7.6862,-7.8293,-7.9956,-8.2393,-8.5797,-8.7399,-8.9046,-9.0782,-9.1544,-9.221,-9.2787,-9.2826,-9.2941,-9.3249,-9.2941,-9.2556,-9.2056,-9.2056,-9.1748,-9.121,-9.121,-9.0609,-8.9463,-8.6431,-8.3807,-8.1293,-7.773,-7.5458,-7.4087,-7.2804,-7.2532,-7.2696,-7.2152,-7.2143,-7.2129,-7.033,-6.8678,-6.7026,-6.5375,-6.4677,-6.453,-6.5044,-6.5778,-6.6843,-6.8752,-6.9449,-6.9669,-6.9669,-6.9486,-6.8825,-6.6916,-6.6035,-6.5228,-6.3833,-6.1851,-6.0309,-6.0015,-5.9318,-5.8767,-5.8767,-5.8107,-5.796,-5.9038,-5.9441,-5.9942,-6.075,-6.108,-6.1153,-6.086,-6.0346,-5.9612,-5.851,-5.796,-5.6799,-5.4847,-5.4737,-5.4224,-5.3161,-5.3082,-5.2528,0.0,0.0,0.0,0.0,0.0,0.0,0.0,0.0,0.0,0.0,0.0,0.0,0.0,0.0,0.0,0.0,0.0,0.0,0.0,0.0,0.0,0.0,0.0,0.0,0.0,-7.2413,-7.6784,-7.6436,-8.2238,-8.4675,-8.0653,-8.1813,-8.3322,-8.4443,-8.5836,-8.8041,-9.1174,-9.2218,-9.3283,-9.4409,-9.4258,-9.4285,-9.4557,-9.398,-9.371,-9.371,-9.3403,-9.2864,-9.2056,-9.2056,-9.1748,-9.1192,-9.0989,-9.0544,-8.9725,-8.7723,-8.5974,-8.4187,-8.1168,-7.9002,-7.731,-7.5946,-7.5476,-7.5365,-7.4735,-7.3946,-7.2973,-7.1138,-6.9449,-6.7944,-6.6843,-6.6696,-6.699,-6.7247,-6.8091,-6.9229,-7.055,-7.0697,-7.044,-7.0146,-6.9486,-6.8458,-6.6843,-6.6512,-6.6256,-6.5485,-6.3319,-6.1557,-6.1263,-6.0346,-5.9588,-5.9588,-5.8694,-5.829,-5.9074,-5.9184,-5.9318,-5.9575,-5.9832,-5.9905,-5.9612,-5.9098,-5.8474,-5.7666,-5.6859,-5.5684,-5.4069,-5.3995,-5.3628,-5.2821,-5.2322,-5.1688,-5.0942,0.0,0.0,0.0,0.0,0.0,0.0,0.0,0.0,0.0,0.0,0.0,0.0,0.0,0.0,0.0,0.0,0.0,0.0,0.0,0.0,0.0,0.0,0.0,-6.9125,-7.7055,-8.2006,-7.9724,-8.7499,-9.1135,-8.6184,-8.866,-9.1251,-9.2953,-9.2335,-9.2915,-9.5352,-9.5509,-9.547,-9.5373,-9.5251,-9.5532,-9.6326,-9.4634,-9.3749,-9.371,-9.2941,-9.2095,-9.1248,-9.1231,-9.1192,-9.1136,-9.0566,-9.0343,-9.0105,-8.7437,-8.6326,-8.6009,-8.3134,-8.0534,-7.8313,-7.7413,-7.6403,-7.5477,-7.5158,-7.3897,-7.2642,-7.3413,-7.2606,-7.1064,-6.9486,-6.9559,-7.0,-6.9192,-7.0146,-7.1541,-7.2312,-7.1872,-7.1064,-7.0257,-6.9412,-6.8421,-6.6843,-6.6512,-6.6256,-6.5485,-6.4677,-6.387,-6.2989,-6.1484,-6.0419,-6.0419,-5.9024,0.0,-5.9074,-5.9184,-5.8891,-5.8143,-5.8767,-5.8891,-5.8107,-5.7997,-5.7593,-5.6785,-5.5941,-5.4803,-5.3203,-5.313,-5.2747,-5.1977,-5.0628,-4.9699,-4.919,0.0,0.0,0.0,0.0,0.0,0.0,0.0,0.0,0.0,0.0,0.0,0.0,0.0,0.0,0.0,0.0,0.0,0.0,0.0,0.0,0.0,-7.2104,-7.5469,-7.6127,-8.1039,-8.5759,-8.8776,-9.2489,-9.4733,-9.4617,-9.4307,-9.4307,-9.4772,-9.5197,-9.5429,-9.5506,-9.7171,-9.7826,-9.711,-9.7024,-9.7052,-9.7173,-9.6134,-9.5249,-9.4634,-9.4403,-9.3557,-9.2115,-9.1721,-9.1199,-9.0566,-8.9435,-8.8729,-8.8204,-8.6335,-8.4945,-8.3926,-8.2524,-8.1574,-8.0654,-7.8053,-7.5661,-7.3674,-7.3442,-7.2978,-7.2532,-7.2753,-7.2532,-7.1982,-7.0954,-7.1211,-7.1688,-7.0881,-7.1394,-7.2239,-7.2459,-7.1468,-7.022,-6.9412,-6.8164,-6.7026,-6.6586,-6.6512,-6.6439,-6.6219,-6.5521,-6.4714,-6.387,-6.1887,-6.0419,-6.0419,-5.9024,0.0,-5.9074,-5.9184,-5.9331,-5.9722,-5.9942,-5.9758,-5.8927,-5.7813,-5.6528,-5.517,-5.3739,-5.2784,-5.2344,-5.1756,-5.1353,-5.1132,-5.0733,-5.0119,0.0,0.0,0.0,0.0,0.0,0.0,0.0,0.0,0.0,0.0,0.0,0.0,0.0,0.0,0.0,0.0,0.0,0.0,0.0,0.0,0.0,0.0,-7.6552,-8.0227,-8.2896,-8.5991,-8.9356,-9.307,-9.5313,-9.6822,-9.7479,-9.6976,-9.6744,-9.7054,-9.6899,-9.7054,-9.7595,-9.8292,-9.856,-9.8344,-9.7911,-9.7629,-9.748,-9.6711,-9.5672,-9.4441,-9.4441,-9.3595,-9.1941,-9.1625,-9.1084,0.0,-8.8965,-8.8092,-8.7452,-8.5255,-8.39,0.0,0.0,0.0,0.0,0.0,-7.4772,-7.2982,-7.2872,-7.2667,-7.2496,-7.2496,-7.2275,-7.1872,-7.1064,-7.1358,-7.1762,-7.0624,-7.1358,-7.2275,-7.1248,-7.055,-6.9816,-6.8678,-6.7687,-6.6916,-6.6549,-6.6512,-6.6402,-6.6072,0.0,0.0,-6.4163,-6.2034,-6.0529,-6.086,-5.9245,-5.829,-5.9074,-5.9184,-5.9258,-5.9391,-5.9722,-5.9575,-5.8767,-5.7556,0.0,0.0,0.0,-5.2197,-5.1536,-5.0729,0.0,0.0,0.0,-4.9907,-4.877,0.0,0.0,0.0,-4.7852,-4.8012,0.0,0.0,0.0,0.0,0.0,0.0,0.0,0.0,0.0,0.0,0.0,0.0,0.0,0.0,0.0,0.0,-8.0962,-8.394,-8.8814,-9.0903,-9.2567,-9.4153,-9.6474,-9.7711,-9.7131,-9.7711,-9.8408,-9.9104,-9.7943,-9.8137,-10.0187,0.0,0.0,0.0,0.0,-9.7668,-9.7365,-9.6557,-9.5288,-9.3557,-9.3557,-9.271,-9.121,-9.1082,-9.0762,-9.022,-8.8711,-8.7813,-8.7164,-8.4232,-8.2846,-8.2363,-8.0971,-7.9382,-7.7608,-7.5378,-7.3892,0.0,0.0,0.0,0.0,-7.2496,-7.1982,-7.1174,-7.033,-7.055,-7.0734,-6.9192,-7.0367,-7.1615,-6.9449,-6.9449,-6.9559,-6.8054,-6.7687,-6.743,-6.6549,-6.6439,-6.6219,-6.5228,-6.4457,-6.3906,-6.3686,-6.1851,-6.0639,-6.1374,-5.9501,0.0,-5.9074,-5.9258,-5.9061,-5.8364,0.0,0.0,-5.8217,-5.7299,-5.6418,-5.55,-5.3959,-5.238,-5.0875,-5.0198,-4.9831,-4.9757,-5.0086,-4.9616,-4.8384,-4.8331,-4.8092,-4.7671,-4.8371,-4.8804,0.0,0.0,0.0,0.0,0.0,0.0,0.0,0.0,0.0,0.0,0.0,0.0,0.0,0.0,0.0,-8.042,-8.4211,-8.7731,-9.0787,-9.2644,-9.4114,-9.512,-9.6319,-9.7518,-9.8717,-9.8369,-9.8176,-9.833,-9.9259,-9.9491,-9.864,-10.0109,-10.0414,-9.9154,-9.8836,-9.7976,-9.6557,-9.5672,-9.4403,-9.271,0.0,0.0,-9.1192,-9.0279,-8.9839,-8.9621,-8.721,-8.608,-8.5775,-8.3276,-8.0654,-7.8313,-7.8638,-7.7375,-7.523,-7.465,-7.3848,-7.2982,-7.2807,-7.2638,-7.2496,-7.2496,-7.1982,-7.1174,-7.033,-6.9743,0.0,-6.8201,-6.8752,-6.9486,-6.9009,-6.9009,-6.8898,-6.7907,-6.7687,-6.7283,-6.5852,-6.6035,-6.5852,-6.3723,-6.3172,-6.2658,-6.1337,-6.0713,-6.0456,-6.0603,-5.9134,-5.829,-5.9074,-5.9795,-6.0126,-5.9942,-6.0676,-6.0566,-5.9074,-5.7666,-5.6198,-5.473,-5.3115,-5.1793,-5.0839,-5.1279,-5.1206,-5.0582,-5.1234,-5.0973,-4.9648,-5.0319,-4.9761,-4.8085,-4.7958,-4.8048,0.0,0.0,0.0,0.0,0.0,0.0,0.0,0.0,0.0,0.0,0.0,-7.0054,-7.222,0.0,-8.0343,-8.4675,-8.6803,-8.8814,-9.1329,-9.2799,-9.3921,-9.4733,-9.6009,-9.7131,-9.7982,-9.8098,-9.8292,-9.8678,-9.9491,-9.9955,-9.9994,-9.9829,-9.936,-9.846,-9.749,-9.6304,-9.5018,-9.4557,-9.371,-9.2479,-9.2479,-9.2056,-9.1154,-8.9961,-8.9254,-8.8856,-8.6449,-8.5222,-8.4778,-8.1917,-7.9056,-7.6456,-7.6456,-7.5453,-7.4004,-7.3925,-7.3559,-7.3064,-7.2927,-7.2465,-7.2022,-7.1937,-7.1101,-7.0036,-6.9633,-6.8935,-6.8128,-6.732,-6.7687,-6.8017,-6.6806,-6.71,-6.7504,-6.6696,-6.6806,-6.688,-6.6072,-6.5595,-6.4787,-6.3135,-6.212,-6.1337,-6.0529,-6.0089,-5.9795,-5.9795,-5.8767,-5.8143,-5.8547,-5.8951,-5.9208,-5.9208,-5.9575,-5.9465,-5.8657,-5.7116,-5.5684,-5.4473,-5.2894,-5.183,-5.1426,-5.1389,-5.1206,-5.0802,-5.1573,-5.147,-5.0414,-5.0859,-5.016,-4.8496,-4.7995,-4.7931,0.0,0.0,0.0,0.0,0.0,0.0,0.0,-6.371,-6.5953,-6.8661,-7.1949,-7.543,-7.9067,-8.0962,-8.3554,-8.8389,-8.8892,-8.9356,-9.1406,-9.2451,-9.3302,-9.4114,-9.5429,-9.6358,-9.6512,-9.7325,-9.8176,-9.9027,-9.9375,-10.021,-10.1603,-9.9371,-9.8036,-9.8019,-9.605,-9.4557,-9.371,-9.3518,-9.3056,-9.2249,-9.2138,-9.1717,-9.1008,-8.9714,-8.8798,-8.8128,-8.5982,-8.4526,-8.344,-8.0468,-7.7905,-7.5676,-7.4747,-7.3967,-7.3372,-7.3346,-7.3278,-7.3145,-7.2982,-7.2291,-7.1453,-7.1349,-7.022,-6.8898,-6.8898,-6.8238,-6.7283,-6.6476,-6.6733,-6.6769,-6.4824,-6.5411,-6.6366,-6.5888,-6.6256,-6.6696,-6.6512,-6.5485,-6.4163,-6.2842,-6.1667,-6.0676,-6.0052,-5.9538,-5.9184,-5.9184,-5.851,-5.7997,-5.7997,-5.8143,-5.818,-5.8033,-5.8143,-5.8107,-5.7776,-5.6565,-5.5427,-5.4473,-5.3188,-5.238,-5.2234,-5.161,-5.1206,-5.1059,-5.1683,-5.1536,-5.0582,-5.0529,-4.9783,-4.8417,-4.782,-4.7753,-5.7942,-5.7365,-5.8157,-6.1118,-6.1969,-6.3516,0.0,-7.0247,-7.1369,-7.4734,-7.8138,-8.0885,-8.2122,-8.5565,-8.8389,-8.9085,-9.0362,-9.1367,-9.1677,-9.2451,-9.3302,-9.4114,-9.4346,-9.4772,-9.5584,-9.6435,-9.7286,-9.8176,-9.9607,-10.0504,-10.0579,-9.9569,-9.8906,-9.878,-9.6322,-9.4557,-9.371,-9.2979,-9.221,-9.1364,-9.0857,-9.06,-9.0444,-8.9377,-8.8442,-8.7571,-8.5421,-8.3231,-8.0951,-7.9168,-7.7385,-7.5639,-7.4142,-7.351,-7.341,-7.3278,-7.3145,-7.2982,-7.2779,-7.2124,-7.1321,-7.1321,-7.022,-6.8898,-6.8898,-6.7834,-6.6476,-6.5668,-6.5521,-6.5521,-6.5264,-6.5815,-6.6659,-6.7283,-6.7504,-6.7357,-6.6659,-6.6366,-6.5338,-6.2328,-6.2181,-6.163,-5.8767,-5.8804,-5.9184,-5.9184,-5.851,-5.7997,-5.7997,-5.8621,-5.8804,-5.807,-5.8657,-5.8487,-5.7079,-5.6785,-5.6014,-5.4509,-5.4216,-5.3812,-5.3115,-5.2983,-5.2601,-5.1867,-5.194,-5.1263,-4.9721,-4.9486,-4.8601,-4.7114,-4.687,-4.6898,-5.9155,-5.916,-6.0112,-6.2549,-6.4251,-6.6417,-7.0402,-7.2839,-7.5237,-7.868,-8.2509,-8.5488,-8.6339,-8.835,-9.0246,-9.1251,-9.1135,-9.129,-9.2296,-9.2335,-9.2025,-9.1367,-9.2141,-9.3882,-9.6744,-9.7789,-9.864,-9.9491,-10.0187,-10.0581,-10.0485,-9.9128,-9.8079,-9.7452,-9.5342,-9.3826,-9.3018,-9.1874,-9.1107,-9.0742,-9.0193,-8.9931,-8.9908,-8.8654,-8.7221,-8.5645,-8.3781,-8.1843,-7.9874,-7.8239,-7.6604,-7.497,-7.3844,-7.367,-7.4041,-7.3506,-7.3305,-7.3151,-7.2364,-7.1554,-7.0735,-7.0128,-6.9119,-6.8201,-6.8201,-6.7393,-6.6439,-6.6109,-6.5668,-6.5301,-6.5301,-6.5558,-6.5999,-6.6806,-6.699,-6.7026,-6.7173,-6.6072,-6.4677,-6.3319,-6.2144,-6.097,-5.9648,-5.9685,-5.9905,-5.9905,-5.8804,-5.7997,-5.7997,-5.829,-5.8364,-5.8033,-5.8731,-5.8744,-5.7593,-5.6638,-5.5794,-5.5133,-5.4656,-5.4252,-5.3922,-5.3922,-5.3739,-5.3408,-5.2491,-5.1646,-5.0986,-4.9626,-4.8875,-4.8673,-4.7114,-4.6653,-6.0094,-6.0974,-6.2365,-6.4791,-6.7293,-6.9883,-7.2434,-7.5654,-7.8901,-8.1594,-8.5203,-8.8207,-8.929,-8.9806,-9.0633,-9.2373,-9.16,-9.1135,-9.2141,-9.1754,-9.0826,-8.9356,-9.0052,-9.2257,-9.6319,-9.7441,-9.8446,-9.98,-9.9684,-9.9715,-10.0105,-9.7992,-9.675,-9.6705,-9.4285,-9.2887,-9.2584,-9.114,-9.0339,-9.0171,-8.9649,-8.9377,-8.9339,-8.7742,-8.6188,-8.4629,-8.2549,-8.0802,-7.9354,-7.7496,-7.5899,-7.4524,-7.3733,-7.377,-7.4153,-7.3398,-7.3335,-7.3517,-7.2435,-7.133,-7.0317,-6.9495,-6.8531,-6.7687,-6.7687,-6.7283,-6.6769,-6.6549,-6.6072,-6.5595,-6.5375,-6.5485,-6.5778,-6.6366,-6.6512,-6.6659,-6.7247,-6.5815,-6.4273,-6.3833,-6.2475,-6.119,-6.0529,-6.0419,-6.0346,-6.0102,-5.8877,-5.807,-5.829,-5.8143,-5.8107,-5.8327,-5.8657,-5.8621,-5.8033,-5.6712,-5.5831,-5.5611,-5.484,-5.4399,-5.4399,-5.4179,-5.4069,-5.4069,-5.2711,-5.1867,-5.1683,-4.9965,-4.9336,-4.9735,-4.7771,-4.6936,-6.0548,-6.2228,-6.4486,-6.8598,-7.1595,-7.4179,-7.6739,-7.9941,-8.2642,-8.3529,-8.5917,-8.8316,-8.9938,-8.9701,-8.9782,-9.1484,-9.1716,-9.1367,-9.0594,-9.0478,-9.013,-8.9279,-8.8505,-8.9356,-9.2837,-9.3882,-9.5429,-9.7982,-9.7402,-9.7558,-9.9056,-9.5969,-9.5152,-9.7403,-9.3441,-9.1797,-9.289,-9.1226,-9.0149,-8.9625,-8.9065,-8.8832,-8.8766,-8.6631,-8.5625,-8.5372,-8.214,-8.0245,-7.9316,-7.6827,-7.5341,-7.4524,-7.3733,-7.3435,-7.3361,-7.2544,-7.3145,-7.4209,-7.3295,-7.1793,-7.0266,-7.0128,-6.8972,-6.7687,-6.7687,-6.7677,-6.7504,-6.6733,-6.6476,-6.6292,-6.5521,-6.5888,-6.6476,-6.6476,-6.6512,-6.6512,-6.6512,-6.5888,-6.4787,-6.3147,-6.3466,-6.3209,-6.0823,-6.0419,-6.0138,-5.9344,-5.8524,-5.829,-5.9038,-5.8474,-5.829,-5.9074,-5.851,-5.8033,-5.7997,-5.7226,-5.6418,-5.5669,-5.484,-5.4399,-5.4399,-5.3665,-5.3261,-5.3261,-5.2417,-5.161,-5.0839,-5.0277,-4.9722,-4.921,-4.8695,-4.778,-6.1677,-6.4359,-6.7788,-7.1441,-7.3408,-7.5298,-7.8436,-8.052,-8.214,-8.349,-8.3663,-8.3912,-8.5032,-8.506,-8.5808,-8.8576,-8.9475,-9.0542,-9.2557,-9.19,-9.0267,-8.7757,-8.8234,-8.8776,-8.8737,-9.1561,-9.4462,-9.7054,-9.639,-9.6081,-9.6531,-9.4899,-9.4075,-9.4439,-9.2541,-9.1569,-9.1596,-9.0095,-8.9249,-8.9039,-8.8567,-8.8346,-8.8272,-8.6429,-8.5595,-8.5372,-8.1545,-7.9428,-7.8499,-7.601,-7.4524,-7.3781,-7.351,-7.3733,-7.4104,-7.3287,-7.3309,-7.3416,-7.1279,-7.0149,-6.9516,-6.8723,-6.8128,-6.7687,-6.7687,-6.7687,-6.7614,-6.7357,-6.7283,-6.721,-6.6953,-6.71,-6.7283,-6.7283,-6.688,-6.6512,-6.6512,-6.5459,-6.4358,-6.3759,-6.3429,-6.2989,-6.2144,-6.1998,-6.1533,-6.0212,-5.8877,-5.8107,-5.8364,-5.9098,-5.9281,-5.851,-5.9134,-5.8951,-5.7336,-5.6455,-5.5647,-5.484,-5.4546,-5.462,-5.517,-5.495,-5.4803,-5.4803,-5.3482,-5.2417,-5.1573,-5.0532,-5.0168,-5.0469,-4.9128,-4.8548,-6.4817,-6.8034,-7.1621,-7.4987,-7.6451,-7.7698,-7.9895,-8.082,-8.1359,-8.1798,-8.0853,-8.0136,-8.0677,-8.0086,-8.0692,-8.4348,-8.5671,-8.7423,-9.0904,-9.074,-8.9494,-8.7331,-8.8041,-8.8544,-8.8002,-9.0411,-9.2833,-9.482,-9.4644,-9.4412,-9.4337,-9.3302,-9.2757,-9.2907,-9.1626,-9.085,-9.0637,-8.941,-8.8729,-8.8538,-8.7928,-8.7638,-8.7564,-8.5929,-8.4852,-8.4109,-8.058,-7.8425,-7.7236,-7.5044,-7.3855,-7.3398,-7.3398,-7.3707,-7.4067,-7.3287,-7.2778,-7.2306,-7.0687,-6.9795,-6.9189,-6.8382,-6.7907,-6.7687,-6.7687,-6.7687,-6.7614,-6.7357,-6.7467,-6.7577,-6.699,-6.7247,-6.754,-6.699,-6.6439,-6.5999,-6.5705,-6.4578,-6.3661,-6.3649,-6.3172,-6.278,-6.278,-6.2535,-6.1936,-6.0601,-5.9278,-5.841,-5.841,-5.9084,-5.9281,-5.851,-5.9098,-5.8804,-5.6969,-5.6051,-5.5244,-5.4436,-5.4142,-5.4326,-5.5133,-5.4913,-5.4876,-5.517,-5.3885,-5.2968,-5.2417,-5.1557,-5.1318,-5.1588,-5.0218,-4.9607,-6.9579,-7.3072,-7.5817,-7.9107,-8.0477,-8.1054,-8.1093,-8.1016,-8.04,-7.8669,-7.7627,-7.699,-7.6875,-7.5105,-7.499,-7.9221,-8.0897,-8.283,-8.6307,-8.7599,-8.8091,-8.7989,-8.7989,-8.8607,-9.0116,-9.0252,-9.0557,-9.1406,0.0,-9.2666,-9.2486,-9.1203,-9.1173,-9.263,-9.0675,-8.9704,-9.0005,-8.9189,-8.8538,-8.8084,-8.723,-8.6784,-8.6747,-8.5075,-8.3477,-8.1843,-7.9316,-7.731,-7.5676,-7.4041,-7.3398,-7.3398,-7.3398,-7.3398,-7.3324,-7.2544,-7.1701,-7.1056,-7.1511,-7.0618,-6.9189,-6.8934,-6.8311,-6.7687,-6.7687,-6.7687,-6.754,-6.6769,-6.71,-6.7357,-6.5815,-6.6549,-6.732,-6.5778,-6.5375,-6.5081,-6.431,-6.3429,-6.278,-6.278,-6.278,-6.278,-6.278,-6.2143,-6.1361,-6.0558,-5.9725,-5.92,-5.92,-5.858,-5.8364,-5.9074,-5.8547,-5.774,-5.6822,-5.6051,-5.5244,-5.4399,-5.3628,-5.3555,-5.4363,-5.3702,-5.3665,-5.4399,-5.3702,-5.3277,-5.3203,-5.3203,-5.2952,-5.2431,-5.1873,-5.0921,-7.2082,-7.5649,-7.903,-8.1131,-8.09,-8.0285,-8.0939,-7.9631,-7.7784,-7.6015,-7.357,-7.1351,-7.0042,-7.1364,-7.4037,-7.8262,-8.2278,-8.6338,-9.0487,-9.1236,-9.0728,-8.886,-8.9267,-8.932,-8.8412,-8.8905,-8.9392,-8.9501,-9.0873,-9.151,-9.105,-9.0661,-9.0235,-8.9853,-8.9291,-8.8898,-8.8622,-8.8368,-8.8232,-8.8084,-8.723,-8.6784,-8.6747,-8.4518,-8.2957,-8.1806,-7.8722,-7.679,-7.5676,-7.4041,-7.3398,-7.3398,-7.3398,-7.3398,-7.3398,-7.3175,-7.2555,-7.1861,-7.1759,-7.0249,-6.8376,-6.8088,-6.7871,-6.7687,-6.7687,-6.7687,-6.765,-6.743,-6.754,-6.7614,-6.7173,-6.7393,-6.7577,-6.7173,-6.6182,-6.5264,-6.5044,-6.3833,-6.278,-6.278,-6.278,-6.278,-6.278,-6.2144,-6.1533,-6.1325,-6.0102,-5.9195,-5.92,-5.9522,-5.9402,-5.84,-5.9208,-5.8731,-5.6124,-5.5721,-5.4987,-5.3592,-5.3314,-5.3555,-5.4363,-5.4766,-5.4803,-5.4399,-5.4803,-5.4399,-5.3203,-5.3203,-5.3124,-5.2995,-5.2431,-5.1802,-7.5505,-7.88,-8.1708,-8.2631,-8.1862,-8.0554,-7.9169,-7.7207,-7.4822,-7.1937,-6.9309,-6.7102,-6.5755,-6.7372,-7.0413,-7.5033,-7.946,-8.4173,-8.9613,-9.0725,-9.0719,-9.0072,-9.0813,-9.0945,-8.9933,-9.0075,-9.021,-9.0104,-9.0642,-9.0646,-8.9932,-8.9786,-8.9427,-8.8804,-8.8624,-8.8376,-8.8084,-8.7712,-8.7527,-8.7527,-8.6301,-8.5743,-8.5669,-8.3217,-8.1471,-8.0208,0.0,-7.5824,-7.4673,-7.377,-7.3398,-7.3398,-7.3398,-7.3398,-7.3398,-7.3398,-7.2629,-7.1601,-7.1279,-6.9806,-6.8118,-6.8198,-6.7981,-6.7687,-6.7687,-6.7687,-6.7614,-6.7247,-6.743,-6.7614,-6.7247,-6.743,-6.7504,-6.6806,-6.5962,-6.5118,-6.4383,-6.3759,-6.3392,-6.3392,-6.3062,-6.278,-6.278,-6.2438,-6.2144,-6.2143,-6.1056,-6.0261,-6.0234,-5.9719,-5.9011,-5.811,-5.8817,-5.8474,-5.6308,-5.5794,-5.506,-5.3812,-5.3387,-5.3387,-5.3849,-5.4326,-5.4326,-5.3885,-5.4326,-5.4106,-5.3203,-5.3203,-5.3203,-5.3203,-5.2649,-5.2219,-7.9554,-8.2324,-8.4055,-8.3824,-8.3016,-8.117,-7.6823,-7.4437,-7.1937,-6.7628,-6.5513,-6.4128,-6.3166,-6.3974,-6.6513,-7.1822,-7.5533,-8.0121,-8.7016,-8.8698,-8.9748,-9.1213,-9.2139,-9.264,-9.2525,-9.1969,-9.16,-9.16,-9.0788,-8.9897,-8.9103,-8.8885,-8.8748,-8.8729,-8.8316,-8.8084,-8.8084,-8.723,-8.6784,-8.6784,-8.5149,-8.4406,-8.4295,-8.1731,-7.9725,-7.8202,0.0,0.0,-7.3398,-7.3398,-7.3398,-7.3398,-7.3398,-7.3398,-7.3398,-7.3398,-7.2481,-7.1167,-7.0798,-6.9684,-6.845,-6.8649,-6.8274,-6.7687,-6.7687,-6.7687,-6.754,-6.6843,-6.7136,-6.754,-6.6843,-6.7173,-6.732,-6.5815,-6.5375,-6.4897,-6.3466,-6.3723,-6.4237,-6.4127,-6.3503,-6.2989,-6.2952,-6.2879,-6.278,-6.278,-6.2118,-6.158,-6.1594,-5.9782,-5.8414,-5.8163,-5.8257,-5.785,-5.6748,-5.5978,-5.5207,-5.4289,-5.3592,-5.3203,-5.3203,-5.3298,-5.3314,-5.3203,-5.3277,-5.3314,-5.3203,-5.3203,-5.3203,-5.3203,-5.2717,-5.2467,-8.4247,-8.5863,-8.6401,-8.5016,-8.3478,-8.1016,-7.6053,-7.3091,-7.0167,-6.5897,-6.4243,-6.3051,-6.1512,-6.3666,-6.7782,-7.4284,-7.7607,-8.1993,-8.9496,-9.0706,-9.0916,-9.1224,-9.2062,-9.231,-9.1531,-9.1011,-9.0679,-9.0635,-8.9676,-8.9016,-8.8877,-8.8839,-8.8616,-8.8232,-8.8146,-8.8084,-8.8084,-8.723,-8.6784,-8.6784,-8.5149,-8.4406,-8.4295,-8.1137,-7.9168,-7.8165,-7.5824,0.0,-7.3398,-7.3398,-7.3398,-7.3398,-7.3398,-7.3398,-7.3398,-7.3398,-7.3224,-7.2826,-7.1833,-7.0877,-6.9853,-6.8382,-6.7797,-6.7687,-6.7687,-6.7687,-6.765,-6.7504,-6.7577,-6.765,-6.7504,-6.7577,-6.7467,-6.6512,-6.5778,-6.5228,-6.4934,-6.5007,-6.4897,-6.4237,-6.398,-6.3858,-6.386,-6.3296,-6.278,-6.278,-6.2118,-6.1592,-6.1617,-6.1251,-6.0454,-5.9148,-5.9588,-5.8841,-5.6051,-5.5706,-5.495,-5.3518,-5.3277,-5.3203,-5.3203,-5.3849,-5.3885,-5.3203,-5.3864,-5.3864,-5.3203,-5.3203,-5.3203,-5.3203,-5.3103,-5.2834,-8.6094,-8.7401,-8.744,-8.4863,-8.2939,-7.9977,-7.3553,-7.0437,-6.7705,-6.3474,-6.2281,-6.1743,-6.0935,-6.3205,-6.6859,-7.1898,-7.4476,-7.8515,-8.617,-8.7248,-8.8055,-9.0248,-9.1322,-9.1559,-9.0858,-9.0322,-8.9893,-8.9601,-8.8418,-8.7864,-8.8138,-8.7893,-8.7675,-8.7415,-8.7861,-8.8084,-8.8084,-8.6821,-8.6189,-8.6152,-8.4518,-8.3552,-8.3032,-8.0171,-7.8425,-7.7533,-7.5044,0.0,-7.3398,-7.3398,-7.3398,-7.3398,-7.3398,-7.3398,-7.3398,-7.3398,-7.3138,-7.2604,-7.1542,-7.0623,-6.9658,-6.8241,-6.7767,-6.7687,-6.7687,-6.7687,-6.7687,-6.7687,-6.7687,-6.7687,-6.7687,-6.7687,-6.7504,-6.6696,-6.5888,-6.5301,-6.5301,-6.5301,-6.5301,-6.5338,-6.4677,-6.4115,-6.4129,-6.3381,-6.278,-6.278,-6.2462,-6.2217,-6.2217,-6.2218,-6.1618,-6.0004,-5.9808,-5.9171,-5.7593,-5.6308,-5.5244,-5.4509,-5.3665,-5.3203,-5.3203,-5.3592,-5.3592,-5.3203,-5.357,-5.357,-5.3203,-5.3203,-5.3203,-5.3203,-5.3203,-5.3057,-8.7017,-8.844,-8.8363,-8.4786,-8.2593,-7.9323,-7.1475,-6.8359,-6.5897,-6.1666,-6.0781,-6.0781,-6.0781,-6.2435,-6.5013,-6.8821,-7.0514,-7.4168,-8.2208,-8.3478,-8.517,-8.9402,-9.0562,-9.0839,-9.0444,-8.9816,-8.9173,-8.8606,-8.7145,-8.6579,-8.7146,-8.6945,-8.6709,-8.6561,-8.7378,-8.7638,-8.7304,-8.6004,-8.5261,-8.5075,-8.3775,-8.266,-8.162,-7.9354,-7.7756,-7.6706,-7.4402,0.0,0.0,-7.3398,-7.3398,-7.3398,-7.3398,-7.3398,-7.3398,-7.3398,-7.2915,-7.2072,-7.1053,-7.011,-6.9167,-6.8236,-6.782,-6.7687,-6.7687,-6.7687,-6.7687,-6.7687,-6.7687,-6.7687,-6.7687,-6.7687,-6.7504,-6.6696,-6.5888,-6.5301,-6.5301,-6.5448,-6.5742,-6.6366,-6.5485,-6.4567,-6.4383,-6.3649,-6.3,-6.2817,-6.278,-6.278,-6.278,-6.278,-6.2266,-6.0823,-5.9931,-5.9258,-5.8707,-5.6969,-5.5684,-5.5354,-5.4179,-5.3408,-5.3203,-5.3203,-5.3203,-5.3203,-5.3203,-5.3203,-5.3203,-5.3203,-5.3203,-5.3203,-5.3203,-5.3203,-8.8094,-8.9748,-8.9979,-8.5824,-8.3478,-8.0015,-7.1629,-6.8359,-6.5897,-6.1666,-6.0781,-6.0781,-6.0781,-6.0973,-6.2781,-6.7744,-6.8667,-7.1937,-8.1131,-8.3093,-8.517,-8.9402,-9.0244,-9.0444,-9.0402,-8.9477,-8.8559,-8.7752,-8.5765,0.0,-8.5723,-8.6443,-8.6486,-8.5743,-8.6486,-8.6226,-8.474,-8.4592,-8.4146,-8.3403,-8.3254,-8.2363,-8.0765,-7.9056,-7.7422,-7.5824,-7.4142,0.0,0.0,-7.3398,-7.3398,-7.3398,-7.3398,-7.3398,-7.3398,-7.3398,-7.2915,-7.2072,-7.1053,-7.0161,-6.9295,-6.8225,-6.782,-6.7687,-6.7687,-6.7687,-6.7687,-6.7687,-6.7687,-6.7687,-6.7687,-6.7687,-6.7504,-6.6696,-6.5888,-6.5301,-6.5301,-6.5888,-6.6402,-6.6476,-6.6366,-6.6035,-6.5338,-6.4541,-6.3709,-6.2927,-6.278,-6.278,-6.278,-6.278,-6.2475,-6.1594,-6.0786,-5.9391,-5.7226,-5.6822,-5.6088,-5.4583,-5.4363,-5.3959,-5.3203,-5.3203,-5.3203,-5.3203,-5.3203,-5.3203,-5.3203,-5.3203,-5.3203,-5.3203,-5.3203,-5.3203,-8.6401,-8.8748,-8.9402,-8.517,-8.167,-7.7592,-7.1168,-6.7167,-6.4051,-6.1358,-6.0781,-6.0781,-6.0781,-6.0781,-6.1627,-6.4205,-6.4166,-6.6205,-7.2976,-7.4668,-7.7746,-8.4516,-8.6087,-8.7489,-8.9703,-8.8796,-8.7426,-8.5786,-8.4889,0.0,-8.3477,-8.4666,-8.5409,-8.5595,-8.5892,-8.5781,-8.5112,-8.4629,-8.3997,-8.318,-8.2177,-8.084,-7.9205,-7.7533,-7.6159,-7.5007,-7.3919,0.0,0.0,-7.3398,-7.3398,-7.3398,-7.3398,-7.3398,-7.3361,-7.2878,-7.2469,-7.1998,-7.061,-6.9829,-6.9321,-6.8328,-6.7952,-6.782,-6.7714,-6.7687,-6.7687,-6.7687,-6.7687,-6.7687,-6.7687,-6.7687,-6.7504,-6.6696,-6.6623,-6.6623,-6.6145,-6.6659,-6.721,-6.721,-6.6843,-6.6402,-6.6072,-6.4945,-6.3965,-6.3635,-6.3147,-6.278,-6.278,-6.278,-6.2487,-6.1703,-6.0885,-5.9832,-5.8364,-5.7359,-5.6514,-5.5904,-5.492,-5.428,-5.3959,-5.3482,-5.3203,-5.3203,-5.3203,-5.3203,-5.3203,-5.3203,-5.3203,-5.3203,-5.3203,-5.3203,-8.3093,-8.6094,-8.7594,-8.4093,-8.0208,-7.5976,-7.086,-6.659,-6.3128,-6.1204,-6.0781,-6.0781,-6.0781,-6.0781,-6.1012,-6.1639,-6.1408,-6.2858,-6.7744,-6.936,-7.2745,-7.9939,-8.1625,-8.3686,-8.7388,-8.7302,-8.6283,-8.451,-8.396,0.0,-8.24,-8.2957,-8.3552,-8.4109,-8.4406,-8.4183,-8.344,-8.3329,-8.266,-8.1397,-8.0691,-7.9438,-7.7702,-7.6388,-7.5299,-7.4385,0.0,0.0,0.0,-7.3398,-7.3398,-7.3398,-7.3398,-7.3398,-7.3324,-7.2506,-7.206,-7.1589,-7.0215,-6.9472,-6.91,-6.8393,-6.8081,-6.7952,-6.782,-6.7741,-6.7687,-6.7687,-6.7687,-6.7687,-6.7687,-6.7687,-6.754,-6.699,-6.71,-6.7247,-6.6916,-6.71,-6.7393,-6.7677,-6.7247,-6.6769,-6.6539,-6.5359,-6.4354,-6.4163,-6.3356,-6.278,-6.278,-6.278,-6.2498,-6.1702,-6.0897,-6.0065,-5.9258,-5.8143,-5.7322,-5.6822,-5.5508,-5.4663,-5.4399,-5.3628,-5.3203,-5.3203,-5.3203,-5.3203,-5.3203,-5.3203,-5.3203,-5.3203,-5.3203,-5.3203,-7.813,-8.1708,-8.4516,-8.2747,-7.9785,-7.5976,-7.086,-6.7051,-6.3858,-6.132,-6.0781,-6.0781,-6.0781,-6.0781,-6.0781,-6.0819,-6.1524,-6.3551,-6.7821,-6.986,-7.2514,-7.6823,-7.7586,-7.9245,-8.2975,-8.4731,-8.5261,-8.4443,-8.292,0.0,-8.3143,-8.162,-8.0728,-8.0728,-8.1583,-8.084,-7.8388,-7.9948,-7.9539,-7.7189,-7.8759,-7.8464,-7.6477,-7.6014,-7.5133,0.0,0.0,0.0,0.0,-7.3398,-7.3398,-7.3398,-7.3398,-7.3398,-7.3324,-7.2506,-7.1663,-7.0784,-6.9967,-6.9187,-6.8494,-6.8334,-6.8208,-6.8044,-6.7952,-6.782,-6.7687,-6.7687,-6.7687,-6.7687,-6.7687,-6.7687,-6.7687,-6.7687,-6.71,-6.6733,-6.7504,-6.7063,-6.6733,-6.754,-6.7687,-6.742,-6.6639,-6.583,-6.5008,-6.4228,-6.3369,-6.278,-6.278,-6.278,-6.2498,-6.1702,-6.0884,-6.009,-5.9258,-5.9161,-5.85,-5.6895,-5.6043,-5.5214,-5.4436,-5.3628,-5.3203,-5.3203,-5.3203,-5.3203,-5.3203,-5.3203,-5.3203,-5.3203,-5.3203,-5.3203,-7.286,-7.5553,-7.7515,-7.5822,-7.2822,-6.9744,-6.759,-6.4474,-6.1781,-6.0973,-6.0781,-6.0781,-6.0781,-6.0781,-6.1012,-6.1601,-6.1908,-6.2743,-6.4666,-6.7117,-7.0639,-7.5793,-8.0984,-8.4117,-8.4067,-8.4464,-8.4443,-8.3626,0.0,0.0,-8.0691,-7.9651,-7.9837,-8.1508,-8.0728,-7.9911,-7.9131,-7.9056,-7.8388,-7.7115,-7.7013,-7.634,-7.5194,-7.4454,0.0,0.0,0.0,0.0,0.0,-7.3398,-7.3398,-7.3398,-7.3398,-7.3064,-7.2506,-7.1626,-7.0809,-6.9967,-6.915,-6.8704,-6.8481,-6.8334,-6.8259,-6.8208,-6.7978,-6.782,-6.7687,-6.7687,-6.7687,-6.7687,-6.7687,-6.7687,-6.7687,-6.7687,-6.7504,-6.7393,-6.7614,-6.7504,-6.7393,-6.7677,-6.7687,-6.764,-6.7347,-6.6653,-6.584,-6.5034,-6.4237,-6.3468,-6.2879,-6.278,-6.2475,-6.1716,-6.1361,-6.0896,-6.0089,-5.9024,-5.8377,-5.8414,-5.6661,-5.5508,-5.5207,-5.3922,-5.3203,-5.3203,-5.3203,-5.3203,-5.3203,-5.3203,-5.3203,-5.3203,-5.3203,-5.3203,-6.8398,-7.086,-7.2552,-7.1514,-6.9167,-6.6782,-6.5667,-6.3281,-6.1204,-6.0858,-6.0781,-6.0781,-6.0781,-6.0781,-6.0973,-6.1524,-6.1601,-6.2127,-6.3589,-6.5738,-6.9148,-7.4363,-8.0596,-8.3903,-8.2445,-8.3297,-8.3589,-8.2809,0.0,0.0,-7.9094,-7.7942,-7.8053,-7.9614,-7.8648,-7.7942,-7.7645,-7.7459,-7.679,-7.5702,-7.5453,-7.5027,-7.435,-7.3699,0.0,0.0,0.0,0.0,0.0,-7.3398,-7.3398,-7.3398,-7.3064,-7.2655,-7.206,-7.0883,-7.0115,-6.9558,-6.8778,-6.8481,-6.8481,-6.8408,-6.8309,-6.8183,-6.7978,-6.782,-6.7687,-6.7687,-6.7687,-6.7687,-6.7687,-6.7687,-6.7614,-6.732,-6.7467,-6.7614,-6.7283,-6.7467,-6.7687,-6.7687,-6.7687,-6.7687,-6.7687,-6.6773,-6.586,-6.5367,-6.4343,-6.3406,-6.2879,-6.278,-6.2511,-6.1692,-6.1323,-6.0919,-6.0467,-5.9197,-5.855,-5.8707,-5.7051,-5.5934,-5.5633,-5.4363,-5.3518,-5.3203,-5.3203,-5.3203,-5.3203,-5.3203,-5.3203,-5.3203,-5.3203,-5.3203,0.0,-6.7244,-6.909,-6.909,-6.7859,-6.6244,-6.4666,-6.3128,0.0,-6.0973,-6.0781,-6.0819,-6.0858,-6.0819,-6.0819,-6.0973,-6.0973,-6.1858,-6.4359,-6.6112,-6.8773,-7.3044,-7.7645,-8.0003,-7.8953,-8.1392,-8.2697,0.0,0.0,0.0,-7.8128,-7.6567,-7.5676,-7.5601,-7.5601,-7.5304,-7.4598,-7.5267,-7.4858,-7.3435,-7.4179,-7.4324,-7.394,-7.3591,0.0,0.0,0.0,0.0,0.0,-7.3398,-7.3398,-7.325,-7.2506,-7.2135,-7.1812,-7.0289,-6.967,-6.9484,-6.8741,-6.8481,-6.8481,-6.8481,-6.8334,-6.807,-6.7904,-6.7784,-6.7687,-6.7687,-6.7687,-6.7687,-6.7687,-6.7687,-6.7504,-6.6696,-6.7063,-6.7393,-6.6659,-6.71,-6.7614,-6.7687,-6.7687,-6.7687,-6.7687,-6.6416,-6.5357,-6.5321,-6.3914,-6.2879,-6.278,-6.278,-6.2462,-6.1617,-6.0845,-6.0337,-6.0257,-5.9553,-5.8822,-5.8143,-5.7308,-5.6463,-5.5633,-5.484,-5.4032,-5.3203,-5.3203,-5.3203,-5.3203,-5.3203,-5.3203,-5.3203,-5.3203,-5.3203,-6.1781,0.0,-6.2897,-6.2897,-6.2589,-6.2166,0.0,-6.1396,-6.105,-6.0819,-6.0781,-6.1012,-6.1678,-6.1243,-6.1204,-6.2512,-6.2704,-6.3397,-6.532,-7.0867,-7.5104,-7.6069,-8.0604,-8.251,-7.9603,-8.0488,0.0,0.0,0.0,-7.7115,-7.6419,-7.5416,-7.4598,-7.3993,-7.393,-7.4153,-7.4598,-7.4153,-7.377,-7.3398,-7.3584,-7.3636,-7.354,-7.345,0.0,0.0,0.0,0.0,-7.3398,-7.3398,-7.3064,-7.2469,-7.2283,-7.1403,-7.0252,-6.9855,-6.9298,-6.8741,-6.858,-6.8481,-6.8481,-6.8481,-6.8383,-6.8123,-6.7368,-6.7384,-6.7687,-6.7687,-6.7687,-6.7687,-6.7687,-6.7687,-6.7504,-6.6696,-6.6623,-6.6733,-6.6549,-6.6659,-6.6953,-6.7577,-6.7687,-6.7687,-6.7687,-6.6869,-6.6014,-6.5393,-6.4437,-6.3541,-6.2879,-6.278,-6.2266,-6.0811,-6.0517,-5.9879,-5.868,-5.8377,-5.8464,-5.8891,-5.7593,-5.6418,-5.5633,-5.484,-5.4032,-5.3203,-5.3203,-5.3203,-5.3203,-5.3203,-5.3203,-5.3203,-5.3203,-5.3203,-6.0781,-6.0781,-6.0781,-6.0781,-6.0781,-6.0781,-6.0781,-6.0781,-6.0781,-6.0781,-6.0781,-6.0935,-6.1408,-6.1127,-6.1243,-6.2551,-6.2743,-6.3809,-6.6873,-7.1717,-7.5551,-7.7204,-7.9966,-8.1166,0.0,0.0,0.0,0.0,0.0,-7.575,-7.5267,-7.4487,-7.3844,-7.3435,-7.3398,-7.3621,-7.4041,-7.3621,-7.3398,-7.3398,-7.3398,-7.3212,-7.2878,-7.2878,-7.2629,0.0,0.0,0.0,-7.2258,-7.2258,-7.1998,-7.1552,-7.118,-7.0512,-6.967,-6.9261,-6.8853,-6.8481,-6.8481,-6.8481,-6.8481,-6.8481,-6.8408,-6.821,-6.7691,-6.7635,-6.772,-6.7273,-6.7393,-6.7687,-6.7687,-6.7687,-6.7393,-6.6219,-6.6219,-6.6402,-6.6035,-6.6256,-6.6733,-6.754,-6.7687,-6.7687,-6.7687,-6.6749,-6.5809,-6.5372,-6.4278,-6.3332,-6.2879,-6.278,-6.234,-6.108,-6.0614,-5.989,-5.8634,-5.8217,-5.818,-5.8621,-5.785,-5.6983,-5.619,-5.5368,-5.4399,-5.3203,-5.3203,-5.3203,-5.3203,-5.3203,-5.3203,-5.3203,-5.3203,-5.3203,-6.0781,-6.0896,-6.0973,-6.0819,-6.0896,-6.0973,-6.0819,-6.0781,-6.0781,-6.0781,-6.0781,-6.0819,-6.0973,-6.1012,-6.132,-6.2332,-6.2909,-6.4768,-6.9082,-7.1579,-7.4082,-7.7042,-7.8107,0.0,-7.8936,0.0,0.0,0.0,0.0,-7.4413,-7.4413,-7.377,-7.3361,-7.3212,-7.3212,-7.3212,-7.3212,-7.3212,-7.3212,-7.3212,-7.3075,-7.2666,-7.2023,-7.2023,-7.1589,0.0,0.0,0.0,-7.0895,-7.0895,-7.0821,-7.0635,-6.9967,-6.9595,-6.941,-6.8741,-6.8481,-6.8481,-6.8481,-6.8481,-6.8481,-6.8481,-6.8408,-6.8297,-6.8161,-6.8021,-6.7741,-6.6775,-6.709,-6.7687,-6.7687,-6.7687,-6.7283,-6.5705,-6.5815,-6.6145,-6.5448,-6.5852,-6.6586,-6.7504,-6.7687,-6.765,-6.754,-6.6292,-6.5279,-6.5138,-6.3787,-6.278,-6.278,-6.278,-6.2498,-6.1702,-6.0858,-6.007,-5.9281,-5.8474,-5.7997,-5.7997,-5.7997,-5.7607,-5.6672,-5.5823,-5.473,-5.3203,-5.3203,-5.3203,-5.3203,-5.3203,-5.3203,-5.3203,-5.3203,-5.3203,-6.0781,-6.1331,-6.1716,-6.0973,-6.1358,-6.1716,-6.0973,-6.0781,-6.0781,-6.0781,-6.0781,-6.1012,-6.1755,-6.1908,-6.2397,-6.3974,-6.6667,-6.9519,-7.232,-7.5171,-7.6741,-7.6152,0.0,-7.8988,0.0,0.0,0.0,0.0,0.0,-7.3584,-7.3584,-7.3473,-7.3101,-7.2432,-7.2395,-7.2395,-7.2395,-7.2395,-7.2395,-7.2395,-7.1626,-7.1192,-7.1081,-7.1081,-7.1007,0.0,0.0,-7.0895,-7.0895,-7.0895,-7.0487,-6.9855,-6.9744,-6.9261,-6.8667,-6.8556,-6.8481,-6.8481,-6.8481,-6.8481,-6.8481,-6.8481,-6.8481,-6.8346,-6.7543,-6.7654,-6.7871,-6.6931,-6.7169,-6.7687,-6.7687,-6.7687,-6.7283,-6.5705,-6.5411,-6.5448,-6.5338,-6.5411,-6.5925,-6.7393,-6.7687,-6.7467,-6.6806,-6.5925,-6.5081,-6.4383,-6.3466,-6.278,-6.278,-6.278,-6.2498,-6.1702,-6.0885,-6.0063,-5.9288,-5.8447,-5.7997,-5.7997,-5.7997,-5.7336,-5.5868,-5.5023,-5.4142,-5.3203,-5.3203,-5.3203,-5.3203,-5.3203,-5.3203,-5.3203,-5.3203,-5.3203,-5.9435,-6.0396,-6.1281,-6.0896,-6.1447,-6.187,-6.1012,-6.0781,-6.0781,-6.0781,-6.0781,-6.105,-6.1947,-6.282,-6.432,-6.6936,-6.9821,-7.1918,-7.2294,-7.3782,-7.4798,0.0,0.0,0.0,0.0,0.0,0.0,0.0,0.0,0.0,-7.2767,0.0,-7.1886,-7.1515,-7.1515,-7.1515,-7.1515,-7.1069,-7.1292,-7.2209,-7.1329,-7.0672,-7.0227,-7.0227,-7.0004,-6.9595,0.0,-6.9595,-6.9595,-6.9595,-6.9373,-6.9038,-6.9038,-6.8816,-6.8468,-6.7999,-6.7874,-6.78,-6.7354,-6.7205,-6.728,-6.7725,-6.7874,-6.785,-6.7765,-6.758,-6.7417,-6.7362,-6.7206,-6.7136,-6.7577,-6.7026,-6.6219,-6.5485,-6.4971,-6.4787,-6.5228,-6.5301,-6.5778,-6.7393,-6.7357,-6.6916,-6.6549,-6.5485,-6.453,-6.4138,-6.3367,-6.278,-6.278,-6.278,-6.267,-6.229,-6.1117,-6.0248,-5.9879,-5.8717,-5.7997,-5.7997,-5.7997,-5.7262,-5.5669,-5.5244,-5.4473,-5.3203,-5.3203,-5.3203,-5.3203,-5.3203,-5.3203,-5.3203,-5.3203,-5.3203,-5.8319,-5.9511,-6.0704,-6.0319,-6.1166,-6.2024,-6.1743,-6.1704,-6.1743,-6.1935,-6.1973,-6.2127,-6.2601,-6.4205,-6.6474,-6.9475,-7.2129,-7.3484,-7.2664,-7.2852,-7.338,-7.4319,-7.4001,0.0,0.0,0.0,0.0,0.0,0.0,0.0,-7.2209,0.0,-7.0821,-7.0598,-7.0598,-7.0524,-7.0338,-6.9521,-6.9992,-7.1589,-7.0772,-7.0004,-6.941,-6.941,-6.8964,-6.8221,-6.8221,-6.8221,-6.8221,-6.8221,-6.8357,-6.8481,-6.8481,-6.837,-6.8134,-6.7317,-6.702,-6.6945,-6.6314,-6.6091,-6.6239,-6.7057,-6.7168,-6.7144,-6.7815,-6.7358,-6.6752,-6.7436,-6.6801,-6.6182,-6.7136,-6.6512,-6.5485,-6.5118,-6.453,-6.4273,-6.4897,-6.5007,-6.5448,-6.6843,-6.6623,-6.6145,-6.5962,-6.4934,-6.4016,-6.3833,-6.3246,-6.278,-6.278,-6.278,-6.278,-6.278,-6.152,-6.053,-6.0149,-5.8827,-5.7997,-5.7997,-5.7997,-5.7262,-5.5669,-5.5757,-5.5023,-5.3261,-5.3408,-5.3408,-5.3203,-5.3203,-5.3203,-5.3203,-5.3203,-5.3203,-5.8319,-5.9511,-6.0435,-5.8858,-6.0281,-6.2486,-6.3974,-6.432,-6.4551,-6.5359,-6.5513,-6.5282,-6.4551,-6.6436,-6.8744,-7.0514,-7.2937,-7.4826,-7.5491,0.0,-7.5651,-7.5675,0.0,0.0,0.0,0.0,0.0,0.0,0.0,0.0,-7.2172,0.0,0.0,-6.9818,-6.9781,-6.941,-6.8667,-6.7874,-6.8283,-6.9855,-6.9063,-6.863,-6.8593,-6.8593,-6.8171,-6.7391,-6.7391,-6.7391,-6.7391,-6.7391,-6.7837,-6.8481,-6.8481,-6.8036,-6.7317,-6.65,-6.6202,-6.6202,-6.6128,-6.6091,-6.6239,-6.7057,-6.6797,-6.6327,-6.6987,-6.6531,-6.594,-6.6588,-6.5577,-6.464,-6.6182,-6.6512,-6.6035,-6.453,-6.4127,-6.4127,-6.4163,-6.42,-6.442,-6.5301,-6.5448,-6.5154,-6.4383,-6.4174,-6.3819,-6.3,-6.2842,-6.278,-6.278,-6.278,-6.278,-6.278,-6.2008,-6.0897,-5.9398,-5.8483,-5.7997,-5.7997,-5.7997,-5.7262,-5.5669,-5.6308,-5.5611,-5.324,-5.3922,-5.3959,-5.3203,-5.3203,-5.3203,-5.3203,-5.3203,-5.3203,-5.6665,-5.7934,-5.9204,-5.9088,-6.0165,-6.1743,-6.3397,-6.4205,-6.4859,-6.5705,-6.6744,-6.7513,-6.7744,-6.8975,-7.0514,-7.2245,-7.4668,-7.6054,-7.5243,-7.5615,-7.556,0.0,0.0,0.0,0.0,0.0,0.0,0.0,0.0,0.0,0.0,0.0,0.0,-6.8221,-6.7725,-6.7421,-6.7344,-6.7008,-6.7195,-6.7771,-6.7457,-6.7224,-6.702,-6.7732,-6.7523,-6.6574,-6.7094,-6.702,-6.6574,-6.6574,-6.6722,-6.702,-6.702,-6.6834,-6.6462,-6.5608,-6.5311,-6.5236,-6.4716,-6.4568,-6.4679,-6.5473,-6.5534,-6.5436,-6.6073,-6.5656,-6.5054,-6.5778,-6.5037,-6.4457,-6.6072,-6.5375,-6.42,-6.4127,-6.3686,-6.3429,-6.398,-6.409,-6.4347,-6.5154,-6.4897,-6.4457,-6.4138,-6.3661,-6.3184,-6.2853,-6.278,-6.278,-6.278,-6.278,-6.278,-6.278,-6.163,-6.042,-5.9268,-5.846,-5.7997,-5.7997,-5.7997,-5.7483,-5.6381,-5.6638,-5.6161,-5.473,-5.4509,-5.4509,-5.4693,-5.3702,-5.3482,-5.3922,-5.3424,-5.3482,-5.5703,-5.678,-5.8011,-5.855,-5.9742,-6.1435,-6.3935,-6.5166,-6.6205,-6.759,-6.8398,-6.9013,-6.959,-7.036,-7.1398,-7.286,-7.5245,-7.6408,-7.5076,0.0,0.0,0.0,0.0,0.0,0.0,0.0,0.0,0.0,0.0,0.0,0.0,0.0,0.0,0.0,-6.6128,-6.5672,-6.5667,-6.5495,-6.5428,-6.5428,-6.5424,-6.5717,-6.6284,-6.6963,-6.6777,-6.5889,-6.6323,-6.6202,-6.5682,-6.5682,-6.5868,-6.6091,-6.5794,-6.5682,-6.5608,-6.4753,-6.4419,-6.4322,-6.3788,-6.3602,-6.375,-6.4545,-6.4619,-6.4545,-6.5221,-6.4792,-6.4216,-6.4893,-6.4437,-6.4067,-6.54,-6.4494,-6.3282,-6.3613,-6.3246,-6.2989,-6.3576,-6.3686,-6.3833,-6.442,-6.409,-6.3686,-6.3697,-6.3184,-6.278,-6.278,-6.278,-6.278,-6.278,-6.278,-6.2695,-6.2463,-6.1227,-6.0065,-5.9268,-5.846,-5.7997,-5.7997,-5.7997,-5.7629,-5.6822,-5.7042,-5.6675,-5.5611,-5.506,-5.4913,-5.5207,-5.3849,-5.3628,-5.4399,-5.3849,-5.3995,-5.5703,-5.6329,-5.6983,-5.7022,-5.8934,-6.1935,-6.6128,-6.7782,-6.9129,-7.1668,-7.086,-6.9706,-6.9744,-7.0398,-7.1206,-7.2052,-7.4322,-7.5833,-7.5362,0.0,0.0,0.0,0.0,0.0,0.0,0.0,0.0,0.0,0.0,0.0,0.0,0.0,0.0,0.0,-6.5236,-6.4382,-6.3602,-6.314,-6.2913,-6.2877,-6.2835,-6.4153,-6.657,-6.6247,-6.5844,-6.537,-6.4957,-6.4791,-6.4768,-6.4768,-6.5311,-6.6017,-6.5125,-6.4768,-6.4693,-6.3876,-6.3602,-6.3602,-6.3602,-6.3602,-6.375,-6.4508,-6.4248,-6.3728,-6.4392,-6.4012,-6.3521,-6.4046,-6.3628,-6.3162,-6.392,-6.409,-6.387,-6.3025,-6.278,-6.278,-6.278,-6.278,-6.278,-6.278,-6.278,-6.278,-6.278,-6.278,-6.278,-6.278,-6.278,-6.278,-6.2805,-6.2805,-6.2463,-6.1678,-6.0845,-6.0097,-5.9274,-5.8447,-5.7997,-5.7997,-5.7997,-5.7629,-5.6859,-5.7593,-5.7262,-5.5669,-5.5611,-5.5207,-5.4436,-5.3628,-5.3665,-5.4436,-5.4436,-5.484,-5.5857,-5.6329,-5.7291,-5.8473,-6.0242,-6.282,-6.7051,-6.7744,-6.8552,-7.236,-7.1745,-7.0937,-7.2168,-7.2052,-7.2091,-7.2976,-7.4207,-7.5127,0.0,0.0,0.0,0.0,0.0,0.0,0.0,0.0,0.0,0.0,0.0,0.0,0.0,0.0,0.0,0.0,-6.3433,-6.2747,-6.2266,-6.2624,-6.2563,-6.207,-6.2569,-6.3676,-6.5275,-6.5441,-6.5181,-6.4547,-6.4441,-6.4246,-6.3973,-6.3973,-6.4099,-6.4345,-6.4085,-6.3973,-6.3936,-6.3713,-6.3602,-6.3602,-6.3602,-6.3602,-6.3639,-6.3899,-6.3788,-6.3616,-6.3854,-6.3674,-6.3433,-6.3585,-6.3379,-6.3173,-6.3272,-6.3321,-6.326,-6.2879,-6.278,-6.278,-6.278,-6.278,-6.278,-6.278,-6.278,-6.278,-6.278,-6.278,-6.278,-6.278,-6.278,-6.2585,-6.2034,-6.1958,-6.165,-6.0832,-6.0023,-5.9448,-5.9218,-5.846,-5.7997,-5.7997,-5.7997,-5.7886,-5.7666,-5.7886,-5.7776,-5.7299,-5.6748,-5.6602,-5.6932,-5.5574,-5.528,-5.6088,-5.55,-5.5684,-5.6291,-5.6599,-5.7484,-5.9511,-6.132,-6.3589,-6.7513,-6.9283,-7.0937,-7.3899,-7.3129,-7.236,-7.3707,-7.3283,-7.2976,-7.386,-7.4399,-7.4787,-7.5009,0.0,0.0,0.0,0.0,0.0,0.0,0.0,0.0,0.0,0.0,0.0,0.0,0.0,0.0,0.0,-6.2181,-6.1606,-6.141,-6.1682,-6.1744,-6.162,-6.1878,-6.2772,-6.4161,-6.4105,-6.382,-6.3389,-6.3133,-6.286,-6.2673,-6.2673,-6.2822,-6.3119,-6.3119,-6.3342,-6.3602,-6.3602,-6.3602,-6.3602,-6.3602,-6.3602,-6.3602,-6.3602,-6.3602,-6.3602,-6.3602,-6.3534,-6.3488,-6.3405,-6.3336,-6.3242,-6.3099,-6.3051,-6.2978,-6.283,-6.278,-6.278,-6.278,-6.278,-6.278,-6.278,-6.278,-6.278,-6.278,-6.278,-6.2695,-6.2365,-6.2071,-6.1655,-6.1176,-6.1124,-6.0793,-6.0013,-5.9499,-5.9071,-5.8767,-5.829,-5.7997,-5.7997,-5.7997,-5.7997,-5.7997,-5.7997,-5.7997,-5.7997,-5.7226,-5.7042,-5.7519,-5.6235,-5.6014,-5.6785,-5.6308,-5.6492,-5.6791,-5.706,-5.7753,-6.0281,-6.2397,-6.4731,-6.7898,-7.1668,-7.4707,-7.5476,-7.4514,-7.3745,-7.4553,-7.4053,-7.3745,-7.4476,-7.4591,-7.4591,-7.4591,0.0,0.0,0.0,0.0,0.0,0.0,0.0,0.0,0.0,0.0,0.0,0.0,0.0,0.0,-6.1843,-6.1131,-6.0714,-6.0665,-6.0317,-6.046,0.0,-6.0725,-6.1385,-6.2874,-6.2422,-6.2155,-6.205,-6.1494,-6.1171,-6.1113,-6.1187,-6.1633,-6.2301,-6.2301,-6.2747,-6.3379,-6.3379,-6.3379,-6.3379,-6.3379,-6.3379,-6.3416,-6.349,-6.349,-6.349,-6.349,-6.349,-6.3468,-6.3243,-6.3257,-6.3285,-6.3144,-6.3062,-6.2978,-6.283,-6.278,-6.278,-6.278,-6.278,-6.278,-6.278,-6.278,-6.278,-6.278,-6.278,-6.2548,-6.1728,-6.0933,-6.037,-6.0294,-6.0283,-5.9979,-5.9184,-5.9074,-5.8804,-5.807,-5.7997,-5.7997,-5.7997,-5.7997,-5.7997,-5.7997,-5.7997,-5.7997,-5.7997,-5.7299,-5.6932,-5.6932,-5.6161,-5.6198,-5.6932,-5.6932,-5.7299,-5.6945,-5.7511,-5.8627,-6.1177,-6.5089,-6.8667,-7.0052,-7.1591,-7.2783,-7.2976,-7.3283,-7.3745,-7.4553,-7.4053,-7.3553,-7.3745,-7.3783,-7.3783,0.0,0.0,0.0,0.0,0.0,0.0,0.0,0.0,0.0,0.0,0.0,0.0,0.0,0.0,0.0,-5.923,-5.9019,-5.8612,-5.8018,-5.8488,-5.8514,0.0,-5.863,-5.9214,-5.9969,-6.1454,-6.1822,-6.1288,-6.1507,-6.1056,-6.0221,-6.0927,-6.1298,-6.1484,-6.1484,-6.1558,-6.1707,-6.1707,-6.1707,-6.1707,-6.1707,-6.1707,-6.1819,-6.245,-6.2673,-6.2673,-6.2673,-6.2673,-6.2502,-6.1849,-6.2146,-6.2584,-6.2318,-6.2728,-6.3075,-6.2855,-6.278,-6.278,-6.278,-6.278,-6.278,-6.278,-6.278,-6.278,-6.278,-6.278,-6.2536,-6.1728,-6.0908,-6.0149,-5.9545,-5.9472,-5.9154,-5.8327,-5.8253,-5.818,-5.7997,-5.7997,-5.7997,-5.7997,-5.7997,-5.7997,-5.7997,-5.7997,-5.7997,-5.7997,-5.7813,-5.774,-5.774,-5.7556,-5.7556,-5.774,-5.774,-5.7813,-5.6368,-5.7588,-5.9704,-6.3051,-6.6205,-6.8667,-6.9513,-7.0052,-7.0514,-7.0937,-7.2014,-7.3129,-7.3976,-7.3783,-7.336,-7.2937,-7.2514,0.0,0.0,0.0,0.0,0.0,0.0,0.0,0.0,0.0,0.0,0.0,0.0,0.0,0.0,-5.8795,-5.8579,-5.838,-5.8321,-5.8115,-5.7731,-5.8103,-5.8103,-5.7731,-5.8115,-5.8563,-5.9071,-6.0533,-6.0943,-6.0454,-6.0471,-6.0053,-5.9367,-5.9812,-6.0221,-6.0593,-6.0593,-6.0853,-6.1187,-6.1187,-6.1187,-6.1187,-6.1187,-6.1187,-6.1261,-6.1707,-6.1819,-6.1819,-6.1819,-6.1819,-6.1744,-6.1336,-6.1521,-6.1775,-6.1596,-6.2073,-6.2459,-6.1886,-6.201,-6.2328,-6.2707,-6.2511,-6.2365,-6.2732,-6.278,-6.2695,-6.2291,-6.1569,-6.0933,-6.0504,-5.9782,-5.9121,-5.869,-5.8617,-5.8447,-5.8033,-5.7997,-5.7997,-5.7997,-5.7997,-5.7997,-5.7997,-5.7997,-5.7997,-5.7997,-5.7997,-5.7997,-5.7997,-5.7997,-5.7997,-5.7997,-5.7997,-5.7997,-5.7997,-5.7997,-5.7997,-5.5434,-5.755,-6.0666,-6.4666,-6.6397,-6.7282,-6.8013,-6.8167,-6.8359,-6.8936,-7.036,-7.1822,-7.2668,-7.2745,-7.2399,-7.1668,0.0,0.0,0.0,0.0,0.0,0.0,0.0,0.0,0.0,0.0,0.0,0.0,0.0,0.0,-5.7857,-5.8011,-5.8011,-5.7857,-5.7857,-5.7857,-5.7857,-5.7857,-5.7857,-5.7857,-5.805,-5.8318,-5.8679,-5.9519,-5.9725,-5.9484,-5.9098,-5.8689,-5.8326,-5.8438,-5.8884,-5.9494,-5.9664,-6.0147,-6.0778,-6.0778,-6.0778,-6.0778,-6.0778,-6.0778,-6.0778,-6.0927,-6.1001,-6.1001,-6.1001,-6.1001,-6.0964,-6.0815,-6.089,-6.0942,-6.0811,-6.1291,-6.1597,-6.0803,-6.0882,-6.141,-6.2218,-6.1961,-6.1777,-6.2475,-6.2732,-6.2487,-6.1557,-6.0285,-5.9368,-5.9197,-5.8524,-5.7997,-5.7997,-5.7997,-5.7997,-5.7997,-5.7997,-5.7997,-5.7997,-5.7997,-5.7997,-5.7997,-5.7997,-5.7997,-5.7997,-5.7997,-5.7997,-5.7997,-5.7997,-5.7997,-5.7997,-5.7997,-5.7997,-5.7997,-5.7997,-5.7997,-5.4472,-5.7588,-6.1281,-6.4089,-6.5936,-6.7128,-6.7244,-6.7282,-6.709,-6.6513,-6.7744,-6.9167,-7.0052,-6.959,-6.9052,0.0,0.0,0.0,0.0,0.0,0.0,0.0,0.0,0.0,0.0,0.0,0.0,0.0,0.0,0.0,-5.6165,-5.6742,-5.683,-5.6049,-5.6049,-5.6049,-5.6049,-5.6049,-5.6049,-5.6049,-5.706,-5.7434,-5.7313,-5.7851,-5.816,-5.8216,-5.8066,-5.7473,-5.6655,-5.736,-5.7732,-5.7881,-5.8586,-5.8958,-5.9032,-5.9032,-5.9032,-5.9032,-5.9032,-5.9032,-5.9144,-5.985,-6.0072,-6.0072,-6.0072,-6.0072,-5.9924,-5.9255,-5.9552,-6.003,-5.9922,-6.0404,-6.0919,-6.0669,-6.005,-5.9758,-6.0566,-6.119,-6.163,-6.1741,-6.2328,-6.234,-6.0823,-6.0382,-6.0002,-5.9273,-5.8537,-5.7997,-5.7997,-5.7997,-5.7997,-5.7997,-5.7997,-5.7997,-5.7997,-5.7997,-5.7997,-5.7997,-5.7997,-5.7997,-5.7997,-5.7997,-5.7997,-5.7997,-5.7997,-5.7997,-5.7997,-5.7997,-5.7997,-5.7997,-5.7997,-5.7997,-5.5395,-5.7253,-5.9511,-6.3012,-6.4436,-6.5243,-6.6205,-6.6051,-6.559,-6.5243,-6.5359,-6.609,-6.7898,-6.7552,-6.7013,0.0,0.0,0.0,0.0,0.0,0.0,0.0,0.0,0.0,0.0,0.0,0.0,0.0,0.0,-5.6896,-5.5742,-5.6049,-5.5895,-5.5049,-5.5011,-5.478,-5.4318,-5.478,-5.5241,-5.5703,-5.6714,-5.7021,-5.6752,-5.7315,-5.7587,-5.7595,-5.7349,-5.6893,-5.632,-5.6692,-5.684,-5.6915,-5.7732,-5.8029,-5.8103,-5.8549,-5.8698,-5.8698,-5.8698,-5.8698,-5.8772,-5.9107,-5.9255,-5.9255,-5.9255,-5.9255,-5.9144,-5.8809,-5.8958,-5.9176,-5.9069,-5.9597,-6.0026,-5.9403,-5.9274,-5.9265,-5.9084,-5.9685,-6.0382,-6.086,-6.086,-6.0579,-5.9858,-5.9355,-5.8938,-5.8574,-5.823,-5.7997,-5.7997,-5.7997,-5.7997,-5.7997,-5.7997,-5.7997,-5.7997,-5.7997,-5.7997,-5.7997,-5.7997,-5.7997,-5.7997,-5.7997,-5.7997,-5.7997,-5.7997,-5.7997,-5.7997,-5.7997,-5.7997,-5.7997,-5.7997,-5.7997,-5.4829,-5.5868,-5.7165,-6.055,-6.2204,-6.3358,-6.4628,-6.4589,-6.4205,-6.4012,-6.3435,-6.3589,-6.5474,-6.5513,0.0,0.0,0.0,0.0,0.0,0.0,0.0,0.0,0.0,0.0,0.0,0.0,0.0,0.0,0.0,-5.5934,-5.5703,-5.5511,-5.5203,-5.4818,-5.4395,-5.3972,-5.3549,-5.4164,-5.478,-5.5395,-5.6252,-5.6537,-5.6295,-5.6677,-5.6799,-5.6755,-5.638,-5.5995,-5.5689,-5.5874,-5.6097,-5.6395,-5.7212,-5.7621,-5.7843,-5.8252,-5.8401,-5.8364,-5.8178,-5.8215,-5.8364,-5.8178,-5.8364,-5.8661,-5.8475,-5.8549,-5.8698,-5.8698,-5.8698,-5.8677,-5.8593,-5.8958,-5.9227,-5.846,-5.8725,-5.9011,-5.8423,-5.8804,-5.9368,-5.9979,-5.9795,-5.9368,-5.8964,-5.8584,-5.8253,-5.8033,-5.7997,-5.7997,-5.7997,-5.7997,-5.7997,-5.7997,-5.7997,-5.7997,-5.7997,-5.7997,-5.7997,-5.7997,-5.7997,-5.7997,-5.7997,-5.7997,-5.7997,-5.7997,-5.7997,-5.7997,-5.7997,-5.7997,-5.7997,-5.7997,-5.7997,-5.7997,-5.0789,-5.2779,-5.4857,-5.5857,-5.9127,-6.2178,-6.2293,-6.2858,-6.3166,-6.2397,-6.2178,-6.2216,-6.2332,0.0,0.0,0.0,0.0,0.0,0.0,0.0,0.0,0.0,0.0,0.0,0.0,0.0,0.0,0.0,0.0,-5.656,-5.5742,-5.4972,-5.4895,-5.5588,-5.4087,-5.3626,-5.4434,-5.4472,-5.4511,-5.4549,-5.5395,-5.578,-5.572,-5.5375,-5.5288,-5.5364,-5.4871,-5.435,-5.398,-5.476,-5.554,-5.6395,-5.7212,-5.7992,-5.8549,-5.7843,-5.7583,-5.7472,-5.6692,-5.6915,-5.7435,-5.6655,-5.7472,-5.8549,-5.7806,-5.8103,-5.8698,-5.8698,-5.8698,-5.8698,-5.8677,-5.863,-5.8545,-5.8508,-5.8459,-5.8585,-5.9034,-5.9148,-5.9184,-5.9258,-5.9832,-5.9869,-5.8327,-5.8657,-5.8854,-5.8107,-5.7997,-5.7997,-5.7997,-5.7997,-5.7997,-5.7997,-5.7997,-5.7997,-5.7997,-5.7997,-5.7997,-5.7997,-5.7997,-5.7997,-5.7997,-5.7997,-5.7997,-5.7997,-5.7997,-5.7997,-5.7997,-5.7997,-5.7997,-5.7997,-5.7997,-5.7997,-5.0635,-5.0971,-5.1933,-5.4934,-5.6857,-5.855,-6.0793,-6.1473,-6.1627,-6.132,-6.1281,-6.1281,-6.1281,0.0,0.0,0.0,0.0,0.0,0.0,0.0,0.0,0.0,0.0,0.0,0.0,0.0,0.0,0.0,0.0,0.0,-5.5703,-5.4934,-5.4395,-5.4087,-5.351,-5.3356,-5.3664,-5.3664,-5.3933,-5.4511,-5.5318,-5.5703,-5.5703,-5.5538,-5.5104,-5.446,-5.4632,-5.4468,-5.4145,-5.4186,-5.4426,-5.4834,-5.6209,-5.6915,-5.7249,-5.7992,-5.7955,-5.7472,-5.7175,-5.7249,-5.736,-5.658,-5.7398,-5.8549,-5.7732,-5.8066,-5.8698,-5.8698,-5.8698,-5.8698,-5.8698,-5.8656,-5.8614,-5.8492,-5.8443,-5.8445,-5.8651,-5.8552,-5.8437,-5.8437,-5.8657,-5.8694,-5.8107,-5.8253,-5.8327,-5.8033,-5.7997,-5.7997,-5.7997,-5.7997,-5.7997,-5.7997,-5.7997,-5.7997,-5.7997,-5.7997,-5.7997,-5.7997,-5.7997,-5.7997,-5.7997,-5.7997,-5.7997,-5.7997,-5.851,-5.851,-5.7997,-5.7997,-5.7997,-5.7997,-5.7997,-5.7997,-4.9894,-4.9625,-5.0202,-5.3587,-5.4626,-5.5665,-5.8819,-5.9511,-5.9588,-5.9896,-6.0165,-6.0435,0.0,0.0,0.0,0.0,0.0,0.0,0.0,0.0,0.0,0.0,0.0,0.0,0.0,0.0,0.0,0.0,0.0,0.0,-5.5665,-5.4664,-5.3549,-5.2395,-5.2626,-5.2626,-5.2356,-5.2933,-5.3356,-5.3626,-5.5049,-5.5549,-5.5318,-5.5588,-5.5116,-5.4214,-5.4749,-5.4564,-5.3849,-5.3833,-5.398,-5.4351,-5.5763,-5.632,-5.6469,-5.7806,-5.7621,-5.6655,-5.6655,-5.684,-5.6952,-5.6134,-5.7138,-5.8549,-5.7732,-5.8066,-5.8698,-5.8698,-5.8698,-5.8698,-5.8698,-5.8698,-5.8677,-5.8593,-5.8486,-5.8422,-5.8422,-5.8223,-5.8065,-5.8065,-5.802,-5.7997,-5.7997,-5.7997,-5.7997,-5.7997,-5.8217,-5.8327,-5.8033,-5.8474,-5.8584,-5.807,-5.8474,-5.8584,-5.8033,-5.8253,-5.829,-5.8033,-5.7997,-5.7997,-5.7997,-5.7997,-5.7997,-5.7997,-5.851,-5.8694,-5.84,-5.84,-5.8253,-5.7997,-5.7997,-5.7997,0.0,0.0,0.0,-5.1423,-5.2423,-5.3703,-5.6291,-5.6868,-5.7099,-5.8011,-5.8819,-5.9665,0.0,0.0,0.0,0.0,0.0,0.0,0.0,0.0,0.0,0.0,0.0,0.0,0.0,0.0,0.0,0.0,0.0,-5.4857,-5.5626,-5.4087,-5.2433,-5.0789,-5.1471,-5.151,-5.075,-5.2356,-5.2741,-5.1923,-5.4472,-5.5241,-5.4472,-5.5318,-5.5241,-5.4462,-5.503,-5.443,-5.3024,-5.359,-5.4277,-5.5057,-5.5912,-5.6246,-5.6357,-5.7212,-5.6432,-5.502,-5.5057,-5.5577,-5.6134,-5.5243,-5.6655,-5.8512,-5.7695,-5.8029,-5.8661,-5.8661,-5.8661,-5.8661,-5.8698,-5.8698,-5.8698,-5.8698,-5.8614,-5.8529,-5.8529,-5.8356,-5.8215,-5.8179,-5.8088,-5.7997,-5.7997,-5.7997,-5.7997,-5.7997,-5.8657,-5.8854,-5.8107,-5.9355,-5.9758,-5.8217,-5.9428,-5.9722,-5.818,-5.8767,-5.8854,-5.8033,-5.7997,-5.7997,-5.7997,-5.7997,-5.7997,-5.7997,-5.8033,-5.8437,-5.9184,-5.9184,-5.8804,-5.807,-5.8033,-5.8033,-4.9125,0.0,0.0,0.0,0.0,0.0,-5.2741,-5.3318,-5.3741,-5.5241,-5.6203,0.0,0.0,0.0,0.0,0.0,0.0,0.0,0.0,0.0,0.0,0.0,0.0,0.0,0.0,0.0,0.0,0.0,-5.5434,-5.4587,-5.4818,-5.3203,-5.2038,-5.1587,-5.1202,-5.1202,-5.1548,-5.2038,-5.2154,-5.1923,-5.3895,-5.4395,-5.3626,-5.5049,-5.4587,-5.2721,-5.452,-5.4199,-5.253,-5.3679,-5.4167,-5.4203,-5.5057,-5.5354,-5.554,-5.6989,-5.6432,-5.5094,-5.5726,-5.5689,-5.5243,-5.4426,-5.58,-5.7583,-5.6134,-5.6692,-5.7843,-5.7843,-5.7843,-5.7992,-5.8549,-5.8698,-5.8698,-5.8698,-5.8656,-5.8635,-5.8635,-5.8529,-5.8378,-5.8223,-5.8156,-5.8111,-5.802,-5.7997,-5.7997,-5.7997,-5.818,-5.8253,-5.8033,-5.84,-5.8731,-5.8877,-5.9258,-5.9331,-5.8891,-5.9074,-5.8854,-5.8033,-5.7997,-5.7997,-5.7997,-5.7997,-5.7997,-5.7997,-5.9134,-5.9575,-5.9184,-5.9184,-5.9368,-5.9722,-5.9134,-5.8877,-4.9586,-4.8702,-4.8355,-5.001,0.0,0.0,-5.1846,-5.2154,-5.2269,0.0,0.0,0.0,0.0,0.0,0.0,0.0,0.0,0.0,0.0,0.0,0.0,0.0,0.0,0.0,0.0,0.0,0.0,-5.6406,-5.5241,-5.4357,-5.3972,-5.2654,-5.1731,-5.1395,-5.0933,-5.0933,-5.1395,-5.1731,-5.1731,-5.1433,-5.3126,-5.351,-5.2731,-5.4434,-5.4203,-5.2538,-5.4215,-5.4193,-5.3014,-5.3694,-5.391,-5.3868,-5.4686,-5.4797,-5.4723,-5.6395,-5.5949,-5.4611,-5.5466,-5.5429,-5.4946,-5.4463,-5.5763,-5.7249,-5.5949,-5.6469,-5.7509,-5.7509,-5.7732,-5.8103,-5.8586,-5.8698,-5.8698,-5.8698,-5.8698,-5.8698,-5.8698,-5.8635,-5.8529,-5.8356,-5.8246,-5.8193,-5.8088,-5.8042,-5.7997,-5.7997,-5.829,-5.84,-5.8033,-5.8877,-5.9428,-5.9221,-6.0102,-6.0432,-5.9735,-6.0015,-5.9869,-5.9061,-5.8988,-5.8988,-5.8988,-5.8988,-5.8988,-5.8988,-5.9905,-6.0346,-6.0199,-6.0199,-6.0272,-6.0382,-5.9942,-5.9698,-4.9933,-4.9548,-4.9894,-5.1269,-5.0587,0.0,-5.2164,-5.2038,-5.1692,0.0,0.0,0.0,0.0,0.0,0.0,0.0,0.0,0.0,0.0,0.0,0.0,0.0,0.0,0.0,0.0,-5.5511,-5.4934,-5.5665,-5.4934,-5.4126,-5.3241,-5.2385,-5.1548,-5.075,-5.0712,-5.0712,-5.0712,-5.1395,-5.1395,-5.0712,-5.2318,-5.2587,-5.1808,-5.3549,-5.3895,-5.3087,-5.3972,-5.4227,-5.3964,-5.3632,-5.3623,-5.3925,-5.4574,-5.4426,-5.398,-5.5577,-5.5169,-5.3943,-5.4723,-5.4946,-5.4871,-5.4871,-5.5949,-5.7063,-5.6283,-5.658,-5.7249,-5.736,-5.7955,-5.8586,-5.8698,-5.8698,-5.8698,-5.8698,-5.8698,-5.8698,-5.8698,-5.8698,-5.8656,-5.8551,-5.8378,-5.8223,-5.8179,-5.8088,-5.802,-5.7997,-5.8621,-5.8841,-5.8217,-6.0015,-6.086,-5.9588,-6.141,-6.2071,-6.0529,-6.1153,-6.1227,-6.0309,-6.0346,-6.0419,-6.0419,-6.0419,-6.0419,-6.0419,-6.0493,-6.0933,-6.1741,-6.1741,-6.1374,-6.0676,-6.0566,-6.0529,-5.0558,-5.0442,-5.0366,-4.9971,-5.0164,0.0,-4.9317,-4.8971,-4.8894,0.0,-4.9086,0.0,0.0,0.0,0.0,0.0,0.0,0.0,0.0,0.0,0.0,0.0,0.0,0.0,0.0,-5.5665,-5.5511,-5.5703,-5.4934,-5.4126,-5.3241,-5.2385,-5.1548,-5.075,-5.0712,-5.0712,-5.0712,-5.0866,-5.0866,-5.0712,-5.1702,-5.1741,-5.0971,-5.2664,-5.2972,-5.2192,-5.3087,-5.364,-5.3964,-5.3632,-5.3767,-5.4196,-5.4056,-5.3943,-5.3943,-5.4909,-5.4648,-5.3943,-5.4723,-5.4574,-5.4054,-5.4054,-5.4686,-5.5354,-5.4537,-5.4871,-5.5652,-5.6357,-5.71,-5.7881,-5.8549,-5.8698,-5.8698,-5.8698,-5.8698,-5.8698,-5.8698,-5.8698,-5.8677,-5.8656,-5.8551,-5.84,-5.8223,-5.8156,-5.8111,-5.802,-5.8143,-5.84,-5.8891,-5.9368,-6.0052,-6.1043,-6.1557,-6.1447,-6.0493,-6.1153,-6.097,-5.9515,-6.0052,-6.0419,-6.0419,-6.0419,-6.0419,-6.0419,-6.1043,-6.1777,-6.2585,-6.2585,-6.2511,-6.2328,-6.1667,-6.1374,-5.0827,-5.0712,-5.0712,-5.0664,-5.0356,0.0,0.0,-4.8702,-4.824,-4.8663,-4.8086,-4.8009,0.0,0.0,0.0,0.0,0.0,0.0,0.0,0.0,0.0,0.0,0.0,0.0,0.0,-5.4434,-5.4626,-5.5049,-5.4318,-5.3664,-5.3241,-5.201,-5.1125,-5.0712,-5.0712,-5.0712,-5.0712,-5.0712,-5.0712,-5.0712,-5.1125,-5.1087,-5.075,-5.201,-5.2538,-5.2577,-5.301,-5.3832,-5.4771,-5.4052,-5.4092,-5.4495,-5.3981,-5.3794,-5.3868,-5.424,-5.4166,-5.3868,-5.4277,-5.4128,-5.3794,-5.3794,-5.4351,-5.4871,-5.4054,-5.4351,-5.5206,-5.606,-5.6878,-5.7695,-5.8512,-5.8698,-5.8698,-5.8698,-5.8698,-5.8698,-5.8698,-5.8698,-5.8698,-5.8698,-5.8635,-5.8529,-5.8349,-5.826,-5.8133,-5.802,-5.7997,-5.829,-5.9074,-5.9551,-6.0272,-6.1484,-6.1961,-6.1887,-6.108,-6.1741,-6.1667,-6.0493,-6.1153,-6.1594,-6.1594,-6.1594,-6.1594,-6.1594,-6.1998,-6.2401,-6.278,-6.278,-6.278,-6.278,-6.2401,-6.2218,-5.1347,-5.1289,-5.151,-5.1808,-5.1125,-5.0394,0.0,0.0,0.0,0.0,0.0,0.0,0.0,0.0,0.0,0.0,0.0,0.0,0.0,0.0,0.0,0.0,0.0,0.0,0.0,-5.3318,-5.351,-5.4203,-5.3587,-5.3126,-5.2972,-5.1818,-5.102,-5.0712,-5.0856,-5.0866,-5.0712,-5.0712,-5.0712,-5.0712,-5.0712,-5.0712,-5.0712,-5.1356,-5.2164,-5.2972,-5.2972,-5.3895,-5.5385,-5.4405,-5.4316,-5.4746,-5.4143,-5.3851,-5.3794,-5.3794,-5.3794,-5.3831,-5.398,-5.3943,-5.3831,-5.398,-5.4388,-5.4648,-5.4017,-5.424,-5.4946,-5.58,-5.6655,-5.7472,-5.8252,-5.8586,-5.8698,-5.8698,-5.8698,-5.8698,-5.8698,-5.8698,-5.8698,-5.8698,-5.8698,-5.8635,-5.8459,-5.8349,-5.8201,-5.8065,-5.8189,-5.8534,-5.9355,-6.0126,-6.0933,-6.1741,-6.2401,-6.2475,-6.1667,-6.2365,-6.2475,-6.163,-6.2365,-6.278,-6.278,-6.278,-6.278,-6.278,-6.278,-6.278,-6.278,-6.278,-6.278,-6.278,-6.278,-6.278,-5.282,-5.3512,-5.3703,-5.2269,-5.2933,-5.3164,-5.0202,0.0,-4.9779,-4.7625,0.0,0.0,0.0,0.0,0.0,0.0,0.0,0.0,0.0,0.0,0.0,0.0,0.0,0.0,0.0,0.0,-5.3241,-5.3356,-5.328,-5.2856,-5.2077,-5.2587,-5.2241,-5.075,-5.1395,-5.1433,-5.0712,-5.0712,-5.0712,-5.0712,-5.0712,-5.0712,-5.0712,-5.0789,-5.1279,-5.2038,-5.2038,-5.3049,-5.4605,-5.4176,-5.4316,-5.4761,-5.438,-5.4054,-5.3794,-5.3794,-5.3794,-5.3905,-5.4611,-5.4426,-5.3943,-5.4648,-5.4463,-5.3943,-5.3831,-5.3868,-5.4128,-5.4946,-5.5763,-5.6617,-5.7435,-5.8178,-5.8698,-5.8698,-5.8698,-5.8698,-5.8698,-5.8698,-5.8698,-5.8698,-5.8698,-5.8656,-5.8529,-5.8486,-5.8422,-5.8201,-5.8782,-5.9495,-6.0162,-6.097,-6.1777,-6.2585,-6.2743,-6.2475,-6.1667,-6.2365,-6.2475,-6.163,-6.2365,-6.278,-6.278,-6.278,-6.278,-6.278,-6.278,-6.278,-6.278,-6.278,-6.278,-6.278,-6.278,-6.278,-5.3262,-5.3244,-5.3022,-5.2791,-5.2127,-5.1357,-5.0366,-4.9279,-4.8471,-4.8355,0.0,0.0,0.0,0.0,0.0,0.0,-4.9279,0.0,0.0,0.0,0.0,0.0,0.0,0.0,0.0,0.0,0.0,0.0,0.0,-5.2087,-5.1241,-5.201,-5.2125,-5.1433,-5.1731,-5.1731,-5.1395,-5.0933,-5.0712,-5.0712,-5.0712,-5.0712,-5.0712,-5.1164,-5.1587,-5.1962,-5.2972,-5.3818,-5.4538,-5.4863,-5.502,-5.505,-5.4731,-5.4245,-5.3794,-5.3794,-5.3794,-5.3868,-5.4203,-5.4388,-5.4574,-5.4909,-5.4463,-5.3794,-5.3794,-5.3794,-5.398,-5.476,-5.5652,-5.6506,-5.7286,-5.8103,-5.8698,-5.8698,-5.8698,-5.8698,-5.8698,-5.8698,-5.8698,-5.8698,-5.8698,-5.8677,-5.8635,-5.8572,-5.8465,-5.8349,-5.8923,-5.9665,-6.0428,-6.1165,-6.1924,-6.2732,-6.278,-6.2475,-6.1667,-6.2365,-6.2475,-6.163,-6.2365,-6.278,-6.278,-6.278,-6.278,-6.278,-6.278,-6.278,-6.278,-6.278,-6.278,-6.278,-6.278,-6.278,-5.3356,0.0,-5.25,0.0,0.0,-5.0286,-5.0625,-4.9452,-4.8566,-4.9558,-4.8971,0.0,0.0,0.0,-4.8394,-4.9856,0.0,-4.9317,0.0,0.0,0.0,0.0,0.0,0.0,0.0,0.0,0.0,0.0,0.0,0.0,-5.001,-5.1202,-5.1808,-5.1587,-5.2,-5.2154,-5.1885,-5.1087,-5.0712,-5.0712,-5.0712,-5.0712,-5.075,-5.1548,-5.1885,-5.2,-5.3741,-5.4511,-5.4549,-5.5357,-5.5531,-5.5275,-5.5023,-5.4528,-5.3944,-5.3832,-5.3794,-5.3831,-5.4054,-5.45,-5.4983,-5.476,-5.4277,-5.3794,-5.3794,-5.3794,-5.3943,-5.45,-5.5466,-5.6432,-5.7026,-5.7918,-5.8698,-5.8698,-5.8698,-5.8698,-5.8698,-5.8698,-5.8772,-5.8995,-5.9032,-5.9107,-5.9367,-5.9096,-5.8789,-5.8459,-5.9405,-6.0296,-6.0572,-6.1421,-6.2194,-6.2732,-6.278,-6.2585,-6.1998,-6.2475,-6.2548,-6.1961,-6.2475,-6.278,-6.278,-6.278,-6.278,-6.278,-6.278,-6.278,-6.278,-6.278,-6.278,-6.278,-6.278,-6.278,0.0,0.0,0.0,-5.2346,0.0,0.0,0.0,0.0,-5.1607,0.0,-5.1241,-5.15,-5.0779,-5.0596,-5.0856,-5.1692,-5.1125,0.0,0.0,0.0,0.0,0.0,0.0,0.0,0.0,0.0,0.0,0.0,0.0,0.0,-4.824,-5.0538,-5.1548,-5.075,-5.2318,-5.2731,-5.1923,-5.1087,-5.0712,-5.0712,-5.0712,-5.0712,-5.075,-5.1548,-5.1885,-5.2,-5.3741,-5.4511,-5.4549,-5.5357,-5.5531,-5.5301,-5.5288,-5.488,-5.4228,-5.3926,-5.3794,-5.3905,-5.4686,-5.4983,-5.4871,-5.4091,-5.3831,-5.3794,-5.3794,-5.3794,-5.3831,-5.3831,-5.502,-5.632,-5.632,-5.7509,-5.8698,-5.8698,-5.8698,-5.8698,-5.8698,-5.8698,-5.8958,-5.9717,-5.9865,-6.0147,-6.0964,-6.0422,-5.9526,-5.864,-6.0544,-6.1735,-6.0743,-6.1971,-6.2917,-6.2805,-6.278,-6.278,-6.2768,-6.2805,-6.278,-6.2768,-6.2805,-6.278,-6.278,-6.278,-6.278,-6.278,-6.278,-6.278,-6.278,-6.278,-6.278,-6.278,-6.278,-6.278,0.0,0.0,-5.252,-5.2177,0.0,0.0,0.0,0.0,0.0,0.0,0.0,0.0,-5.2318,-5.1895,-5.1779,-5.2626,-5.1587,-5.0971,0.0,0.0,0.0,0.0,0.0,0.0,0.0,0.0,0.0,0.0,0.0,0.0,0.0,-5.0231,-5.1769,-5.151,-5.2587,-5.3049,-5.2769,-5.1395,-5.0712,-5.0712,-5.0712,-5.0712,-5.075,-5.2125,-5.2462,-5.2038,-5.4318,-5.4972,-5.4549,-5.5357,-5.5531,-5.5301,-5.5301,-5.4895,-5.4279,-5.4178,-5.3981,-5.4017,-5.5391,-5.5131,-5.4351,-5.5169,-5.4723,-5.3794,-5.3794,-5.3794,-5.3794,-5.3794,-5.502,-5.632,-5.632,-5.7509,-5.8698,-5.8698,-5.8698,-5.8698,-5.8698,-5.9144,-5.9589,-5.985,-6.037,-6.0853,-6.115,-6.141,-6.1277,-6.0416,-6.1389,-6.2063,-6.1712,-6.2435,-6.2978,-6.2929,-6.2855,-6.278,-6.278,-6.278,-6.278,-6.278,-6.278,-6.278,-6.278,-6.278,-6.278,-6.278,-6.278,-6.278,-6.278,-6.278,-6.278,-6.278,-6.278,-6.278,-5.2569,-5.2182,0.0,-5.1678,-5.1283,0.0,-5.0855,0.0,-5.1364,0.0,0.0,0.0,0.0,-5.2589,-5.2299,-5.1953,-5.1443,-5.0971,0.0,-4.9894,0.0,0.0,0.0,-5.1885,0.0,0.0,0.0,0.0,0.0,0.0,0.0,0.0,-5.1164,-5.1471,-5.2587,-5.3203,-5.3203,-5.1818,-5.0971,-5.0712,-5.0712,-5.0712,-5.075,-5.2433,-5.2895,-5.25,-5.4741,-5.5395,-5.4972,-5.5472,-5.5577,-5.5425,-5.5339,-5.4966,-5.4463,-5.433,-5.4089,-5.4017,-5.5354,-5.4946,-5.4017,-5.5391,-5.4909,-5.3794,-5.3794,-5.3794,-5.3794,-5.3794,-5.502,-5.632,-5.632,-5.7509,-5.8698,-5.8698,-5.8921,-5.9144,-5.9144,-5.9775,-6.0444,-6.072,-6.1261,-6.1707,-6.2004,-6.2487,-6.245,-6.1373,-6.2049,-6.2575,-6.2234,-6.2761,-6.3099,-6.3026,-6.2929,-6.2855,-6.2805,-6.278,-6.278,-6.278,-6.278,-6.278,-6.278,-6.278,-6.3074,-6.3661,-6.3074,-6.3074,-6.3686,-6.3099,-6.278,-6.278,-6.278,-6.278]},{"header":{"parameterUnit":"m.s-1","parameterCategory":1,"la1":30.6,"la2":29.2853,"lo1":-89.7004,"lo2":-87.6739,"dy":0.0162,"dx":0.0183,"nx":112,"ny":82,"refTime":"2024-05-07T00:00:00:Z","depth":0,"parameterNumber":3,"parameterNumberName":"V-component_of_WINDS"},"data":[0.0,0.0,0.0,0.0,0.0,0.0,0.0,0.0,0.0,0.0,0.0,0.0,0.0,0.0,0.0,0.0,0.0,0.0,0.0,0.0,0.0,0.0,0.0,0.0,0.0,0.0,0.0,0.0,0.0,0.0,0.0,0.0,0.0,0.0,0.0,0.0,0.0,0.0,0.0,0.0,0.0,0.0,0.0,0.0,0.0,0.0,0.0,0.0,0.0,0.0,0.0,0.0,0.0,0.0,0.0,0.0,0.0,0.0,0.0,0.0,0.0,0.0,0.0,0.0,0.0,0.0,0.0,0.0,0.0,0.0,0.0,0.0,0.0,0.0,0.0,0.0,0.0,0.0,0.0,0.0,0.0,0.0,0.0,0.0,0.0,0.0,0.0,0.0,0.0,0.0,-2.3821,-2.5104,-2.8497,-3.0808,-3.1196,-3.1022,-2.9245,-2.5384,0.0,0.0,0.0,0.0,0.0,0.0,0.0,0.0,0.0,0.0,0.0,0.0,0.0,0.0,0.0,0.0,0.0,0.0,0.0,0.0,0.0,0.0,0.0,0.0,0.0,0.0,0.0,0.0,0.0,0.0,0.0,0.0,0.0,0.0,0.0,0.0,0.0,0.0,0.0,0.0,0.0,0.0,0.0,0.0,0.0,0.0,0.0,0.0,0.0,0.0,0.0,0.0,0.0,0.0,0.0,0.0,0.0,0.0,0.0,0.0,0.0,0.0,0.0,0.0,0.0,0.0,0.0,0.0,0.0,0.0,0.0,0.0,0.0,0.0,0.0,0.0,0.0,0.0,0.0,0.0,0.0,0.0,0.0,0.0,0.0,0.0,0.0,0.0,0.0,0.0,0.0,0.0,0.0,0.0,0.0,0.0,0.0,0.0,0.0,0.0,0.0,0.0,0.0,0.0,-2.4529,-2.7669,-2.9232,-3.0368,-3.1156,-3.0087,-2.8243,-2.5611,0.0,0.0,0.0,0.0,0.0,0.0,0.0,0.0,0.0,0.0,0.0,0.0,0.0,0.0,0.0,0.0,0.0,0.0,0.0,0.0,0.0,0.0,0.0,0.0,0.0,0.0,0.0,0.0,0.0,0.0,0.0,0.0,0.0,0.0,0.0,0.0,0.0,0.0,0.0,0.0,0.0,0.0,0.0,0.0,0.0,0.0,0.0,0.0,0.0,0.0,0.0,0.0,0.0,0.0,0.0,0.0,0.0,0.0,0.0,0.0,0.0,0.0,0.0,0.0,0.0,0.0,0.0,0.0,0.0,0.0,0.0,0.0,0.0,0.0,0.0,0.0,0.0,0.0,0.0,0.0,0.0,0.0,0.0,0.0,0.0,0.0,0.0,0.0,0.0,0.0,0.0,0.0,0.0,0.0,0.0,0.0,0.0,0.0,0.0,0.0,0.0,0.0,0.0,-2.3754,-2.5384,-2.8297,-2.9245,-2.99,-3.0474,-2.9312,-2.7765,-2.5868,-2.5235,0.0,0.0,0.0,0.0,0.0,0.0,0.0,0.0,0.0,0.0,0.0,0.0,0.0,0.0,0.0,0.0,0.0,0.0,0.0,0.0,0.0,0.0,0.0,0.0,0.0,0.0,0.0,0.0,0.0,0.0,0.0,0.0,0.0,0.0,0.0,0.0,0.0,0.0,0.0,0.0,0.0,0.0,0.0,0.0,0.0,0.0,0.0,0.0,0.0,0.0,0.0,0.0,0.0,0.0,0.0,0.0,0.0,0.0,0.0,0.0,0.0,0.0,0.0,0.0,0.0,0.0,0.0,0.0,0.0,0.0,0.0,0.0,0.0,0.0,0.0,0.0,0.0,0.0,0.0,0.0,0.0,0.0,0.0,0.0,0.0,0.0,0.0,0.0,0.0,0.0,0.0,0.0,0.0,0.0,0.0,0.0,0.0,0.0,0.0,0.0,0.0,0.0,-2.4836,-2.5905,-2.835,-2.9072,-2.9472,-2.9686,-2.8617,-2.7378,-2.5976,-2.4687,0.0,0.0,0.0,0.0,0.0,0.0,0.0,0.0,0.0,0.0,0.0,0.0,0.0,0.0,0.0,0.0,0.0,0.0,0.0,0.0,0.0,0.0,0.0,0.0,0.0,0.0,0.0,0.0,0.0,0.0,0.0,0.0,0.0,0.0,0.0,0.0,0.0,0.0,0.0,0.0,0.0,0.0,0.0,0.0,0.0,0.0,0.0,0.0,0.0,0.0,0.0,0.0,0.0,0.0,0.0,0.0,0.0,0.0,0.0,0.0,0.0,0.0,0.0,0.0,0.0,0.0,0.0,0.0,0.0,0.0,0.0,0.0,0.0,0.0,0.0,0.0,0.0,0.0,0.0,0.0,0.0,0.0,0.0,0.0,0.0,0.0,0.0,0.0,0.0,0.0,0.0,0.0,0.0,0.0,0.0,0.0,0.0,0.0,0.0,0.0,0.0,0.0,-2.4649,-2.5678,-2.8323,-2.8885,-2.9085,-2.9098,-2.8016,-2.6853,-2.5725,-2.397,0.0,0.0,0.0,0.0,0.0,0.0,0.0,0.0,0.0,0.0,0.0,0.0,0.0,0.0,0.0,0.0,0.0,0.0,0.0,0.0,0.0,0.0,0.0,0.0,0.0,0.0,0.0,0.0,0.0,0.0,0.0,0.0,0.0,0.0,0.0,0.0,0.0,0.0,0.0,0.0,0.0,0.0,0.0,0.0,0.0,0.0,0.0,0.0,0.0,0.0,0.0,0.0,0.0,0.0,0.0,0.0,0.0,0.0,0.0,0.0,0.0,0.0,0.0,0.0,0.0,0.0,0.0,0.0,0.0,0.0,0.0,0.0,0.0,0.0,0.0,0.0,0.0,0.0,0.0,0.0,0.0,0.0,0.0,0.0,0.0,0.0,0.0,0.0,0.0,0.0,0.0,0.0,0.0,0.0,0.0,0.0,0.0,0.0,0.0,0.0,0.0,0.0,-2.4796,-2.5785,-2.807,-2.8417,-2.8404,-2.8217,-2.7295,-2.6168,-2.4879,0.0,0.0,0.0,0.0,0.0,0.0,0.0,0.0,0.0,0.0,0.0,0.0,0.0,0.0,0.0,0.0,0.0,0.0,0.0,0.0,0.0,0.0,0.0,0.0,0.0,0.0,0.0,0.0,0.0,0.0,0.0,0.0,0.0,0.0,0.0,0.0,0.0,0.0,0.0,0.0,0.0,0.0,0.0,0.0,0.0,0.0,0.0,0.0,0.0,0.0,0.0,0.0,0.0,0.0,0.0,0.0,0.0,0.0,0.0,0.0,0.0,0.0,0.0,0.0,0.0,0.0,0.0,0.0,0.0,0.0,0.0,0.0,0.0,0.0,0.0,0.0,0.0,0.0,0.0,0.0,0.0,0.0,0.0,0.0,0.0,0.0,0.0,0.0,0.0,0.0,0.0,0.0,0.0,0.0,0.0,0.0,0.0,0.0,0.0,0.0,0.0,0.0,-2.4102,-2.4703,-2.5692,-2.7738,-2.8033,-2.7923,-2.7722,-2.6466,-2.5294,-2.4347,0.0,0.0,0.0,0.0,0.0,0.0,0.0,0.0,0.0,0.0,0.0,0.0,0.0,0.0,0.0,0.0,0.0,0.0,0.0,0.0,0.0,0.0,0.0,0.0,0.0,0.0,0.0,0.0,0.0,0.0,0.0,0.0,0.0,0.0,0.0,0.0,0.0,0.0,0.0,0.0,0.0,0.0,0.0,0.0,0.0,0.0,0.0,0.0,0.0,0.0,0.0,0.0,0.0,0.0,0.0,0.0,0.0,0.0,0.0,0.0,0.0,0.0,0.0,0.0,0.0,0.0,0.0,0.0,0.0,0.0,0.0,0.0,0.0,0.0,0.0,0.0,0.0,0.0,0.0,0.0,0.0,0.0,0.0,0.0,0.0,0.0,0.0,0.0,0.0,0.0,0.0,0.0,0.0,0.0,0.0,0.0,0.0,0.0,0.0,0.0,0.0,0.0,-2.3541,-2.4275,-2.5317,-2.7081,-2.7522,-2.7696,-2.7682,-2.5545,-2.4219,0.0,0.0,0.0,0.0,0.0,0.0,0.0,0.0,0.0,0.0,0.0,0.0,0.0,0.0,0.0,0.0,0.0,0.0,0.0,0.0,0.0,0.0,0.0,0.0,0.0,0.0,0.0,0.0,0.0,0.0,0.0,0.0,0.0,0.0,0.0,0.0,0.0,0.0,0.0,0.0,0.0,0.0,0.0,0.0,0.0,0.0,0.0,0.0,0.0,0.0,0.0,0.0,0.0,0.0,0.0,0.0,0.0,0.0,0.0,0.0,0.0,0.0,0.0,0.0,0.0,0.0,0.0,0.0,0.0,0.0,0.0,0.0,0.0,0.0,0.0,0.0,0.0,0.0,0.0,0.0,0.0,0.0,0.0,0.0,0.0,0.0,0.0,0.0,0.0,0.0,0.0,0.0,0.0,0.0,0.0,0.0,0.0,0.0,0.0,0.0,0.0,0.0,0.0,-2.3821,-2.4409,-2.5398,-2.7362,-2.7468,-2.7308,-2.7094,-2.5504,-2.4022,-2.3023,0.0,0.0,0.0,0.0,0.0,0.0,0.0,0.0,0.0,0.0,0.0,0.0,0.0,0.0,0.0,0.0,0.0,0.0,0.0,0.0,0.0,0.0,0.0,0.0,0.0,0.0,0.0,0.0,0.0,0.0,0.0,0.0,0.0,0.0,0.0,0.0,0.0,0.0,0.0,0.0,0.0,0.0,0.0,0.0,0.0,0.0,0.0,0.0,0.0,0.0,0.0,0.0,0.0,0.0,0.0,0.0,0.0,0.0,0.0,0.0,0.0,0.0,0.0,0.0,0.0,0.0,0.0,0.0,0.0,0.0,0.0,0.0,0.0,0.0,0.0,0.0,0.0,0.0,0.0,0.0,0.0,0.0,0.0,0.0,0.0,0.0,0.0,0.0,0.0,0.0,0.0,0.0,0.0,0.0,0.0,0.0,0.0,0.0,0.0,0.0,0.0,0.0,-2.3434,-2.4128,-2.5117,-2.6827,-2.7054,-2.6974,-2.668,-2.5197,-2.3754,-2.2498,0.0,0.0,0.0,0.0,0.0,0.0,0.0,0.0,0.0,0.0,0.0,0.0,0.0,0.0,0.0,0.0,0.0,0.0,0.0,0.0,0.0,0.0,0.0,0.0,0.0,0.0,0.0,0.0,0.0,0.0,0.0,0.0,0.0,0.0,0.0,0.0,0.0,0.0,0.0,0.0,0.0,0.0,0.0,0.0,0.0,0.0,0.0,0.0,0.0,0.0,0.0,0.0,0.0,0.0,0.0,0.0,0.0,0.0,0.0,0.0,0.0,0.0,0.0,0.0,0.0,0.0,0.0,0.0,0.0,0.0,0.0,0.0,0.0,0.0,0.0,0.0,0.0,0.0,0.0,0.0,0.0,0.0,0.0,0.0,0.0,0.0,0.0,0.0,0.0,0.0,0.0,0.0,0.0,0.0,0.0,0.0,0.0,0.0,0.0,0.0,0.0,0.0,-2.2712,-2.3647,-2.4623,-2.5903,-2.6426,-2.6627,-2.6333,-2.4743,-2.3367,-2.2432,0.0,0.0,0.0,0.0,0.0,0.0,0.0,0.0,0.0,0.0,0.0,0.0,0.0,0.0,0.0,0.0,0.0,0.0,0.0,0.0,0.0,0.0,0.0,0.0,0.0,0.0,0.0,0.0,0.0,0.0,0.0,0.0,0.0,0.0,0.0,0.0,0.0,0.0,0.0,0.0,0.0,0.0,0.0,0.0,0.0,0.0,0.0,0.0,0.0,0.0,0.0,0.0,0.0,0.0,0.0,0.0,0.0,0.0,0.0,0.0,-1.1504,0.0,0.0,0.0,0.0,0.0,0.0,0.0,0.0,0.0,0.0,0.0,0.0,0.0,0.0,0.0,0.0,0.0,0.0,0.0,0.0,0.0,0.0,0.0,0.0,0.0,0.0,0.0,0.0,0.0,0.0,0.0,0.0,0.0,0.0,0.0,0.0,0.0,0.0,0.0,0.0,0.0,-2.3006,-2.3607,-2.4396,-2.5889,-2.6066,-2.6026,-2.5718,-2.4516,-2.3287,-2.2151,-2.1502,0.0,0.0,0.0,0.0,0.0,0.0,0.0,0.0,0.0,0.0,0.0,0.0,0.0,0.0,0.0,0.0,0.0,0.0,0.0,0.0,0.0,0.0,0.0,0.0,0.0,0.0,0.0,0.0,0.0,0.0,0.0,0.0,0.0,0.0,0.0,0.0,0.0,0.0,0.0,0.0,0.0,0.0,0.0,0.0,0.0,0.0,0.0,0.0,0.0,0.0,0.0,0.0,0.0,0.0,0.0,0.0,0.0,0.0,0.0,0.0,-1.1782,0.0,0.0,0.0,0.0,0.0,0.0,0.0,0.0,0.0,0.0,0.0,0.0,0.0,0.0,0.0,0.0,0.0,0.0,0.0,0.0,0.0,0.0,0.0,0.0,0.0,0.0,0.0,0.0,0.0,0.0,0.0,0.0,0.0,0.0,0.0,0.0,0.0,0.0,0.0,0.0,-2.2873,-2.3367,-2.4062,-2.5398,-2.5665,-2.5625,-2.5331,-2.4369,-2.3313,-2.2258,-2.1484,0.0,0.0,0.0,0.0,0.0,0.0,0.0,0.0,0.0,0.0,0.0,0.0,0.0,0.0,0.0,0.0,0.0,0.0,0.0,0.0,0.0,0.0,0.0,0.0,0.0,0.0,0.0,0.0,0.0,0.0,0.0,0.0,0.0,0.0,0.0,0.0,0.0,0.0,0.0,0.0,0.0,0.0,0.0,0.0,0.0,0.0,0.0,0.0,0.0,0.0,0.0,0.0,0.0,-1.3648,-1.3797,-1.396,-1.3987,-1.4,-1.3953,-1.3091,-1.2556,-1.2284,-1.2182,0.0,0.0,0.0,0.0,0.0,0.0,0.0,0.0,0.0,0.0,0.0,0.0,0.0,0.0,0.0,0.0,0.0,0.0,0.0,0.0,0.0,0.0,0.0,0.0,-2.3088,-2.2806,0.0,0.0,0.0,0.0,0.0,0.0,0.0,0.0,0.0,0.0,0.0,0.0,-2.2579,-2.31,-2.3741,-2.481,-2.5237,-2.5304,-2.4957,-2.4222,-2.3367,-2.2405,-2.1632,-2.106,0.0,0.0,0.0,0.0,0.0,0.0,0.0,0.0,0.0,0.0,0.0,0.0,0.0,0.0,0.0,0.0,0.0,0.0,0.0,0.0,0.0,0.0,0.0,0.0,0.0,0.0,0.0,0.0,0.0,0.0,0.0,0.0,-0.4673,-0.5979,0.0,0.0,0.0,0.0,0.0,0.0,0.0,0.0,0.0,0.0,0.0,0.0,0.0,-1.2732,-1.3451,-1.4,-1.4177,-1.3994,-1.4638,-1.4767,-1.4428,-1.4563,-1.4624,-1.4611,-1.4475,0.0,-1.3186,-1.2657,0.0,0.0,0.0,0.0,0.0,0.0,0.0,0.0,0.0,0.0,0.0,0.0,0.0,0.0,0.0,0.0,0.0,0.0,0.0,0.0,0.0,0.0,-2.3233,-2.3567,-2.3647,-2.3554,0.0,-2.2445,-2.1724,-2.1203,-2.1109,0.0,0.0,0.0,0.0,0.0,0.0,0.0,-2.2311,-2.2979,-2.3581,-2.4249,-2.481,-2.4917,-2.4369,-2.3981,-2.3273,-2.2111,-2.1722,-2.1249,-2.0715,-2.069,0.0,0.0,0.0,0.0,0.0,0.0,0.0,0.0,0.0,0.0,0.0,0.0,0.0,0.0,0.0,0.0,0.0,0.0,0.0,0.0,0.0,0.0,0.0,0.0,0.0,0.0,0.0,0.0,0.0,-0.6058,-0.7339,-0.7612,-0.7902,-0.8243,0.0,0.0,0.0,0.0,0.0,0.0,0.0,0.0,0.0,-1.2174,-1.2926,-1.3554,-1.4122,-1.4631,-1.4909,-1.4957,-1.5282,-1.5425,-1.5398,-1.5466,-1.5493,-1.5486,-1.5404,-1.5746,-1.6279,-1.414,-1.3481,-1.3969,0.0,0.0,0.0,0.0,-2.1027,-2.2254,-2.2876,-2.3368,0.0,-2.3607,0.0,0.0,0.0,0.0,0.0,0.0,0.0,0.0,0.0,0.0,0.0,-2.4182,-2.4516,-2.4489,-2.3527,-2.3153,-2.2712,0.0,-2.1336,-2.1109,-2.1109,0.0,0.0,0.0,0.0,-2.1096,-2.2271,-2.2645,-2.3113,-2.3875,-2.4195,-2.4235,-2.3981,-2.3688,-2.3153,-2.2285,-2.1804,-2.1348,-2.0727,-2.0593,-2.0475,0.0,0.0,0.0,0.0,0.0,0.0,0.0,0.0,0.0,0.0,0.0,0.0,0.0,0.0,0.0,0.0,0.0,0.0,0.0,0.0,0.0,0.0,0.0,0.0,0.0,0.0,0.0,0.0,-0.8333,-0.9237,-0.8698,-0.922,-0.941,0.0,0.0,0.0,0.0,0.0,0.0,-1.0585,-1.1423,-1.219,-1.2716,-1.3752,-1.4559,-1.4909,-1.5248,-1.5547,-1.5811,-1.5771,-1.5866,-1.6083,-1.6083,-1.6083,-1.6076,-1.5961,-1.6796,-1.7889,-1.5623,-1.547,-1.658,-1.7369,-1.8338,-1.9481,-2.1222,-2.2428,-2.3245,-2.3819,-2.4503,-2.509,-2.4516,0.0,-2.3247,-2.2298,0.0,0.0,0.0,0.0,-2.2539,-2.3434,-2.4048,-2.4489,-2.4703,-2.5144,-2.5157,-2.3834,-2.3607,-2.3327,0.0,-2.163,-2.1309,-2.1229,0.0,0.0,0.0,0.0,-2.1042,-2.2071,-2.2258,-2.2592,-2.334,-2.35,-2.3514,-2.3434,-2.322,-2.2832,-2.2231,-2.179,-2.1339,-2.0752,-2.0506,-2.0323,-2.0169,0.0,0.0,0.0,0.0,0.0,0.0,0.0,0.0,0.0,0.0,0.0,0.0,0.0,0.0,0.0,0.0,0.0,0.0,0.0,0.0,0.0,0.0,0.0,0.0,0.0,0.0,0.0,0.0,0.0,-0.8845,-0.9786,0.0,0.0,0.0,0.0,-1.0541,-1.0503,-1.0721,-1.1199,-1.2343,-1.3144,-1.3419,-1.4774,-1.5716,-1.6001,-1.6022,-1.6117,-1.6273,-1.613,-1.6069,-1.6083,-1.6083,-1.6083,-1.6083,-1.6076,-1.608,-1.6063,-1.6948,-1.8305,-1.9777,-2.0342,-2.0331,-2.0155,-2.2037,-2.3029,-2.3513,-2.3883,-2.4635,-2.5531,-2.5772,-2.5451,-2.4756,-2.3594,-2.302,0.0,0.0,-2.302,-2.346,-2.4342,-2.4796,-2.5037,-2.505,-2.5291,-2.5264,-2.4356,-2.3728,-2.3073,0.0,-2.1964,-2.1857,-2.1641,0.0,-2.1096,-2.1109,-2.0869,-2.0895,-2.1574,-2.1844,-2.2124,-2.2458,-2.2739,-2.2792,-2.2512,-2.2472,-2.2218,-2.1695,-2.1628,-2.1339,-2.0752,-2.0698,-2.041,-1.9822,-2.0155,0.0,0.0,0.0,0.0,0.0,0.0,0.0,0.0,0.0,0.0,0.0,0.0,0.0,0.0,0.0,0.0,0.0,0.0,0.0,0.0,0.0,0.0,0.0,0.0,0.0,0.0,0.0,0.0,-0.9943,-1.0704,0.0,-1.0465,-1.0596,-1.0802,-1.1003,-1.1237,-1.158,-1.2058,-1.3257,-1.4104,-1.4378,-1.5525,-1.6259,-1.6361,-1.6368,-1.6388,-1.6442,-1.6388,-1.632,-1.6232,-1.6232,-1.6178,-1.6083,-1.6083,-1.7613,-2.0038,-2.0153,-2.0217,-2.0457,-2.1556,-2.2531,-2.3271,-2.3568,-2.4269,-2.512,-2.502,-2.5636,-2.6253,-2.5598,-2.4997,-2.4396,-2.3794,-2.3541,-2.3487,-2.3674,-2.3941,-2.4329,-2.5024,-2.5277,-2.5358,-2.5358,-2.5291,-2.505,-2.4356,-2.4035,-2.3741,-2.3233,-2.2512,-2.1951,-2.1844,-2.159,-2.139,-2.139,-2.1149,-2.1096,-2.1561,-2.1708,-2.1817,-2.2111,-2.2231,-2.2258,-2.2151,-2.1964,-2.1697,-2.1296,-2.1096,-2.0743,-2.0166,-2.0126,-1.9937,-1.9546,-1.9649,-1.9901,0.0,0.0,0.0,0.0,0.0,0.0,0.0,0.0,0.0,0.0,0.0,0.0,0.0,0.0,0.0,0.0,0.0,0.0,0.0,0.0,0.0,0.0,0.0,0.0,0.0,-1.0177,-1.0791,-1.0742,-1.1558,-1.19,-1.1335,-1.1498,-1.171,-1.1868,-1.2063,-1.2373,-1.2814,-1.3782,-1.4566,-1.4953,-1.5879,-1.6413,-1.6673,-1.6571,-1.6524,-1.6524,-1.6469,-1.6374,-1.6232,-1.6232,-1.6178,-1.6182,-1.6864,-1.873,-2.1334,-2.2279,-2.2335,-2.2066,-2.3466,-2.4436,-2.512,-2.4768,-2.5071,-2.5767,-2.5916,-2.6277,-2.656,-2.5892,-2.5277,-2.473,-2.4329,-2.4275,-2.4382,-2.4476,-2.4783,-2.5197,-2.5678,-2.5732,-2.5638,-2.5531,-2.5291,-2.4917,-2.4329,-2.4209,-2.4115,-2.3834,-2.3046,-2.2405,-2.2298,-2.1964,-2.1762,-2.1762,-2.1363,-2.1216,-2.1574,-2.1614,-2.159,-2.1683,-2.1777,-2.1804,-2.1697,-2.151,-2.1283,-2.0989,-2.0695,-2.0267,-1.9679,-1.9653,-1.9519,-1.9225,-1.9562,-1.9583,-1.9237,0.0,0.0,0.0,0.0,0.0,0.0,0.0,0.0,0.0,0.0,0.0,0.0,0.0,0.0,0.0,0.0,0.0,0.0,0.0,0.0,0.0,0.0,0.0,-0.9715,-1.0829,-1.1525,-1.1204,-1.2297,-1.2808,-1.2112,-1.246,-1.2825,-1.3064,-1.2977,-1.3058,-1.3401,-1.3955,-1.4481,-1.5106,-1.5619,-1.6308,-1.6985,-1.6686,-1.653,-1.6524,-1.6388,-1.6239,-1.609,-1.6189,-1.6182,-1.6275,-1.8426,-1.9306,-1.9667,-2.3224,-2.4753,-2.4866,-2.6013,-2.607,-2.5446,-2.5433,-2.5379,-2.5437,-2.6246,-2.6532,-2.644,-2.672,-2.6426,-2.5865,-2.5291,-2.5317,-2.5478,-2.5184,-2.5531,-2.6039,-2.6319,-2.6159,-2.5865,-2.5571,-2.5264,-2.4903,-2.4329,-2.4209,-2.4115,-2.3834,-2.3541,-2.3247,-2.2926,-2.2378,-2.1991,-2.1991,-2.1483,0.0,-2.1574,-2.1614,-2.1507,-2.1162,-2.139,-2.1507,-2.1149,-2.1109,-2.0962,-2.0668,-2.0361,-1.9947,-1.943,-1.9403,-1.9199,-1.8918,-1.9943,-1.9954,-1.9006,0.0,0.0,0.0,0.0,0.0,0.0,0.0,0.0,0.0,0.0,0.0,0.0,0.0,0.0,0.0,0.0,0.0,0.0,0.0,0.0,0.0,-1.0134,-1.0606,-1.0699,-1.1389,-1.2053,-1.2477,-1.2999,-1.3314,-1.3298,-1.3254,-1.3254,-1.3319,-1.3379,-1.3412,-1.3423,-1.4197,-1.4838,-1.5381,-1.591,-1.6459,-1.7134,-1.6951,-1.6795,-1.6686,-1.6646,-1.6497,-1.6346,-1.7829,-1.8451,-1.8426,-2.034,-2.2123,-2.3531,-2.4146,-2.5162,-2.6361,-2.6516,-2.6407,-2.6206,-2.5361,-2.5133,-2.5278,-2.5827,-2.6202,-2.64,-2.648,-2.64,-2.6199,-2.5825,-2.5919,-2.6092,-2.5798,-2.5985,-2.6293,-2.6373,-2.6012,-2.5558,-2.5264,-2.481,-2.4396,-2.4235,-2.4209,-2.4182,-2.4102,-2.3848,-2.3554,-2.3247,-2.2525,-2.1991,-2.1991,-2.1483,0.0,-2.1574,-2.1614,-2.1668,-2.1737,-2.1817,-2.175,-2.1521,-2.1042,-2.0575,-2.008,-1.9559,-1.9212,-1.9052,-1.8838,-1.8691,-1.8611,-1.8905,-1.9742,0.0,0.0,0.0,0.0,0.0,0.0,0.0,0.0,0.0,0.0,0.0,0.0,0.0,0.0,0.0,0.0,0.0,0.0,0.0,0.0,0.0,0.0,-1.0759,-1.1275,-1.165,-1.2085,-1.2558,-1.308,-1.3395,-1.3607,-1.37,-1.3629,-1.3597,-1.364,-1.3618,-1.364,-1.3716,-1.4361,-1.495,-1.5576,-1.6055,-1.6557,-1.7188,-1.7053,-1.687,-1.6653,-1.6653,-1.6503,-1.6212,-1.7499,-1.8428,0.0,-2.1153,-2.3193,-2.5076,-2.5355,-2.6052,0.0,0.0,0.0,0.0,0.0,-2.4837,-2.513,-2.5448,-2.5911,-2.6386,-2.6386,-2.6306,-2.6159,-2.5865,-2.5972,-2.6119,-2.5705,-2.5972,-2.6306,-2.5932,-2.5678,-2.5411,-2.4997,-2.4636,-2.4356,-2.4222,-2.4209,-2.4168,-2.4048,0.0,0.0,-2.3354,-2.2579,-2.2031,-2.2151,-2.1563,-2.1216,-2.1574,-2.1614,-2.1641,-2.1617,-2.1737,-2.1683,-2.139,-2.0949,0.0,0.0,0.0,-1.8998,-1.8758,-1.8464,0.0,0.0,0.0,-1.9533,-2.0264,0.0,0.0,0.0,-2.5243,-2.675,0.0,0.0,0.0,0.0,0.0,0.0,0.0,0.0,0.0,0.0,0.0,0.0,0.0,0.0,0.0,0.0,-1.1378,-1.1797,-1.2482,-1.2776,-1.3009,-1.3232,-1.3558,-1.3732,-1.3651,-1.3732,-1.383,-1.3928,-1.3765,-1.3792,-1.408,0.0,0.0,0.0,0.0,-1.6563,-1.7168,-1.7026,-1.6802,-1.6497,-1.6497,-1.6347,-1.6083,-1.6573,-1.7848,-1.9692,-2.1707,-2.3632,-2.5509,-2.6558,-2.6918,-2.6761,-2.6114,-2.5697,-2.5216,-2.4492,-2.4634,0.0,0.0,0.0,0.0,-2.6386,-2.6199,-2.5905,-2.5598,-2.5678,-2.5745,-2.5184,-2.5611,-2.6066,-2.5277,-2.5277,-2.5317,-2.477,-2.4636,-2.4543,-2.4222,-2.4182,-2.4102,-2.3741,-2.346,-2.326,-2.318,-2.2512,-2.2071,-2.2338,-2.1657,0.0,-2.1574,-2.1641,-2.1496,-2.1243,0.0,0.0,-2.1189,-2.0855,-2.0535,-2.0201,-1.9639,-1.9065,-1.8517,-1.8209,-1.8075,-1.8049,-1.9289,-1.9419,-1.8271,-2.0702,-2.2107,-2.2547,-2.458,-2.6361,0.0,0.0,0.0,0.0,0.0,0.0,0.0,0.0,0.0,0.0,0.0,0.0,0.0,0.0,0.0,-1.1302,-1.1835,-1.233,-1.2759,-1.302,-1.3227,-1.3368,-1.3537,-1.3705,-1.3874,-1.3825,-1.3798,-1.3819,-1.395,-1.3983,-1.3863,-1.4627,-1.5231,-1.5705,-1.6207,-1.6615,-1.7026,-1.687,-1.6646,-1.6347,0.0,0.0,-1.6182,-1.9602,-2.1361,-2.193,-2.5213,-2.6934,-2.7251,-2.6857,-2.6206,-2.5446,-2.5456,-2.5047,-2.4444,-2.4706,-2.4889,-2.513,-2.5514,-2.599,-2.6386,-2.6386,-2.6199,-2.5905,-2.5598,-2.5384,0.0,-2.4823,-2.5024,-2.5291,-2.5117,-2.5117,-2.5077,-2.4716,-2.4636,-2.4489,-2.3968,-2.4035,-2.3968,-2.3193,-2.2993,-2.2806,-2.2325,-2.2098,-2.2004,-2.2058,-2.1523,-2.1216,-2.1574,-2.1764,-2.1884,-2.1817,-2.2084,-2.2044,-2.1574,-2.0989,-2.0454,-1.992,-1.9332,-1.8851,-1.8504,-1.8664,-1.8637,-1.841,-1.8901,-1.9376,-1.987,-2.201,-2.3336,-2.3843,-2.47,-2.5953,0.0,0.0,0.0,0.0,0.0,0.0,0.0,0.0,0.0,0.0,0.0,-0.9845,-1.015,0.0,-1.1291,-1.19,-1.2199,-1.2482,-1.2835,-1.3042,-1.32,-1.3314,-1.3493,-1.3651,-1.377,-1.3787,-1.3814,-1.3868,-1.3983,-1.4048,-1.4053,-1.4919,-1.5404,-1.5595,-1.6205,-1.6656,-1.6754,-1.6673,-1.6524,-1.6307,-1.6307,-1.6232,-1.6175,-1.9224,-2.1119,-2.2257,-2.4891,-2.6666,-2.7546,-2.6616,-2.5687,-2.4842,-2.4842,-2.4516,-2.4045,-2.4287,-2.4523,-2.4891,-2.5289,-2.5661,-2.5858,-2.6094,-2.5879,-2.5491,-2.5344,-2.509,-2.4796,-2.4502,-2.4636,-2.4756,-2.4315,-2.4422,-2.4569,-2.4275,-2.4315,-2.4342,-2.4048,-2.3875,-2.3581,-2.2979,-2.2686,-2.2325,-2.2031,-2.1871,-2.1764,-2.1764,-2.139,-2.1162,-2.1309,-2.1456,-2.155,-2.155,-2.1683,-2.1643,-2.1349,-2.0788,-2.0267,-1.9826,-1.9252,-1.8865,-1.8718,-1.8704,-1.8637,-1.849,-1.8771,-1.9052,-1.9415,-2.0419,-2.1292,-2.1973,-2.2957,-2.4752,0.0,0.0,0.0,0.0,0.0,0.0,0.0,-0.8954,-0.9269,-0.965,-1.0112,-1.0601,-1.1112,-1.1378,-1.1743,-1.2422,-1.2493,-1.2558,-1.2846,-1.2993,-1.3113,-1.3227,-1.3412,-1.3542,-1.3564,-1.3678,-1.3798,-1.3917,-1.3966,-1.4195,-1.4392,-1.5073,-1.5527,-1.5634,-1.6289,-1.6673,-1.6524,-1.649,-1.6408,-1.6266,-1.6661,-1.6792,-1.6765,-1.9069,-2.1011,-2.2586,-2.4249,-2.5742,-2.7111,-2.6146,-2.5313,-2.4589,-2.4287,-2.4033,-2.384,-2.392,-2.4252,-2.4652,-2.513,-2.5334,-2.5478,-2.5881,-2.5558,-2.5077,-2.5077,-2.4836,-2.4489,-2.4195,-2.4289,-2.4302,-2.3594,-2.3808,-2.4155,-2.3981,-2.4115,-2.4275,-2.4209,-2.3834,-2.3354,-2.2873,-2.2445,-2.2084,-2.1857,-2.167,-2.1614,-2.1614,-2.1296,-2.1109,-2.1109,-2.1162,-2.1176,-2.1122,-2.1162,-2.1149,-2.1029,-2.0588,-2.0174,-1.9826,-1.9359,-1.9065,-1.9011,-1.8784,-1.8637,-1.8584,-1.8811,-1.8758,-1.841,-1.8892,-1.9422,-1.9993,-2.1667,-2.3809,-0.6282,-0.6853,-0.8044,-0.859,-0.8709,-0.8927,0.0,-0.9873,-1.003,-1.0503,-1.0982,-1.1368,-1.1542,-1.2025,-1.2422,-1.252,-1.27,-1.2841,-1.2884,-1.2993,-1.3113,-1.3227,-1.3259,-1.3319,-1.3433,-1.3553,-1.3673,-1.3798,-1.3999,-1.4349,-1.4919,-1.5325,-1.5776,-1.6309,-1.6551,-1.6673,-1.6524,-1.6395,-1.6259,-1.611,-1.797,-1.8845,-1.9018,-2.2906,-2.4735,-2.4801,-2.6422,-2.6743,-2.6303,-2.5723,-2.5144,-2.4576,-2.4001,-2.3796,-2.3852,-2.4252,-2.4652,-2.513,-2.5594,-2.5806,-2.5959,-2.5959,-2.5558,-2.5077,-2.5077,-2.469,-2.4195,-2.3901,-2.3848,-2.3848,-2.3754,-2.3955,-2.4262,-2.4489,-2.4569,-2.4516,-2.4262,-2.4155,-2.3781,-2.2686,-2.2632,-2.2432,-2.139,-2.1403,-2.1614,-2.1614,-2.1296,-2.1109,-2.1109,-2.1336,-2.1403,-2.1136,-2.1349,-2.136,-2.0775,-2.0668,-2.0388,-1.984,-1.9733,-1.9586,-1.9332,-1.935,-1.9145,-1.8878,-1.8905,-1.8595,-1.8035,-2.0372,-2.1258,-2.0854,-2.3305,-2.4284,-0.7657,-0.792,-0.8448,-0.8791,-0.903,-0.9334,-0.9894,-1.0237,-1.0574,-1.1058,-1.1596,-1.2015,-1.2134,-1.2417,-1.2683,-1.2825,-1.2808,-1.283,-1.2971,-1.2977,-1.2933,-1.2841,-1.295,-1.3194,-1.3597,-1.3743,-1.3863,-1.3983,-1.408,-1.436,-1.5018,-1.5368,-1.5754,-1.6199,-1.649,-1.6544,-1.6402,-1.7443,-1.7916,-1.7947,-1.9995,-2.0969,-2.1067,-2.3962,-2.5732,-2.6491,-2.6818,-2.6592,-2.5953,-2.5421,-2.489,-2.4359,-2.3904,-2.3937,-2.4057,-2.4061,-2.4172,-2.4387,-2.5005,-2.5075,-2.5048,-2.5352,-2.5157,-2.4823,-2.4823,-2.4529,-2.4182,-2.4062,-2.3901,-2.3768,-2.3768,-2.3861,-2.4022,-2.4315,-2.4382,-2.4396,-2.4449,-2.4048,-2.3541,-2.3046,-2.2619,-2.2191,-2.171,-2.1724,-2.1804,-2.1804,-2.1403,-2.1109,-2.1109,-2.1216,-2.1243,-2.1122,-2.1376,-2.1454,-2.0962,-2.0615,-2.0307,-2.0067,-1.9893,-1.9746,-1.9626,-1.9626,-1.9559,-1.9439,-1.9105,-1.8798,-1.8557,-1.9924,-2.062,-2.0598,-2.2535,-2.3388,-0.8579,-0.8773,-0.8973,-0.9394,-0.9832,-1.021,-1.0583,-1.0969,-1.144,-1.1922,-1.2354,-1.2593,-1.2748,-1.2721,-1.2738,-1.2982,-1.2873,-1.2808,-1.295,-1.2895,-1.2765,-1.2558,-1.2656,-1.2966,-1.3537,-1.3694,-1.3836,-1.4026,-1.401,-1.4347,-1.5184,-1.5301,-1.5648,-1.64,-1.6413,-1.6692,-1.7264,-1.8543,-1.9511,-2.0094,-2.2144,-2.3218,-2.3209,-2.5056,-2.6453,-2.7498,-2.6822,-2.6254,-2.5784,-2.518,-2.4661,-2.4214,-2.3868,-2.388,-2.4094,-2.376,-2.3828,-2.4153,-2.4677,-2.4648,-2.447,-2.5037,-2.4943,-2.4636,-2.4636,-2.4489,-2.4302,-2.4222,-2.4048,-2.3875,-2.3794,-2.3834,-2.3941,-2.4155,-2.4209,-2.4262,-2.4476,-2.3955,-2.3394,-2.3233,-2.2739,-2.2271,-2.2031,-2.1991,-2.1964,-2.1949,-2.143,-2.1136,-2.1216,-2.1162,-2.1149,-2.1229,-2.1349,-2.1336,-2.1122,-2.0641,-2.0321,-2.0241,-1.996,-1.98,-1.98,-1.972,-1.9679,-1.9679,-1.9185,-1.8878,-1.8811,-1.9493,-2.0121,-2.0792,-2.2149,-2.3083,-0.8981,-0.9369,-0.9853,-1.0865,-1.142,-1.1832,-1.2154,-1.2661,-1.3089,-1.323,-1.3128,-1.3199,-1.3441,-1.2906,-1.2618,-1.2857,-1.289,-1.2841,-1.2732,-1.2716,-1.2667,-1.2547,-1.2439,-1.2558,-1.3047,-1.3194,-1.3412,-1.377,-1.3689,-1.4254,-1.5578,-1.5093,-1.5497,-1.7175,-1.6476,-1.7221,-1.9533,-1.9287,-2.0192,-2.2242,-2.4386,-2.5367,-2.5453,-2.7003,-2.7718,-2.7739,-2.6689,-2.6073,-2.5771,-2.4963,-2.448,-2.4214,-2.3868,-2.3772,-2.3748,-2.3483,-2.4031,-2.492,-2.5059,-2.4983,-2.4969,-2.5352,-2.5104,-2.4636,-2.4636,-2.4549,-2.4569,-2.4289,-2.4195,-2.4128,-2.3848,-2.3981,-2.4195,-2.4195,-2.4209,-2.4209,-2.4209,-2.3981,-2.3581,-2.3062,-2.31,-2.3006,-2.2138,-2.1991,-2.1963,-2.1746,-2.1373,-2.1216,-2.1561,-2.1283,-2.1216,-2.1574,-2.1296,-2.1122,-2.1109,-2.0828,-2.0535,-2.0193,-1.996,-1.98,-1.98,-1.9533,-1.9386,-1.9386,-1.9078,-1.8784,-1.8504,-1.9552,-2.0723,-2.191,-2.3031,-2.4018,-0.9355,-0.9906,-1.0737,-1.1395,-1.1709,-1.201,-1.2423,-1.2753,-1.301,-1.3224,-1.2877,-1.2541,-1.2708,-1.2523,-1.2537,-1.304,-1.3372,-1.3633,-1.3626,-1.353,-1.3088,-1.2431,-1.2401,-1.2477,-1.2471,-1.2868,-1.3276,-1.364,-1.3869,-1.4359,-1.5289,-1.5349,-1.6482,-1.8785,-1.8513,-1.9359,-2.1568,-2.2777,-2.3706,-2.4484,-2.655,-2.7538,-2.7515,-2.777,-2.7811,-2.7739,-2.6496,-2.5808,-2.5506,-2.4697,-2.4214,-2.3973,-2.3796,-2.3868,-2.3989,-2.3724,-2.3908,-2.4209,-2.4196,-2.424,-2.4276,-2.4759,-2.4796,-2.4636,-2.4636,-2.4636,-2.4609,-2.4516,-2.4489,-2.4462,-2.4369,-2.4422,-2.4489,-2.4489,-2.4342,-2.4209,-2.4209,-2.3906,-2.3504,-2.3207,-2.3086,-2.2926,-2.2619,-2.2565,-2.2472,-2.199,-2.143,-2.1149,-2.1243,-2.151,-2.1577,-2.1296,-2.1523,-2.1456,-2.0869,-2.0548,-2.0254,-1.996,-1.9853,-1.988,-2.008,-2.0,-1.9947,-1.9947,-1.9466,-1.9078,-1.8771,-1.9651,-2.046,-2.1163,-2.2844,-2.3876,-1.0266,-1.0928,-1.1745,-1.2464,-1.2708,-1.2828,-1.3191,-1.3343,-1.3432,-1.3413,-1.2896,-1.2424,-1.2507,-1.2237,-1.2149,-1.2794,-1.3186,-1.3358,-1.3586,-1.3359,-1.2976,-1.2371,-1.2373,-1.2444,-1.2368,-1.2908,-1.3357,-1.3537,-1.3934,-1.4426,-1.5153,-1.6137,-1.761,-1.9642,-2.0208,-2.1497,-2.3651,-2.4901,-2.5862,-2.6647,-2.7829,-2.8475,-2.8451,-2.792,-2.757,-2.7329,-2.6182,-2.5482,-2.5096,-2.4383,-2.3997,-2.376,-2.376,-2.3949,-2.3977,-2.3724,-2.3647,-2.3581,-2.3995,-2.3947,-2.3908,-2.4552,-2.4716,-2.4636,-2.4636,-2.4636,-2.4609,-2.4516,-2.4556,-2.4596,-2.4382,-2.4476,-2.4583,-2.4382,-2.4182,-2.4022,-2.3915,-2.3584,-2.3249,-2.3166,-2.2993,-2.2928,-2.2928,-2.2916,-2.2619,-2.1833,-2.1356,-2.1115,-2.1115,-2.1432,-2.1577,-2.1296,-2.151,-2.1403,-2.0735,-2.0401,-2.0107,-1.9813,-1.9706,-1.9773,-2.0067,-1.9987,-1.9973,-2.008,-1.9613,-1.9279,-1.9078,-1.9598,-2.0215,-2.0908,-2.2622,-2.3661,-1.1644,-1.231,-1.2943,-1.386,-1.419,-1.4292,-1.4299,-1.4285,-1.4177,-1.3871,-1.3252,-1.2797,-1.2778,-1.1979,-1.171,-1.2459,-1.2361,-1.2379,-1.2899,-1.2701,-1.2576,-1.2464,-1.2464,-1.2552,-1.2765,-1.3187,-1.3534,-1.3661,0.0,-1.447,-1.5581,-1.7419,-1.8964,-2.0006,-2.156,-2.3512,-2.5809,-2.568,-2.6647,-2.862,-2.8343,-2.8198,-2.8186,-2.7642,-2.7123,-2.6592,-2.5771,-2.512,-2.4589,-2.4057,-2.376,-2.376,-2.376,-2.376,-2.3736,-2.3483,-2.3297,-2.3259,-2.4362,-2.4316,-2.3908,-2.475,-2.4863,-2.4636,-2.4636,-2.4636,-2.4583,-2.4302,-2.4422,-2.4516,-2.3955,-2.4222,-2.4502,-2.3941,-2.3794,-2.3688,-2.3407,-2.3086,-2.2928,-2.2928,-2.2928,-2.2928,-2.2928,-2.2849,-2.2485,-2.1371,-2.115,-2.1109,-2.1109,-2.1104,-2.1243,-2.1574,-2.1309,-2.1015,-2.0681,-2.0401,-2.0107,-1.98,-1.9519,-1.9492,-1.9786,-1.9546,-1.9533,-1.98,-1.9546,-1.9457,-1.943,-1.943,-1.9996,-2.1117,-2.2353,-2.334,-1.2305,-1.2999,-1.3846,-1.4306,-1.4265,-1.4156,-1.4272,-1.4041,-1.3715,-1.3403,-1.2642,-1.194,-1.1721,-1.1862,-1.2223,-1.3009,-1.3861,-1.4448,-1.4737,-1.4757,-1.4471,-1.3776,-1.3441,-1.3349,-1.3608,-1.3485,-1.3659,-1.4476,-1.48,-1.5724,-1.7595,-1.8548,-2.0522,-2.3866,-2.4448,-2.5701,-2.7836,-2.7862,-2.8031,-2.862,-2.8343,-2.8198,-2.8186,-2.7461,-2.6954,-2.658,-2.5578,-2.4951,-2.4589,-2.4057,-2.376,-2.376,-2.376,-2.376,-2.376,-2.3688,-2.3575,-2.3436,-2.4359,-2.4189,-2.3627,-2.4446,-2.4703,-2.4636,-2.4636,-2.4636,-2.4623,-2.4543,-2.4583,-2.4609,-2.4449,-2.4529,-2.4596,-2.4449,-2.4088,-2.3754,-2.3674,-2.3233,-2.2928,-2.2928,-2.2928,-2.2928,-2.2928,-2.2619,-2.2472,-2.2472,-2.1949,-2.1472,-2.1109,-2.1371,-2.1474,-2.1256,-2.155,-2.1376,-2.0428,-2.0281,-2.0013,-1.9506,-1.947,-1.9492,-1.9786,-1.9933,-1.9947,-1.98,-1.9947,-1.98,-1.943,-1.943,-1.9533,-1.988,-2.1117,-2.1922,-1.3144,-1.3806,-1.4407,-1.457,-1.4434,-1.4204,-1.396,-1.3614,-1.3193,-1.2684,-1.2065,-1.153,-1.1299,-1.1577,-1.2099,-1.2893,-1.3654,-1.4369,-1.4996,-1.4979,-1.4774,-1.4367,-1.418,-1.4099,-1.4244,-1.5073,-1.5906,-1.6496,-1.6595,-1.721,-1.8603,-2.0729,-2.3023,-2.5464,-2.6357,-2.7442,-2.862,-2.85,-2.8439,-2.8439,-2.8041,-2.786,-2.7836,-2.7039,-2.6472,-2.6061,0.0,-2.4637,-2.4263,-2.388,-2.376,-2.376,-2.376,-2.376,-2.376,-2.376,-2.3599,-2.3351,-2.4196,-2.4036,-2.3538,-2.4486,-2.4743,-2.4636,-2.4636,-2.4636,-2.4609,-2.4476,-2.4543,-2.4609,-2.4476,-2.4543,-2.4569,-2.4315,-2.4008,-2.3701,-2.3434,-2.3207,-2.3073,-2.3073,-2.2953,-2.2928,-2.2928,-2.2726,-2.2619,-2.2849,-2.2525,-2.2082,-2.17,-2.1515,-2.1405,-2.1366,-2.148,-2.1283,-2.0494,-2.0307,-2.004,-1.9586,-1.9497,-1.9497,-1.9599,-1.9773,-1.9773,-1.9613,-1.9773,-1.9693,-1.943,-1.943,-1.943,-1.943,-2.0673,-2.143,-1.4027,-1.4516,-1.4821,-1.478,-1.4638,-1.4312,-1.3546,-1.3125,-1.2684,-1.1925,-1.1552,-1.1307,-1.1138,-1.128,-1.1728,-1.2664,-1.2979,-1.3497,-1.4659,-1.4545,-1.4415,-1.4651,-1.48,-1.488,-1.4861,-1.7149,-1.8636,-1.8636,-1.9091,-1.9519,-1.9856,-2.3401,-2.5658,-2.5862,-2.7634,-2.862,-2.862,-2.8343,-2.8198,-2.8198,-2.7667,-2.7425,-2.7389,-2.6556,-2.5904,-2.5409,0.0,0.0,-2.376,-2.376,-2.376,-2.376,-2.376,-2.376,-2.376,-2.376,-2.355,-2.3295,-2.4033,-2.3909,-2.3653,-2.4732,-2.485,-2.4636,-2.4636,-2.4636,-2.4583,-2.4329,-2.4436,-2.4583,-2.4329,-2.4449,-2.4502,-2.3955,-2.3794,-2.3621,-2.31,-2.3193,-2.338,-2.334,-2.3113,-2.2926,-2.2913,-2.2886,-2.2928,-2.2928,-2.2917,-2.2795,-2.2418,-2.1685,-2.1333,-2.1674,-2.142,-2.1056,-2.0655,-2.0374,-2.0094,-1.976,-1.9506,-1.943,-1.943,-1.9399,-1.947,-1.943,-1.9457,-1.947,-1.943,-1.943,-1.943,-1.943,-2.05,-2.1131,-1.4855,-1.514,-1.5235,-1.4991,-1.4719,-1.4285,-1.341,-1.2888,-1.2372,-1.1619,-1.1328,-1.1118,-1.0846,-1.1226,-1.1952,-1.3098,-1.3597,-1.4365,-1.568,-1.579,-1.5724,-1.5778,-1.5509,-1.5447,-1.5831,-1.7382,-1.8655,-1.9058,-2.2359,-2.4269,-2.4335,-2.5055,-2.6249,-2.8031,-2.8428,-2.862,-2.862,-2.8343,-2.8198,-2.8198,-2.7667,-2.7425,-2.7389,-2.6363,-2.5723,-2.5397,-2.4637,0.0,-2.376,-2.376,-2.376,-2.376,-2.376,-2.376,-2.376,-2.376,-2.3792,-2.3751,-2.4384,-2.4405,-2.4138,-2.4552,-2.4676,-2.4636,-2.4636,-2.4636,-2.4623,-2.4569,-2.4596,-2.4623,-2.4569,-2.4596,-2.4556,-2.4209,-2.3941,-2.3741,-2.3634,-2.3661,-2.3621,-2.338,-2.3287,-2.3164,-2.2928,-2.2881,-2.2928,-2.2928,-2.2917,-2.2875,-2.2808,-2.2218,-2.178,-2.1601,-2.1762,-2.1416,-2.0401,-2.0207,-2.0,-1.9479,-1.9457,-1.943,-1.943,-1.9599,-1.9613,-1.943,-1.9671,-1.9671,-1.943,-1.943,-1.943,-1.943,-1.9591,-1.9754,-1.5181,-1.5411,-1.5418,-1.4964,-1.4624,-1.4102,-1.2969,-1.242,-1.1938,-1.1192,-1.0982,-1.0887,-1.0744,-1.1145,-1.1789,-1.2678,-1.3132,-1.3844,-1.5194,-1.5384,-1.5527,-1.5913,-1.5897,-1.635,-1.7558,-1.9405,-2.096,-2.234,-2.5249,-2.6444,-2.5377,-2.6348,-2.7329,-2.8403,-2.8548,-2.862,-2.862,-2.821,-2.8005,-2.7993,-2.7461,-2.7148,-2.6979,-2.6049,-2.5482,-2.5192,-2.4383,0.0,-2.376,-2.376,-2.376,-2.376,-2.376,-2.376,-2.376,-2.376,-2.3676,-2.3678,-2.4025,-2.4059,-2.3985,-2.4249,-2.4414,-2.4636,-2.4636,-2.4636,-2.4636,-2.4636,-2.4636,-2.4636,-2.4636,-2.4636,-2.4569,-2.4275,-2.3981,-2.3768,-2.3768,-2.3768,-2.3768,-2.3781,-2.3541,-2.3257,-2.3104,-2.299,-2.2928,-2.2928,-2.2889,-2.2876,-2.2876,-2.2645,-2.2351,-2.1988,-2.1842,-2.1537,-2.0962,-2.0494,-2.0107,-1.984,-1.9533,-1.943,-1.943,-1.9506,-1.9506,-1.943,-1.9564,-1.9564,-1.943,-1.943,-1.943,-1.943,-1.943,-1.9377,-1.5343,-1.5594,-1.5581,-1.495,-1.4563,-1.3987,-1.2603,-1.2054,-1.1619,-1.0873,-1.0717,-1.0717,-1.0717,-1.1009,-1.1463,-1.2135,-1.2433,-1.3078,-1.4496,-1.4719,-1.5018,-1.5764,-1.6376,-1.7452,-1.9018,-2.1459,-2.3686,-2.5303,-2.7059,-2.7298,-2.571,-2.7309,-2.8174,-2.8125,-2.8391,-2.8475,-2.8367,-2.7944,-2.7703,-2.7642,-2.722,-2.6858,-2.652,-2.5784,-2.5264,-2.4831,-2.4085,0.0,0.0,-2.376,-2.376,-2.376,-2.376,-2.376,-2.376,-2.376,-2.3604,-2.3418,-2.3516,-2.3629,-2.3732,-2.3913,-2.4267,-2.4636,-2.4636,-2.4636,-2.4636,-2.4636,-2.4636,-2.4636,-2.4636,-2.4636,-2.4569,-2.4275,-2.3981,-2.3768,-2.3768,-2.3821,-2.3928,-2.4155,-2.3834,-2.35,-2.3434,-2.3166,-2.3008,-2.2941,-2.2928,-2.2928,-2.2928,-2.2928,-2.274,-2.2364,-2.1961,-2.1641,-2.144,-2.0735,-2.0267,-2.0147,-1.972,-1.9439,-1.943,-1.943,-1.943,-1.943,-1.943,-1.943,-1.943,-1.943,-1.943,-1.943,-1.943,-1.943,-1.5533,-1.5825,-1.5866,-1.5133,-1.4719,-1.4109,-1.263,-1.2054,-1.1619,-1.0873,-1.0717,-1.0717,-1.0717,-1.0751,-1.107,-1.1945,-1.2108,-1.2684,-1.4306,-1.4652,-1.5018,-1.5764,-1.7644,-1.9018,-1.9216,-2.2828,-2.5185,-2.5163,-2.6631,0.0,-2.7543,-2.7983,-2.8101,-2.786,-2.8101,-2.8017,-2.7534,-2.7486,-2.7341,-2.7099,-2.7051,-2.6761,-2.6242,-2.5687,-2.5156,-2.4637,-2.4001,0.0,0.0,-2.376,-2.376,-2.376,-2.376,-2.376,-2.376,-2.376,-2.3604,-2.3418,-2.3516,-2.3476,-2.3354,-2.3825,-2.4267,-2.4636,-2.4636,-2.4636,-2.4636,-2.4636,-2.4636,-2.4636,-2.4636,-2.4636,-2.4569,-2.4275,-2.3981,-2.3768,-2.3768,-2.3981,-2.4168,-2.4195,-2.4155,-2.4035,-2.3781,-2.3571,-2.3346,-2.2981,-2.2928,-2.2928,-2.2928,-2.2928,-2.2739,-2.2418,-2.2124,-2.1617,-2.0828,-2.0681,-2.0414,-1.9867,-1.9786,-1.9639,-1.943,-1.943,-1.943,-1.943,-1.943,-1.943,-1.943,-1.943,-1.943,-1.943,-1.943,-1.943,-1.5235,-1.5649,-1.5764,-1.5018,-1.4401,-1.3682,-1.2549,-1.1843,-1.1294,-1.0819,-1.0717,-1.0717,-1.0717,-1.0717,-1.0867,-1.1321,-1.1314,-1.1674,-1.2868,-1.3166,-1.3709,-1.4903,-1.7124,-1.9196,-2.0916,-2.3585,-2.5586,-2.6432,-2.7071,0.0,-2.7123,-2.751,-2.7751,-2.7811,-2.7908,-2.7872,-2.7655,-2.7498,-2.7292,-2.7027,-2.6701,-2.6266,-2.5735,-2.5192,-2.4745,-2.4371,-2.3928,0.0,0.0,-2.376,-2.376,-2.376,-2.376,-2.376,-2.3748,-2.3592,-2.3459,-2.3393,-2.3113,-2.3111,-2.3278,-2.3527,-2.3896,-2.4267,-2.4562,-2.4636,-2.4636,-2.4636,-2.4636,-2.4636,-2.4636,-2.4636,-2.4569,-2.4275,-2.4249,-2.4249,-2.4075,-2.4262,-2.4462,-2.4462,-2.4329,-2.4168,-2.4048,-2.3718,-2.344,-2.3319,-2.3062,-2.2928,-2.2928,-2.2928,-2.282,-2.2687,-2.2311,-2.1777,-2.1243,-2.0806,-2.05,-2.0347,-1.9854,-1.9555,-1.9639,-1.9466,-1.943,-1.943,-1.943,-1.943,-1.943,-1.943,-1.943,-1.943,-1.943,-1.943,-1.4652,-1.5181,-1.5445,-1.4828,-1.4143,-1.3397,-1.2494,-1.1742,-1.1131,-1.0792,-1.0717,-1.0717,-1.0717,-1.0717,-1.0758,-1.0799,-1.0759,-1.1084,-1.1945,-1.223,-1.2827,-1.4095,-1.6329,-1.884,-2.1687,-2.4314,-2.6276,-2.7357,-2.728,0.0,-2.6773,-2.6954,-2.7148,-2.7329,-2.7425,-2.7353,-2.7111,-2.7075,-2.6858,-2.6447,-2.6218,-2.5524,-2.4406,-2.4544,-2.4103,-2.3364,0.0,0.0,0.0,-2.376,-2.376,-2.376,-2.376,-2.376,-2.3736,-2.3471,-2.3327,-2.3261,-2.2814,-2.2824,-2.2953,-2.3216,-2.3525,-2.3896,-2.4267,-2.4488,-2.4636,-2.4636,-2.4636,-2.4636,-2.4636,-2.4636,-2.4583,-2.4382,-2.4422,-2.4476,-2.4356,-2.4422,-2.4529,-2.4549,-2.4476,-2.4302,-2.4136,-2.395,-2.3741,-2.3354,-2.306,-2.2928,-2.2928,-2.2928,-2.2902,-2.2916,-2.2391,-2.1936,-2.1641,-2.1162,-2.0793,-2.0681,-2.0066,-1.9761,-1.98,-1.9519,-1.943,-1.943,-1.943,-1.943,-1.943,-1.943,-1.943,-1.943,-1.943,-1.943,-1.3777,-1.4407,-1.4903,-1.459,-1.4068,-1.3397,-1.2494,-1.1823,-1.126,-1.0812,-1.0717,-1.0717,-1.0717,-1.0717,-1.0717,-1.0724,-1.0779,-1.1206,-1.1959,-1.2318,-1.2786,-1.3546,-1.5609,-1.8113,-2.0977,-2.5199,-2.7703,-2.7437,-2.6942,0.0,-2.7015,-2.652,-2.623,-2.623,-2.6508,-2.6266,-2.547,-2.5977,-2.5844,-2.4987,-2.559,-2.4458,-2.211,-2.3785,-2.3329,0.0,0.0,0.0,0.0,-2.376,-2.376,-2.376,-2.376,-2.376,-2.3736,-2.3471,-2.3285,-2.3084,-2.2818,-2.2564,-2.242,-2.2781,-2.3154,-2.3513,-2.3896,-2.4267,-2.4636,-2.4636,-2.4636,-2.4636,-2.4636,-2.4636,-2.4636,-2.4636,-2.4422,-2.4289,-2.4569,-2.4409,-2.4289,-2.4583,-2.4636,-2.4456,-2.409,-2.4368,-2.4225,-2.306,-2.2908,-2.2928,-2.2928,-2.2928,-2.2902,-2.2916,-2.2537,-2.2094,-2.1641,-2.1679,-2.1437,-2.0708,-2.0537,-2.0301,-1.9813,-1.9519,-1.943,-1.943,-1.943,-1.943,-1.943,-1.943,-1.943,-1.943,-1.943,-1.943,-1.2847,-1.3322,-1.3668,-1.337,-1.284,-1.2298,-1.1918,-1.1369,-1.0894,-1.0751,-1.0717,-1.0717,-1.0717,-1.0717,-1.0758,-1.0793,-1.0847,-1.1063,-1.1402,-1.297,-1.3891,-1.3535,-1.7491,-2.1558,-2.5101,-2.6733,-2.7437,-2.7172,0.0,0.0,-2.6218,-2.588,-2.594,-2.6484,-2.623,-2.5965,-2.5711,-2.5687,-2.547,-2.4963,-2.5023,-2.4437,-2.3528,-2.3923,0.0,0.0,0.0,0.0,0.0,-2.376,-2.376,-2.376,-2.376,-2.3652,-2.3471,-2.3273,-2.3007,-2.2818,-2.2552,-2.2406,-2.2334,-2.2781,-2.3005,-2.3154,-2.3822,-2.4267,-2.4636,-2.4636,-2.4636,-2.4636,-2.4636,-2.4636,-2.4636,-2.4636,-2.4569,-2.4529,-2.4609,-2.4569,-2.4529,-2.4549,-2.4636,-2.4536,-2.4429,-2.4507,-2.4453,-2.4154,-2.338,-2.2865,-2.2886,-2.2928,-2.2739,-2.231,-2.2258,-2.2164,-2.1871,-2.1483,-2.132,-2.1333,-2.0553,-2.0066,-2.0094,-1.9626,-1.943,-1.943,-1.943,-1.943,-1.943,-1.943,-1.943,-1.943,-1.943,-1.943,-1.206,-1.2494,-1.2793,-1.261,-1.2196,-1.1775,-1.1579,-1.1158,-1.0792,-1.0731,-1.0717,-1.0717,-1.0717,-1.0717,-1.0751,-1.0779,-1.0793,-1.0955,-1.1212,-1.33,-1.4934,-1.5383,-1.9535,-2.3268,-2.56,-2.6664,-2.716,-2.6906,0.0,0.0,-2.5699,-2.5325,-2.5361,-2.5868,-2.5554,-2.5325,-2.5228,-2.5168,-2.4951,-2.4506,-2.4516,-2.3926,-2.3086,-2.3591,0.0,0.0,0.0,0.0,0.0,-2.376,-2.376,-2.376,-2.3652,-2.3519,-2.3327,-2.3031,-2.2866,-2.2685,-2.243,-2.2334,-2.2334,-2.2558,-2.2856,-2.3228,-2.3822,-2.4267,-2.4636,-2.4636,-2.4636,-2.4636,-2.4636,-2.4636,-2.4609,-2.4502,-2.4556,-2.4609,-2.4489,-2.4556,-2.4636,-2.4636,-2.4636,-2.4636,-2.4636,-2.4634,-2.4624,-2.4602,-2.3658,-2.2921,-2.2886,-2.2928,-2.2752,-2.2378,-2.2017,-2.1872,-2.1859,-2.1692,-2.1528,-2.144,-2.0624,-2.0151,-2.018,-1.9786,-1.9479,-1.943,-1.943,-1.943,-1.943,-1.943,-1.943,-1.943,-1.943,-1.943,0.0,-1.1857,-1.2182,-1.2182,-1.1965,-1.1681,-1.1402,-1.1131,0.0,-1.0751,-1.0717,-1.0724,-1.0731,-1.0724,-1.0724,-1.0751,-1.0751,-1.0907,-1.1348,-1.3225,-1.572,-1.8976,-2.1715,-2.3414,-2.3387,-2.5565,-2.687,0.0,0.0,0.0,-2.5385,-2.4878,-2.4589,-2.4564,-2.4564,-2.4468,-2.4238,-2.4456,-2.4323,-2.3772,-2.4013,-2.3167,-2.1464,-2.3027,0.0,0.0,0.0,0.0,0.0,-2.376,-2.376,-2.3712,-2.3471,-2.3351,-2.3333,-2.2838,-2.2721,-2.2661,-2.2418,-2.2334,-2.2334,-2.2334,-2.2781,-2.3438,-2.3796,-2.4253,-2.4636,-2.4636,-2.4636,-2.4636,-2.4636,-2.4636,-2.4569,-2.4275,-2.4409,-2.4529,-2.4262,-2.4422,-2.4609,-2.4636,-2.4636,-2.4636,-2.4636,-2.4585,-2.4517,-2.4504,-2.3579,-2.2886,-2.2928,-2.2928,-2.2889,-2.2808,-2.1846,-2.1293,-2.1635,-2.197,-2.192,-2.1162,-2.0717,-2.0411,-2.018,-1.996,-1.9666,-1.943,-1.943,-1.943,-1.943,-1.943,-1.943,-1.943,-1.943,-1.943,-1.0894,0.0,-1.109,-1.109,-1.1036,-1.0962,0.0,-1.0826,-1.0765,-1.0724,-1.0717,-1.0758,-1.0806,-1.0799,-1.0792,-1.1023,-1.1056,-1.1179,-1.1518,-1.2895,-1.6221,-2.2804,-2.2448,-2.2591,-2.5003,-2.5958,0.0,0.0,0.0,-2.4963,-2.483,-2.4504,-2.4238,-2.3953,-2.4021,-2.4094,-2.4238,-2.4094,-2.388,-2.376,-2.382,-2.366,-2.3187,-2.36,0.0,0.0,0.0,0.0,-2.376,-2.376,-2.3652,-2.3459,-2.3399,-2.32,-2.2826,-2.2782,-2.26,-2.2418,-2.2283,-2.2334,-2.2334,-2.2334,-2.2632,-2.3042,-2.3197,-2.3862,-2.4636,-2.4636,-2.4636,-2.4636,-2.4636,-2.4636,-2.4569,-2.4275,-2.4249,-2.4289,-2.4222,-2.4262,-2.4369,-2.4596,-2.4636,-2.4636,-2.4636,-2.4256,-2.3864,-2.3398,-2.3056,-2.2892,-2.2886,-2.2928,-2.274,-2.2284,-2.1951,-2.1646,-2.1285,-2.132,-2.1424,-2.1507,-2.0962,-2.0535,-2.018,-1.996,-1.9666,-1.943,-1.943,-1.943,-1.943,-1.943,-1.943,-1.943,-1.943,-1.943,-1.0717,-1.0717,-1.0717,-1.0717,-1.0717,-1.0717,-1.0717,-1.0717,-1.0717,-1.0717,-1.0717,-1.0744,-1.0759,-1.0778,-1.0799,-1.1029,-1.1063,-1.1538,-1.2999,-1.4673,-1.779,-2.3236,-2.3403,-2.3754,0.0,0.0,0.0,0.0,0.0,-2.4613,-2.4456,-2.4202,-2.3904,-2.3772,-2.376,-2.3832,-2.4057,-2.3832,-2.376,-2.376,-2.376,-2.37,-2.3592,-2.3592,-2.3599,0.0,0.0,0.0,-2.3478,-2.3478,-2.3393,-2.3249,-2.3128,-2.2911,-2.2721,-2.2588,-2.2455,-2.2334,-2.2334,-2.2334,-2.2334,-2.2334,-2.2558,-2.2905,-2.2978,-2.3619,-2.4314,-2.4402,-2.4529,-2.4636,-2.4636,-2.4636,-2.4529,-2.4102,-2.4102,-2.4168,-2.4035,-2.4115,-2.4289,-2.4583,-2.4636,-2.4636,-2.4636,-2.413,-2.3628,-2.2989,-2.292,-2.2895,-2.2886,-2.2928,-2.2767,-2.2458,-2.1912,-2.1503,-2.1413,-2.1189,-2.1176,-2.1336,-2.1056,-2.081,-2.059,-2.0221,-1.98,-1.943,-1.943,-1.943,-1.943,-1.943,-1.943,-1.943,-1.943,-1.943,-1.0717,-1.0738,-1.0751,-1.0724,-1.0738,-1.0751,-1.0724,-1.0717,-1.0717,-1.0717,-1.0717,-1.0724,-1.0751,-1.0758,-1.0812,-1.0921,-1.1022,-1.215,-1.5236,-1.7102,-1.9331,-2.2547,-2.4159,0.0,-2.5553,0.0,0.0,0.0,0.0,-2.4178,-2.4178,-2.388,-2.3748,-2.37,-2.37,-2.37,-2.37,-2.37,-2.37,-2.37,-2.3744,-2.3611,-2.3315,-2.3315,-2.3261,0.0,0.0,0.0,-2.3121,-2.3121,-2.3097,-2.3036,-2.2818,-2.2697,-2.2636,-2.2418,-2.2334,-2.2334,-2.2334,-2.2334,-2.2334,-2.2334,-2.2558,-2.2769,-2.2806,-2.3339,-2.3905,-2.4057,-2.4336,-2.4636,-2.4636,-2.4636,-2.4489,-2.3915,-2.3955,-2.4075,-2.3821,-2.3968,-2.4235,-2.4569,-2.4636,-2.4623,-2.4583,-2.4128,-2.3599,-2.3067,-2.2902,-2.2928,-2.2928,-2.2928,-2.2902,-2.2916,-2.1925,-2.1346,-2.1577,-2.1283,-2.1109,-2.1109,-2.1109,-2.1038,-2.0978,-2.0456,-1.992,-1.943,-1.943,-1.943,-1.943,-1.943,-1.943,-1.943,-1.943,-1.943,-1.0717,-1.0745,-1.0813,-1.0751,-1.0819,-1.0813,-1.0751,-1.0717,-1.0717,-1.0717,-1.0717,-1.0758,-1.082,-1.0847,-1.1002,-1.128,-1.1755,-1.3513,-1.7529,-1.7355,-1.869,-2.3737,0.0,-2.3679,0.0,0.0,0.0,0.0,0.0,-2.382,-2.382,-2.3784,-2.3664,-2.3447,-2.3435,-2.3435,-2.3435,-2.3435,-2.3435,-2.3435,-2.3273,-2.3218,-2.3181,-2.3181,-2.3157,0.0,0.0,-2.3121,-2.3121,-2.3121,-2.2988,-2.2782,-2.2745,-2.2588,-2.2394,-2.2358,-2.2334,-2.2334,-2.2334,-2.2334,-2.2334,-2.2334,-2.2334,-2.2372,-2.2436,-2.2965,-2.3536,-2.3619,-2.4116,-2.4636,-2.4636,-2.4636,-2.4489,-2.3915,-2.3808,-2.3821,-2.3781,-2.3808,-2.3995,-2.4529,-2.4636,-2.4556,-2.4315,-2.3995,-2.3688,-2.3434,-2.31,-2.2928,-2.2928,-2.2928,-2.2902,-2.2916,-2.2311,-2.1713,-2.1213,-2.1129,-2.1109,-2.1109,-2.1109,-2.0869,-2.0334,-2.0027,-1.9706,-1.943,-1.943,-1.943,-1.943,-1.943,-1.943,-1.943,-1.943,-1.943,-1.048,-1.0649,-1.0806,-1.0738,-1.0766,-1.084,-1.0758,-1.0717,-1.0717,-1.0717,-1.0717,-1.0765,-1.0853,-1.1077,-1.1341,-1.1803,-1.2311,-1.3654,-1.6441,-1.7119,-1.8736,0.0,0.0,0.0,0.0,0.0,0.0,0.0,0.0,0.0,-2.3556,0.0,-2.3357,-2.3237,-2.3237,-2.3237,-2.3237,-2.3092,-2.3164,-2.3375,-2.3176,-2.3048,-2.2903,-2.2903,-2.283,-2.2697,0.0,-2.2697,-2.2697,-2.2697,-2.2624,-2.2515,-2.2515,-2.2443,-2.2247,-2.2176,-2.2054,-2.2029,-2.1885,-2.1836,-2.186,-2.2005,-2.2054,-2.2128,-2.251,-2.294,-2.3296,-2.3689,-2.4129,-2.4436,-2.4596,-2.4396,-2.4102,-2.3834,-2.3647,-2.3581,-2.3741,-2.3768,-2.3941,-2.4529,-2.4516,-2.4356,-2.4222,-2.3834,-2.3487,-2.3423,-2.3142,-2.2928,-2.2928,-2.2928,-2.2887,-2.2903,-2.2471,-2.2003,-2.1646,-2.1299,-2.1109,-2.1109,-2.1109,-2.0842,-2.0193,-2.0107,-1.9826,-1.943,-1.943,-1.943,-1.943,-1.943,-1.943,-1.943,-1.943,-1.943,-1.0283,-1.0493,-1.0704,-1.0636,-1.0785,-1.0867,-1.0887,-1.088,-1.0887,-1.0921,-1.0928,-1.0955,-1.0968,-1.1321,-1.1721,-1.225,-1.2718,-1.3785,-1.586,-1.7322,-1.9234,-2.1838,-2.3155,0.0,0.0,0.0,0.0,0.0,0.0,0.0,-2.3375,0.0,-2.3097,-2.3024,-2.3024,-2.3,-2.2939,-2.2673,-2.2742,-2.3261,-2.2995,-2.283,-2.2636,-2.2636,-2.2491,-2.2249,-2.2249,-2.2249,-2.2249,-2.2249,-2.2211,-2.2334,-2.2334,-2.2297,-2.2138,-2.1873,-2.1776,-2.1752,-2.1547,-2.1474,-2.1523,-2.1788,-2.1824,-2.1898,-2.2608,-2.2865,-2.3066,-2.3715,-2.3984,-2.4088,-2.4436,-2.4209,-2.3834,-2.3701,-2.3487,-2.3394,-2.3621,-2.3661,-2.3821,-2.4329,-2.4249,-2.4075,-2.4008,-2.3634,-2.33,-2.3233,-2.302,-2.2928,-2.2928,-2.2928,-2.2928,-2.2928,-2.262,-2.2256,-2.1818,-2.1339,-2.1109,-2.1109,-2.1109,-2.0842,-2.0193,-2.0294,-2.0027,-1.9386,-1.9439,-1.9439,-1.943,-1.943,-1.943,-1.943,-1.943,-1.943,-1.0283,-1.0493,-1.0656,-1.0378,-1.0629,-1.0948,-1.128,-1.1341,-1.1382,-1.1525,-1.1552,-1.1511,-1.1382,-1.1714,-1.2121,-1.2433,-1.2861,-1.446,-1.8211,0.0,-2.0271,-2.3951,0.0,0.0,0.0,0.0,0.0,0.0,0.0,0.0,-2.3363,0.0,0.0,-2.277,-2.2757,-2.2636,-2.2394,-2.2054,-2.2186,-2.2782,-2.244,-2.2382,-2.237,-2.237,-2.215,-2.1897,-2.1897,-2.1897,-2.1897,-2.1897,-2.2042,-2.2334,-2.2334,-2.2188,-2.1873,-2.1607,-2.151,-2.151,-2.1486,-2.1474,-2.1523,-2.1788,-2.1704,-2.1631,-2.2251,-2.2503,-2.2785,-2.3417,-2.3464,-2.3527,-2.4088,-2.4209,-2.4035,-2.3487,-2.334,-2.334,-2.3354,-2.3367,-2.3447,-2.3768,-2.3821,-2.3714,-2.3434,-2.3437,-2.3386,-2.3008,-2.2873,-2.2928,-2.2928,-2.2928,-2.2928,-2.2928,-2.2876,-2.2391,-2.1253,-2.1142,-2.1109,-2.1109,-2.1109,-2.0842,-2.0193,-2.0494,-2.0241,-1.9444,-1.9626,-1.9639,-1.943,-1.943,-1.943,-1.943,-1.943,-1.943,-0.9992,-1.0215,-1.0439,-1.0419,-1.0609,-1.0887,-1.1179,-1.1321,-1.1436,-1.1586,-1.1769,-1.1904,-1.1945,-1.2162,-1.2433,-1.2739,-1.3166,-1.4697,-1.8238,-1.8853,-2.0158,0.0,0.0,0.0,0.0,0.0,0.0,0.0,0.0,0.0,0.0,0.0,0.0,-2.2249,-2.2005,-2.142,-2.0348,-2.0247,-2.0303,-2.0558,-2.0382,-2.0874,-2.1776,-2.095,-2.0966,-2.1631,-2.18,-2.1776,-2.1631,-2.1631,-2.1679,-2.1776,-2.1776,-2.1716,-2.1595,-2.1317,-2.1221,-2.1197,-2.1028,-2.0979,-2.1016,-2.1353,-2.1293,-2.134,-2.2028,-2.2287,-2.2479,-2.3132,-2.3351,-2.346,-2.4048,-2.3794,-2.3367,-2.334,-2.318,-2.3086,-2.3287,-2.3327,-2.342,-2.3714,-2.3621,-2.346,-2.3423,-2.3249,-2.3075,-2.2954,-2.2928,-2.2928,-2.2928,-2.2928,-2.2928,-2.2928,-2.266,-2.2215,-2.1499,-2.1206,-2.1109,-2.1109,-2.1109,-2.0922,-2.0521,-2.0615,-2.0441,-1.992,-1.984,-1.984,-1.9907,-1.9546,-1.9466,-1.9626,-1.9511,-1.9466,-0.9822,-1.0012,-1.0229,-1.0324,-1.0534,-1.0833,-1.1274,-1.1491,-1.1674,-1.1918,-1.206,-1.2169,-1.2271,-1.2406,-1.2589,-1.2847,-1.3268,-1.4507,-1.7419,0.0,0.0,0.0,0.0,0.0,0.0,0.0,0.0,0.0,0.0,0.0,0.0,0.0,0.0,0.0,-2.1486,-2.0864,-1.9686,-1.9168,-1.8838,-1.8838,-1.7837,-1.8534,-2.074,-2.0393,-2.0336,-2.0696,-2.139,-2.151,-2.1341,-2.1341,-2.1402,-2.1474,-2.1378,-2.1341,-2.1317,-2.104,-2.0931,-2.0977,-2.0726,-2.0665,-2.0714,-2.105,-2.1074,-2.105,-2.1744,-2.1915,-2.2033,-2.2821,-2.3056,-2.316,-2.3723,-2.3474,-2.3033,-2.3153,-2.302,-2.2926,-2.314,-2.318,-2.3233,-2.3447,-2.3327,-2.318,-2.3263,-2.3075,-2.2928,-2.2928,-2.2928,-2.2928,-2.2928,-2.2928,-2.2819,-2.2657,-2.2285,-2.1936,-2.1499,-2.1206,-2.1109,-2.1109,-2.1109,-2.0975,-2.0681,-2.0762,-2.0628,-2.0241,-2.004,-1.9987,-2.0094,-1.9599,-1.9519,-1.98,-1.9599,-1.9653,-0.9822,-0.9869,-0.9984,-0.999,-1.0392,-1.0921,-1.166,-1.1952,-1.2189,-1.2637,-1.2494,-1.2291,-1.2298,-1.2413,-1.2556,-1.2705,-1.3105,-1.3969,-1.5761,0.0,0.0,0.0,0.0,0.0,0.0,0.0,0.0,0.0,0.0,0.0,0.0,0.0,0.0,0.0,-2.1197,-2.0919,-2.0665,-1.9003,-1.8114,-1.7955,-1.4868,-1.5402,-1.9246,-2.0729,-2.0445,-1.8899,-2.0403,-2.1052,-2.1122,-2.1122,-2.1221,-2.145,-2.116,-2.1122,-2.1098,-2.0832,-2.0665,-2.0665,-2.0665,-2.0665,-2.0714,-2.1038,-2.0953,-2.0783,-2.1389,-2.1418,-2.1408,-2.2523,-2.2532,-2.2444,-2.3107,-2.3327,-2.3247,-2.2939,-2.2928,-2.2928,-2.2928,-2.2928,-2.2928,-2.2928,-2.2928,-2.2928,-2.2928,-2.2928,-2.2928,-2.2928,-2.2928,-2.2928,-2.2859,-2.2859,-2.2657,-2.2069,-2.1846,-2.1503,-2.1136,-2.1129,-2.1109,-2.1109,-2.1109,-2.0975,-2.0695,-2.0962,-2.0842,-2.0193,-2.0241,-2.0094,-1.9813,-1.9519,-1.9533,-1.9813,-1.9813,-1.996,-0.9849,-0.9869,-1.0038,-1.031,-1.0622,-1.1077,-1.1823,-1.1945,-1.2088,-1.2759,-1.2651,-1.2508,-1.2725,-1.2705,-1.2712,-1.2868,-1.3085,-1.3924,0.0,0.0,0.0,0.0,0.0,0.0,0.0,0.0,0.0,0.0,0.0,0.0,0.0,0.0,0.0,0.0,-1.8564,-1.7697,-1.8518,-1.605,-1.5816,-1.7652,-1.4805,-1.4701,-1.7033,-1.6544,-1.7085,-1.8509,-1.9012,-1.9795,-2.0786,-2.0786,-2.0904,-2.0907,-2.0822,-2.0786,-2.0774,-2.0702,-2.0665,-2.0665,-2.0665,-2.0665,-2.0678,-2.0762,-2.0726,-2.0747,-2.0901,-2.1073,-2.1301,-2.1584,-2.1823,-2.2061,-2.2484,-2.2579,-2.2635,-2.2886,-2.2928,-2.2928,-2.2928,-2.2928,-2.2928,-2.2928,-2.2928,-2.2928,-2.2928,-2.2928,-2.2928,-2.2928,-2.2928,-2.2779,-2.2349,-2.1865,-2.168,-2.1766,-2.1477,-2.1344,-2.1407,-2.1206,-2.1109,-2.1109,-2.1109,-2.1069,-2.0989,-2.1069,-2.1029,-2.0855,-2.0655,-2.0601,-2.0722,-2.0227,-2.012,-2.0414,-2.0201,-2.0267,-0.9862,-0.9916,-1.0071,-1.0493,-1.0812,-1.1212,-1.1904,-1.2216,-1.2508,-1.303,-1.2895,-1.2759,-1.2996,-1.2922,-1.2868,-1.3024,-1.3119,-1.3608,-1.475,0.0,0.0,0.0,0.0,0.0,0.0,0.0,0.0,0.0,0.0,0.0,0.0,0.0,0.0,0.0,-1.6661,-1.5932,-1.667,-1.4311,-1.4042,-1.5721,-1.3435,-1.2985,-1.4151,-1.4579,-1.5617,-1.7282,-1.8476,-1.9518,-2.0364,-2.0364,-2.0412,-2.0509,-2.0509,-2.0581,-2.0665,-2.0665,-2.0665,-2.0665,-2.0665,-2.0665,-2.0665,-2.0665,-2.0665,-2.0665,-2.0665,-2.0873,-2.1012,-2.1138,-2.1346,-2.1622,-2.2035,-2.2173,-2.2379,-2.2791,-2.2928,-2.2928,-2.2928,-2.2928,-2.2928,-2.2928,-2.2928,-2.2928,-2.2928,-2.2928,-2.2819,-2.2699,-2.2592,-2.2364,-2.1965,-2.1645,-2.1528,-2.1621,-2.1435,-2.1354,-2.139,-2.1216,-2.1109,-2.1109,-2.1109,-2.1109,-2.1109,-2.1109,-2.1109,-2.1109,-2.0828,-2.0762,-2.0935,-2.0468,-2.0388,-2.0668,-2.0494,-2.0561,-0.995,-0.9997,-1.0118,-1.0629,-1.1002,-1.1487,-1.1972,-1.2637,-1.3173,-1.3308,-1.3139,-1.3003,-1.3146,-1.3057,-1.3003,-1.3132,-1.3152,-1.3152,-1.3152,0.0,0.0,0.0,0.0,0.0,0.0,0.0,0.0,0.0,0.0,0.0,0.0,0.0,0.0,-1.5634,-1.51,-1.4997,-1.5196,-1.3441,-1.2782,0.0,-1.146,-1.0893,-1.144,-1.4053,-1.5353,-1.5615,-1.8508,-1.9802,-1.9857,-1.9881,-2.0026,-2.0243,-2.0243,-2.0388,-2.0593,-2.0593,-2.0593,-2.0593,-2.0593,-2.0593,-2.0605,-2.0629,-2.0629,-2.0629,-2.0629,-2.0629,-2.0698,-2.1007,-2.1089,-2.1252,-2.1665,-2.2022,-2.2379,-2.2791,-2.2928,-2.2928,-2.2928,-2.2928,-2.2928,-2.2928,-2.2928,-2.2928,-2.2928,-2.2928,-2.2766,-2.2391,-2.2178,-2.1898,-2.1648,-2.1793,-2.183,-2.1614,-2.1574,-2.1403,-2.1136,-2.1109,-2.1109,-2.1109,-2.1109,-2.1109,-2.1109,-2.1109,-2.1109,-2.1109,-2.0855,-2.0722,-2.0722,-2.0441,-2.0454,-2.0722,-2.0722,-2.0855,-0.9977,-1.0141,-1.0337,-1.0718,-1.1477,-1.2108,-1.2352,-1.2623,-1.2834,-1.2868,-1.2922,-1.3003,-1.3146,-1.3057,-1.2969,-1.3003,-1.301,-1.301,0.0,0.0,0.0,0.0,0.0,0.0,0.0,0.0,0.0,0.0,0.0,0.0,0.0,0.0,0.0,-1.4974,-1.2612,-1.2458,-1.4667,-1.2099,-1.1971,0.0,-1.1596,-1.1041,-1.2269,-1.2015,-1.3141,-1.5281,-1.7347,-1.874,-1.9567,-1.9796,-1.9917,-1.9977,-1.9977,-2.0002,-2.005,-2.005,-2.005,-2.005,-2.005,-2.005,-2.0086,-2.0291,-2.0364,-2.0364,-2.0364,-2.0364,-2.0384,-2.0245,-2.0342,-2.0637,-2.1306,-2.1675,-2.2104,-2.2722,-2.2928,-2.2928,-2.2928,-2.2928,-2.2928,-2.2928,-2.2928,-2.2928,-2.2928,-2.2928,-2.2684,-2.2163,-2.2018,-2.1818,-2.1306,-2.1279,-2.1239,-2.1229,-2.1203,-2.1176,-2.1109,-2.1109,-2.1109,-2.1109,-2.1109,-2.1109,-2.1109,-2.1109,-2.1109,-2.1109,-2.1042,-2.1015,-2.1015,-2.0949,-2.0949,-2.1015,-2.1015,-2.1042,-0.9876,-1.0154,-1.0527,-1.1118,-1.1674,-1.2108,-1.2257,-1.2352,-1.2433,-1.2508,-1.2698,-1.2895,-1.3044,-1.301,-1.2935,-1.2861,-1.2786,0.0,0.0,0.0,0.0,0.0,0.0,0.0,0.0,0.0,0.0,0.0,0.0,0.0,0.0,-1.1962,-1.1851,-1.2609,-1.1138,-1.0968,-1.2469,-1.1031,-1.1031,-1.2469,-1.0968,-1.1119,-1.2556,-1.2041,-1.2954,-1.5073,-1.6699,-1.8145,-1.9289,-1.9434,-1.9567,-1.9688,-1.9688,-1.9772,-1.9881,-1.9881,-1.9881,-1.9881,-1.9881,-1.9881,-1.9905,-2.005,-2.0086,-2.0086,-2.0086,-2.0086,-2.0062,-1.9929,-1.9989,-2.0221,-2.0759,-2.1298,-2.1735,-2.2067,-2.2417,-2.2686,-2.2901,-2.2752,-2.2699,-2.2832,-2.2928,-2.2819,-2.2672,-2.2485,-2.2178,-2.1872,-2.1685,-2.1445,-2.1144,-2.1118,-2.1129,-2.1122,-2.1109,-2.1109,-2.1109,-2.1109,-2.1109,-2.1109,-2.1109,-2.1109,-2.1109,-2.1109,-2.1109,-2.1109,-2.1109,-2.1109,-2.1109,-2.1109,-2.1109,-2.1109,-2.1109,-2.1109,-0.9774,-1.0148,-1.0697,-1.1402,-1.1708,-1.1864,-1.1993,-1.202,-1.2054,-1.2155,-1.2406,-1.2664,-1.2813,-1.2827,-1.2766,-1.2637,0.0,0.0,0.0,0.0,0.0,0.0,0.0,0.0,0.0,0.0,0.0,0.0,0.0,0.0,-1.0202,-1.0229,-1.0229,-1.0202,-1.0202,-1.0202,-1.0202,-1.0202,-1.0202,-1.0202,-1.0236,-1.094,-1.2139,-1.2515,-1.3583,-1.5245,-1.6389,-1.7663,-1.8951,-1.8988,-1.9132,-1.9403,-1.9386,-1.9543,-1.9748,-1.9748,-1.9748,-1.9748,-1.9748,-1.9748,-1.9748,-1.9796,-1.982,-1.982,-1.982,-1.982,-1.9808,-1.976,-1.9784,-1.9875,-2.0273,-2.0806,-2.136,-2.1382,-2.1859,-2.2352,-2.2645,-2.2552,-2.2485,-2.2739,-2.2832,-2.282,-2.2405,-2.2016,-2.1681,-2.1692,-2.1373,-2.1109,-2.1109,-2.1109,-2.1109,-2.1109,-2.1109,-2.1109,-2.1109,-2.1109,-2.1109,-2.1109,-2.1109,-2.1109,-2.1109,-2.1109,-2.1109,-2.1109,-2.1109,-2.1109,-2.1109,-2.1109,-2.1109,-2.1109,-2.1109,-2.1109,-0.9605,-1.0154,-1.0806,-1.1301,-1.1626,-1.1837,-1.1857,-1.1864,-1.183,-1.1728,-1.1945,-1.2196,-1.2352,-1.2271,-1.2176,0.0,0.0,0.0,0.0,0.0,0.0,0.0,0.0,0.0,0.0,0.0,0.0,0.0,0.0,0.0,-0.9903,-1.0005,-0.9957,-0.9883,-0.9883,-0.9883,-0.9883,-0.9883,-0.9883,-0.9883,-0.9997,-1.0127,-1.0364,-1.1704,-1.3762,-1.635,-1.6308,-1.7092,-1.8408,-1.8638,-1.8758,-1.8807,-1.9036,-1.9157,-1.9181,-1.9181,-1.9181,-1.9181,-1.9181,-1.9181,-1.9217,-1.9446,-1.9519,-1.9519,-1.9519,-1.9519,-1.947,-1.9253,-1.935,-1.965,-1.9977,-2.0504,-2.105,-2.141,-2.1634,-2.175,-2.2044,-2.2271,-2.2432,-2.2472,-2.2686,-2.2767,-2.2364,-2.1977,-2.1765,-2.194,-2.1451,-2.1109,-2.1109,-2.1109,-2.1109,-2.1109,-2.1109,-2.1109,-2.1109,-2.1109,-2.1109,-2.1109,-2.1109,-2.1109,-2.1109,-2.1109,-2.1109,-2.1109,-2.1109,-2.1109,-2.1109,-2.1109,-2.1109,-2.1109,-2.1109,-2.1109,-0.9768,-1.0031,-1.0493,-1.1111,-1.1362,-1.1504,-1.1674,-1.1647,-1.1565,-1.1504,-1.1525,-1.1653,-1.1972,-1.1911,-1.1816,0.0,0.0,0.0,0.0,0.0,0.0,0.0,0.0,0.0,0.0,0.0,0.0,0.0,0.0,-1.0032,-0.9829,-0.9883,-0.9856,-0.9707,-0.97,-0.9659,-0.9578,-0.9659,-0.9741,-0.9822,-0.9936,-1.044,-1.1224,-1.1791,-1.3295,-1.5365,-1.5972,-1.6988,-1.83,-1.842,-1.8469,-1.8493,-1.8758,-1.8855,-1.8879,-1.9024,-1.9072,-1.9072,-1.9072,-1.9072,-1.9096,-1.9205,-1.9253,-1.9253,-1.9253,-1.9253,-1.9217,-1.9108,-1.9157,-1.937,-1.9693,-2.0086,-2.0522,-2.089,-2.1136,-2.1278,-2.1432,-2.1724,-2.1977,-2.2151,-2.2151,-2.2124,-2.1934,-2.1603,-2.1379,-2.1464,-2.1266,-2.1109,-2.1109,-2.1109,-2.1109,-2.1109,-2.1109,-2.1109,-2.1109,-2.1109,-2.1109,-2.1109,-2.1109,-2.1109,-2.1109,-2.1109,-2.1109,-2.1109,-2.1109,-2.1109,-2.1109,-2.1109,-2.1109,-2.1109,-2.1109,-2.1109,-0.9606,-0.9788,-1.008,-1.0677,-1.0968,-1.1172,-1.1396,-1.1389,-1.1321,-1.1287,-1.1185,-1.1212,-1.1545,-1.1552,0.0,0.0,0.0,0.0,0.0,0.0,0.0,0.0,0.0,0.0,0.0,0.0,0.0,0.0,0.0,-0.9863,-0.9822,-0.9788,-0.9734,-0.9666,-0.9591,-0.9517,-0.9442,-0.9551,-0.9659,-0.9768,-0.9856,-1.0479,-1.1517,-1.1789,-1.2527,-1.3757,-1.5371,-1.6853,-1.8094,-1.8155,-1.8227,-1.8324,-1.8589,-1.8722,-1.8794,-1.8927,-1.8976,-1.8963,-1.8903,-1.8915,-1.8963,-1.8903,-1.8963,-1.906,-1.9,-1.9024,-1.9072,-1.9072,-1.9072,-1.9136,-1.9392,-1.9656,-1.9961,-2.0272,-2.058,-2.0825,-2.1192,-2.1403,-2.1681,-2.183,-2.1764,-2.1681,-2.1534,-2.1323,-2.1203,-2.1122,-2.1109,-2.1109,-2.1109,-2.1109,-2.1109,-2.1109,-2.1109,-2.1109,-2.1109,-2.1109,-2.1109,-2.1109,-2.1109,-2.1109,-2.1109,-2.1109,-2.1109,-2.1109,-2.1109,-2.1109,-2.1109,-2.1109,-2.1109,-2.1109,-2.1109,-2.1109,-0.8898,-0.9306,-0.9673,-0.9849,-1.0426,-1.0894,-1.0914,-1.1084,-1.1138,-1.1002,-1.0894,-1.09,-1.0921,0.0,0.0,0.0,0.0,0.0,0.0,0.0,0.0,0.0,0.0,0.0,0.0,0.0,0.0,0.0,0.0,-0.9909,-0.9829,-0.9693,-0.968,-0.9802,-0.9537,-0.9456,-0.9598,-0.9605,-0.9612,-0.9618,-0.9768,-0.9836,-0.995,-1.114,-1.1752,-1.1957,-1.451,-1.6357,-1.7539,-1.7793,-1.8046,-1.8324,-1.8589,-1.8843,-1.9024,-1.8794,-1.871,-1.8674,-1.842,-1.8493,-1.8662,-1.8408,-1.8674,-1.9024,-1.8782,-1.8879,-1.9072,-1.9072,-1.9072,-1.9072,-1.9136,-1.9404,-1.966,-1.9647,-1.9915,-2.0387,-2.1341,-2.1601,-2.1614,-2.1641,-2.1777,-2.179,-2.1229,-2.1349,-2.1494,-2.1149,-2.1109,-2.1109,-2.1109,-2.1109,-2.1109,-2.1109,-2.1109,-2.1109,-2.1109,-2.1109,-2.1109,-2.1109,-2.1109,-2.1109,-2.1109,-2.1109,-2.1109,-2.1109,-2.1109,-2.1109,-2.1109,-2.1109,-2.1109,-2.1109,-2.1109,-2.1109,-0.8871,-0.8988,-0.9157,-0.9686,-1.0025,-1.0324,-1.0651,-1.0839,-1.0867,-1.0812,-1.0806,-1.0806,-1.0806,0.0,0.0,0.0,0.0,0.0,0.0,0.0,0.0,0.0,0.0,0.0,0.0,0.0,0.0,0.0,0.0,0.0,-0.9822,-0.9686,-0.9591,-0.9537,-0.9435,-0.9408,-0.9462,-0.9462,-0.951,-0.9612,-0.9754,-0.9822,-0.9822,-1.0293,-1.0898,-1.17,-1.3558,-1.5105,-1.636,-1.728,-1.7684,-1.7817,-1.8263,-1.8493,-1.8601,-1.8843,-1.8831,-1.8674,-1.8577,-1.8601,-1.8638,-1.8384,-1.865,-1.9024,-1.8758,-1.8867,-1.9072,-1.9072,-1.9072,-1.9072,-1.9072,-1.92,-1.9328,-1.9571,-1.9839,-2.0196,-2.0554,-2.095,-2.1269,-2.1269,-2.1349,-2.1363,-2.1149,-2.1203,-2.1229,-2.1122,-2.1109,-2.1109,-2.1109,-2.1109,-2.1109,-2.1109,-2.1109,-2.1109,-2.1109,-2.1109,-2.1109,-2.1109,-2.1109,-2.1109,-2.1109,-2.1109,-2.1109,-2.1109,-2.1296,-2.1296,-2.1109,-2.1109,-2.1109,-2.1109,-2.1109,-2.1109,-0.8798,-0.875,-0.8852,-0.9449,-0.9632,-0.9815,-1.0371,-1.0493,-1.0507,-1.0561,-1.0609,-1.0656,0.0,0.0,0.0,0.0,0.0,0.0,0.0,0.0,0.0,0.0,0.0,0.0,0.0,0.0,0.0,0.0,0.0,0.0,-0.9815,-0.9639,-0.9442,-0.9239,-0.9279,-0.9279,-0.9232,-0.9334,-0.9408,-0.9456,-0.9707,-0.9795,-0.9754,-0.9802,-1.0215,-1.0968,-1.2388,-1.3984,-1.5568,-1.6973,-1.7539,-1.766,-1.8118,-1.83,-1.8348,-1.8782,-1.8722,-1.8408,-1.8408,-1.8469,-1.8505,-1.8239,-1.8565,-1.9024,-1.8758,-1.8867,-1.9072,-1.9072,-1.9072,-1.9072,-1.9072,-1.9072,-1.9136,-1.9392,-1.9711,-1.9903,-1.9903,-2.0475,-2.0919,-2.0919,-2.1046,-2.1109,-2.1109,-2.1109,-2.1109,-2.1109,-2.1189,-2.1229,-2.1122,-2.1283,-2.1323,-2.1136,-2.1283,-2.1323,-2.1122,-2.1203,-2.1216,-2.1122,-2.1109,-2.1109,-2.1109,-2.1109,-2.1109,-2.1109,-2.1296,-2.1363,-2.1256,-2.1256,-2.1203,-2.1109,-2.1109,-2.1109,0.0,0.0,0.0,-0.9125,-0.9303,-0.9469,-0.9862,-0.9963,-1.0004,-1.0229,-1.0371,-1.0521,0.0,0.0,0.0,0.0,0.0,0.0,0.0,0.0,0.0,0.0,0.0,0.0,0.0,0.0,0.0,0.0,0.0,-0.9673,-0.9808,-0.9537,-0.9245,-0.8898,-0.9076,-0.9083,-0.8892,-0.9232,-0.93,-0.9214,-0.9605,-0.9741,-0.9605,-0.9754,-0.9741,-0.9664,-1.1071,-1.3067,-1.533,-1.6833,-1.7636,-1.7889,-1.8167,-1.8275,-1.8312,-1.8589,-1.8336,-1.7877,-1.7889,-1.8058,-1.8239,-1.795,-1.8408,-1.9012,-1.8746,-1.8855,-1.906,-1.906,-1.906,-1.906,-1.9072,-1.9072,-1.9072,-1.9072,-1.9328,-1.9584,-1.9584,-2.0094,-2.0615,-2.0602,-2.0856,-2.1109,-2.1109,-2.1109,-2.1109,-2.1109,-2.1349,-2.1494,-2.1149,-2.1603,-2.175,-2.1189,-2.163,-2.1737,-2.1176,-2.139,-2.1494,-2.1122,-2.1109,-2.1109,-2.1109,-2.1109,-2.1109,-2.1109,-2.1122,-2.1269,-2.1614,-2.1614,-2.1403,-2.1136,-2.1122,-2.1122,-0.8662,0.0,0.0,0.0,0.0,0.0,-0.93,-0.9401,-0.9476,-0.9741,-0.991,0.0,0.0,0.0,0.0,0.0,0.0,0.0,0.0,0.0,0.0,0.0,0.0,0.0,0.0,0.0,0.0,0.0,-0.9774,-0.9625,-0.9666,-0.9381,-0.9234,-0.9096,-0.9028,-0.9028,-0.9089,-0.9234,-0.9255,-0.9214,-0.9503,-0.9591,-0.9456,-0.9707,-0.9625,-0.9415,-1.103,-1.2513,-1.3891,-1.5455,-1.669,-1.7612,-1.7889,-1.7986,-1.8046,-1.8517,-1.8336,-1.7901,-1.8106,-1.8094,-1.795,-1.7684,-1.8131,-1.871,-1.8239,-1.842,-1.8794,-1.8794,-1.8794,-1.8843,-1.9024,-1.9072,-1.9072,-1.9072,-1.92,-1.9264,-1.9264,-1.9584,-2.003,-2.0475,-2.0666,-2.0792,-2.1046,-2.1109,-2.1109,-2.1109,-2.1176,-2.1203,-2.1122,-2.1256,-2.1376,-2.143,-2.1641,-2.1668,-2.1507,-2.1574,-2.1494,-2.1122,-2.1109,-2.1109,-2.1109,-2.1109,-2.1109,-2.1109,-2.1523,-2.1683,-2.1614,-2.1614,-2.1681,-2.1737,-2.1523,-2.143,-0.8743,-0.8587,-0.8526,-0.8818,0.0,0.0,-0.92,-0.9255,-0.9275,0.0,0.0,0.0,0.0,0.0,0.0,0.0,0.0,0.0,0.0,0.0,0.0,0.0,0.0,0.0,0.0,0.0,0.0,-0.9883,-0.9741,-0.9585,-0.9517,-0.9344,-0.918,-0.9062,-0.8981,-0.8981,-0.9062,-0.918,-0.918,-0.9069,-0.9367,-0.9435,-0.9357,-0.9598,-0.9557,-0.9323,-1.0354,-1.1457,-1.2605,-1.4074,-1.5777,-1.7503,-1.7768,-1.7805,-1.7781,-1.8324,-1.8179,-1.7744,-1.8022,-1.801,-1.7853,-1.7696,-1.8118,-1.8601,-1.8179,-1.8348,-1.8686,-1.8686,-1.8758,-1.8879,-1.9036,-1.9072,-1.9072,-1.9072,-1.9072,-1.9072,-1.9072,-1.9264,-1.9584,-2.0094,-2.0412,-2.0679,-2.0856,-2.0982,-2.1109,-2.1109,-2.1216,-2.1256,-2.1122,-2.143,-2.163,-2.1628,-2.1949,-2.207,-2.1815,-2.1844,-2.179,-2.1496,-2.147,-2.147,-2.147,-2.147,-2.147,-2.147,-2.1804,-2.1964,-2.1911,-2.1911,-2.1937,-2.1977,-2.1817,-2.1802,-0.8804,-0.8737,-0.8798,-0.9098,-0.892,0.0,-0.9198,-0.9234,-0.9173,0.0,0.0,0.0,0.0,0.0,0.0,0.0,0.0,0.0,0.0,0.0,0.0,0.0,0.0,0.0,0.0,-0.9788,-0.9686,-0.9815,-0.9686,-0.9544,-0.9388,-0.9296,-0.9089,-0.8892,-0.8885,-0.8885,-0.8885,-0.9062,-0.9062,-0.8885,-0.9225,-0.9273,-0.9193,-0.9442,-0.9503,-0.9361,-0.9517,-1.0295,-1.1593,-1.2876,-1.4934,-1.7326,-1.7732,-1.7684,-1.7539,-1.8058,-1.7925,-1.7527,-1.7781,-1.7853,-1.7829,-1.7829,-1.8179,-1.8541,-1.8287,-1.8384,-1.8601,-1.8638,-1.8831,-1.9036,-1.9072,-1.9072,-1.9072,-1.9072,-1.9072,-1.9072,-1.9072,-1.9072,-1.92,-1.952,-2.003,-2.0475,-2.0602,-2.0856,-2.1046,-2.1109,-2.1336,-2.1416,-2.1189,-2.1844,-2.2151,-2.1762,-2.2352,-2.2592,-2.2031,-2.2258,-2.2285,-2.1951,-2.1964,-2.1991,-2.1991,-2.1991,-2.1991,-2.1991,-2.2017,-2.2178,-2.2472,-2.2472,-2.2338,-2.2084,-2.2044,-2.2031,-0.8858,-0.8838,-0.8824,-0.8811,-0.8845,0.0,-0.8696,-0.8635,-0.8621,0.0,-0.8655,0.0,0.0,0.0,0.0,0.0,0.0,0.0,0.0,0.0,0.0,0.0,0.0,0.0,0.0,-0.9815,-0.9788,-0.9822,-0.9686,-0.9544,-0.9388,-0.9296,-0.9089,-0.8892,-0.8885,-0.8885,-0.8885,-0.8912,-0.8912,-0.8885,-0.9117,-0.9123,-0.8988,-0.9286,-0.934,-0.9262,-0.9361,-1.0244,-1.1593,-1.2876,-1.4407,-1.6053,-1.7174,-1.7527,-1.7527,-1.7841,-1.7756,-1.7527,-1.7781,-1.7732,-1.7563,-1.7563,-1.7768,-1.7986,-1.772,-1.7829,-1.8082,-1.8312,-1.8553,-1.8807,-1.9024,-1.9072,-1.9072,-1.9072,-1.9072,-1.9072,-1.9072,-1.9072,-1.9136,-1.92,-1.952,-1.9966,-2.0475,-2.0666,-2.0792,-2.1046,-2.1162,-2.1256,-2.1507,-2.1681,-2.1857,-2.2218,-2.2405,-2.2365,-2.2017,-2.2258,-2.2191,-2.1735,-2.1857,-2.1991,-2.1991,-2.1991,-2.1991,-2.1991,-2.2218,-2.2485,-2.2779,-2.2779,-2.2752,-2.2686,-2.2445,-2.2338,-0.8905,-0.8885,-0.8885,-0.8933,-0.8879,0.0,0.0,-0.8587,-0.8506,-0.8581,-0.8479,-0.8465,0.0,0.0,0.0,0.0,0.0,0.0,0.0,0.0,0.0,0.0,0.0,0.0,0.0,-0.9598,-0.9632,-0.9707,-0.9578,-0.9462,-0.9388,-0.9171,-0.9015,-0.8885,-0.8885,-0.8885,-0.8885,-0.8885,-0.8885,-0.8885,-0.9015,-0.9008,-0.8892,-0.9171,-0.9323,-0.933,-0.9347,-0.9856,-1.0771,-1.1921,-1.3299,-1.4857,-1.6762,-1.7479,-1.7503,-1.7624,-1.7599,-1.7503,-1.7636,-1.7587,-1.7479,-1.7479,-1.766,-1.7829,-1.7563,-1.766,-1.7937,-1.8215,-1.8481,-1.8746,-1.9012,-1.9072,-1.9072,-1.9072,-1.9072,-1.9072,-1.9072,-1.9072,-1.9072,-1.9072,-1.9264,-1.9584,-2.0234,-2.0488,-2.0729,-2.1046,-2.1109,-2.1216,-2.1574,-2.1748,-2.1937,-2.2378,-2.2552,-2.2525,-2.2231,-2.2472,-2.2445,-2.2017,-2.2258,-2.2418,-2.2418,-2.2418,-2.2418,-2.2418,-2.2565,-2.2712,-2.2928,-2.2928,-2.2928,-2.2928,-2.2712,-2.2645,-0.8881,-0.8986,-0.9083,-0.9193,-0.9015,-0.8886,0.0,0.0,0.0,0.0,0.0,0.0,0.0,0.0,0.0,0.0,0.0,0.0,0.0,0.0,0.0,0.0,0.0,0.0,0.0,-0.9401,-0.9435,-0.9557,-0.9449,-0.9367,-0.934,-0.9137,-0.8939,-0.8885,-0.8967,-0.8912,-0.8885,-0.8885,-0.8885,-0.8885,-0.8885,-0.8885,-0.8885,-0.9055,-0.9198,-0.934,-0.934,-0.9503,-0.9828,-1.1007,-1.2353,-1.3904,-1.6231,-1.7303,-1.7479,-1.7479,-1.7479,-1.7491,-1.7539,-1.7527,-1.7491,-1.7539,-1.7672,-1.7756,-1.7551,-1.7624,-1.7853,-1.8131,-1.8408,-1.8674,-1.8927,-1.9036,-1.9072,-1.9072,-1.9072,-1.9072,-1.9072,-1.9072,-1.9072,-1.9072,-1.9072,-1.9264,-1.9915,-2.0234,-2.0539,-2.0919,-2.1036,-2.1232,-2.1603,-2.1884,-2.2178,-2.2472,-2.2712,-2.2739,-2.2445,-2.2699,-2.2739,-2.2432,-2.2699,-2.2928,-2.2928,-2.2928,-2.2928,-2.2928,-2.2928,-2.2928,-2.2928,-2.2928,-2.2928,-2.2928,-2.2928,-2.2928,-0.8839,-0.9195,-0.9469,-0.9275,-0.9334,-0.9374,-0.8852,0.0,-0.8777,-0.8397,0.0,0.0,0.0,0.0,0.0,0.0,0.0,0.0,0.0,0.0,0.0,0.0,0.0,0.0,0.0,0.0,-0.9388,-0.9408,-0.9395,-0.932,-0.9241,-0.9273,-0.9211,-0.8892,-0.9062,-0.9069,-0.8885,-0.8885,-0.8885,-0.8885,-0.8885,-0.8885,-0.8885,-0.8898,-0.9042,-0.9234,-0.9234,-0.9354,-0.9751,-1.0961,-1.2353,-1.3844,-1.5273,-1.6526,-1.7479,-1.7479,-1.7479,-1.7515,-1.7744,-1.7684,-1.7527,-1.7756,-1.7696,-1.7527,-1.7491,-1.7503,-1.7587,-1.7853,-1.8118,-1.8396,-1.8662,-1.8903,-1.9072,-1.9072,-1.9072,-1.9072,-1.9072,-1.9072,-1.9072,-1.9072,-1.9072,-1.92,-1.9584,-1.9711,-1.9903,-2.0539,-2.0888,-2.1214,-2.1897,-2.2191,-2.2485,-2.2779,-2.2914,-2.2739,-2.2445,-2.2699,-2.2739,-2.2432,-2.2699,-2.2928,-2.2928,-2.2928,-2.2928,-2.2928,-2.2928,-2.2928,-2.2928,-2.2928,-2.2928,-2.2928,-2.2928,-2.2928,-0.8555,-0.8671,-0.8813,-0.9012,-0.8957,-0.8825,-0.8824,-0.8689,-0.8547,-0.8526,0.0,0.0,0.0,0.0,0.0,0.0,-0.8689,0.0,0.0,0.0,0.0,0.0,0.0,0.0,0.0,0.0,0.0,0.0,0.0,-0.9184,-0.9035,-0.9171,-0.9191,-0.9069,-0.918,-0.918,-0.9062,-0.8981,-0.8885,-0.8885,-0.8885,-0.8885,-0.8885,-0.9022,-0.9096,-0.9221,-0.934,-0.949,-0.9678,-1.0292,-1.1319,-1.2646,-1.3963,-1.5747,-1.7479,-1.7479,-1.7479,-1.7503,-1.7612,-1.7672,-1.7732,-1.7841,-1.7696,-1.7479,-1.7479,-1.7479,-1.7539,-1.7793,-1.8082,-1.836,-1.8613,-1.8879,-1.9072,-1.9072,-1.9072,-1.9072,-1.9072,-1.9072,-1.9072,-1.9072,-1.9072,-1.9136,-1.9264,-1.9456,-1.9775,-2.0234,-2.0721,-2.1202,-2.1621,-2.2111,-2.2539,-2.2832,-2.2928,-2.2739,-2.2445,-2.2699,-2.2739,-2.2432,-2.2699,-2.2928,-2.2928,-2.2928,-2.2928,-2.2928,-2.2928,-2.2928,-2.2928,-2.2928,-2.2928,-2.2928,-2.2928,-2.2928,-0.8212,0.0,-0.8374,0.0,0.0,-0.8359,-0.8699,-0.8608,-0.8454,-0.8683,-0.8635,0.0,0.0,0.0,-0.8533,-0.8791,0.0,-0.8696,0.0,0.0,0.0,0.0,0.0,0.0,0.0,0.0,0.0,0.0,0.0,0.0,-0.8818,-0.9028,-0.9193,-0.9096,-0.9228,-0.9255,-0.9207,-0.9008,-0.8885,-0.8885,-0.8885,-0.8885,-0.8892,-0.9089,-0.9207,-0.9228,-0.9476,-0.9612,-0.9618,-0.9761,-1.0543,-1.1812,-1.2766,-1.4738,-1.7009,-1.7361,-1.7479,-1.7491,-1.7563,-1.7708,-1.7865,-1.7793,-1.7636,-1.7479,-1.7479,-1.7479,-1.7527,-1.7708,-1.8022,-1.8336,-1.8529,-1.8819,-1.9072,-1.9072,-1.9072,-1.9072,-1.9072,-1.9072,-1.9096,-1.9169,-1.9181,-1.9205,-1.9289,-1.9487,-1.967,-1.9915,-2.0527,-2.1056,-2.145,-2.1977,-2.2483,-2.2832,-2.2928,-2.2779,-2.2565,-2.2739,-2.2766,-2.2552,-2.2739,-2.2928,-2.2928,-2.2928,-2.2928,-2.2928,-2.2928,-2.2928,-2.2928,-2.2928,-2.2928,-2.2928,-2.2928,-2.2928,0.0,0.0,0.0,-0.8349,0.0,0.0,0.0,0.0,-0.8752,0.0,-0.9035,-0.9139,-0.8954,-0.8865,-0.8967,-0.9173,-0.9015,0.0,0.0,0.0,0.0,0.0,0.0,0.0,0.0,0.0,0.0,0.0,0.0,0.0,-0.8506,-0.8968,-0.9089,-0.8892,-0.9225,-0.9357,-0.9214,-0.9008,-0.8885,-0.8885,-0.8885,-0.8885,-0.8892,-0.9089,-0.9207,-0.9228,-0.9476,-0.9612,-0.9618,-0.9761,-1.0543,-1.1692,-1.1752,-1.3366,-1.5806,-1.7067,-1.7479,-1.7515,-1.7768,-1.7865,-1.7829,-1.7575,-1.7491,-1.7479,-1.7479,-1.7479,-1.7491,-1.7491,-1.7877,-1.83,-1.83,-1.8686,-1.9072,-1.9072,-1.9072,-1.9072,-1.9072,-1.9072,-1.9157,-1.9475,-1.9524,-1.9543,-1.9808,-1.9705,-1.9557,-1.9621,-2.0331,-2.0956,-2.1436,-2.1945,-2.2435,-2.2859,-2.2928,-2.2928,-2.2846,-2.2859,-2.2928,-2.2846,-2.2859,-2.2928,-2.2928,-2.2928,-2.2928,-2.2928,-2.2928,-2.2928,-2.2928,-2.2928,-2.2928,-2.2928,-2.2928,-2.2928,0.0,0.0,-0.7732,-0.7914,0.0,0.0,0.0,0.0,0.0,0.0,0.0,0.0,-0.9225,-0.915,-0.913,-0.9279,-0.9096,-0.8988,0.0,0.0,0.0,0.0,0.0,0.0,0.0,0.0,0.0,0.0,0.0,0.0,0.0,-0.8914,-0.9187,-0.9083,-0.9273,-0.9354,-0.9364,-0.9062,-0.8885,-0.8885,-0.8885,-0.8885,-0.8892,-0.9191,-0.9309,-0.9234,-0.9578,-0.9693,-0.9618,-0.9761,-1.0543,-1.1692,-1.1692,-1.3306,-1.5628,-1.6113,-1.6762,-1.7551,-1.7998,-1.7913,-1.766,-1.7925,-1.7781,-1.7479,-1.7479,-1.7479,-1.7479,-1.7479,-1.7877,-1.83,-1.83,-1.8686,-1.9072,-1.9072,-1.9072,-1.9072,-1.9072,-1.9217,-1.9362,-1.9446,-1.9615,-1.9772,-1.9869,-1.9953,-1.9984,-1.9849,-2.0392,-2.0841,-2.1024,-2.1803,-2.2379,-2.2516,-2.2722,-2.2928,-2.2928,-2.2928,-2.2928,-2.2928,-2.2928,-2.2928,-2.2928,-2.2928,-2.2928,-2.2928,-2.2928,-2.2928,-2.2928,-2.2928,-2.2928,-2.2928,-2.2928,-2.2928,-0.7388,-0.7334,0.0,-0.755,-0.755,0.0,-0.7771,0.0,-0.8308,0.0,0.0,0.0,0.0,-0.9036,-0.9104,-0.9044,-0.9013,-0.8988,0.0,-0.8798,0.0,0.0,0.0,-0.9207,0.0,0.0,0.0,0.0,0.0,0.0,0.0,0.0,-0.9022,-0.9076,-0.9273,-0.9381,-0.9381,-0.9137,-0.8988,-0.8885,-0.8885,-0.8885,-0.8892,-0.9245,-0.9327,-0.9316,-0.9652,-0.9768,-0.9693,-0.9781,-1.0301,-1.1088,-1.1511,-1.3006,-1.4976,-1.5451,-1.6408,-1.7551,-1.7986,-1.7853,-1.7551,-1.7998,-1.7841,-1.7479,-1.7479,-1.7479,-1.7479,-1.7479,-1.7877,-1.83,-1.83,-1.8686,-1.9072,-1.9072,-1.9145,-1.9217,-1.9217,-1.9422,-1.9639,-1.9802,-1.9905,-2.005,-2.0146,-2.0303,-2.0291,-1.9941,-2.0386,-2.0786,-2.0823,-2.1457,-2.2035,-2.2242,-2.2516,-2.2722,-2.2859,-2.2928,-2.2928,-2.2928,-2.2928,-2.2928,-2.2928,-2.2928,-2.3035,-2.3249,-2.3035,-2.3035,-2.318,-2.2966,-2.2928,-2.2928,-2.2928,-2.2928]}]]